[[{"header":{"parameterUnit":"m.s-1","parameterCategory":1,"la1":31.0,"la2":29.5877,"lo1":-88.7671,"lo2":-86.6584,"dy":0.0162,"dx":0.0185,"nx":115,"ny":88,"refTime":"2024-08-24T06:00:00:Z","depth":0,"parameterNumber":2,"parameterNumberName":"U-component_of_WINDS"},"data":[0.0,0.0,0.0,0.0,0.0,0.0,0.0,0.0,0.0,0.0,0.0,0.0,0.0,0.0,0.0,0.0,0.0,0.0,0.0,0.0,0.0,0.0,0.0,0.0,0.0,0.0,0.0,0.0,0.0,0.0,0.0,0.0,0.0,0.0,0.0,0.0,0.0,0.0,0.0,0.0,0.0,0.0,0.0,0.0,0.0,0.0,0.0,0.0,0.0,0.0,0.0,0.0,0.0,0.0,0.0,0.0,0.0,0.0,0.0,0.0,0.0,0.0,0.0,0.0,0.0,0.0,0.0,0.0,0.0,0.0,0.0,0.0,0.0,0.0,0.0,0.0,0.0,0.0,0.0,0.0,0.0,0.0,0.0,0.0,0.0,0.0,0.0,0.0,0.0,0.0,0.0,0.0,0.0,0.0,0.0,0.0,0.0,0.0,0.0,0.0,0.0,0.0,0.0,0.0,0.0,0.0,0.0,0.0,0.0,0.0,0.0,0.0,0.0,0.0,0.0,0.0,0.0,0.0,0.0,0.0,0.0,0.0,0.0,0.0,0.0,0.0,0.0,0.0,0.0,0.0,0.0,0.0,0.0,0.0,0.0,0.0,0.0,0.0,0.0,0.0,0.0,0.0,0.0,0.0,0.0,0.0,0.0,0.0,0.0,0.0,0.0,0.0,0.0,0.0,0.0,0.0,0.0,0.0,0.0,0.0,0.0,0.0,0.0,0.0,0.0,0.0,0.0,0.0,0.0,0.0,0.0,0.0,0.0,0.0,0.0,0.0,0.0,0.0,0.0,0.0,0.0,0.0,0.0,0.0,0.0,0.0,0.0,0.0,0.0,0.0,0.0,0.0,0.0,0.0,0.0,0.0,0.0,0.0,0.0,0.0,0.0,0.0,0.0,0.0,0.0,0.0,0.0,0.0,0.0,0.0,0.0,0.0,0.0,0.0,0.0,0.0,0.0,0.0,0.0,0.0,0.0,0.0,0.0,0.0,0.0,0.0,0.0,0.0,0.0,0.0,0.0,0.0,0.0,0.0,0.0,0.0,0.0,0.0,0.0,0.0,0.0,0.0,0.0,0.0,0.0,0.0,0.0,0.0,0.0,0.0,0.0,0.0,0.0,0.0,0.0,0.0,0.0,0.0,0.0,0.0,0.0,0.0,0.0,0.0,0.0,0.0,0.0,0.0,0.0,0.0,0.0,0.0,0.0,0.0,0.0,0.0,0.0,0.0,0.0,0.0,0.0,0.0,0.0,0.0,0.0,0.0,0.0,0.0,0.0,0.0,0.0,0.0,0.0,0.0,0.0,0.0,0.0,0.0,0.0,0.0,0.0,0.0,0.0,0.0,0.0,0.0,0.0,0.0,0.0,0.0,0.0,0.0,0.0,0.0,0.0,0.0,0.0,0.0,0.0,0.0,0.0,0.0,0.0,0.0,0.0,0.0,0.0,0.0,0.0,0.0,0.0,0.0,0.0,0.0,0.0,0.0,0.0,0.0,0.0,0.0,0.0,0.0,0.0,0.0,0.0,0.0,0.0,0.0,0.0,0.0,0.0,0.0,0.0,0.0,0.0,0.0,0.0,0.0,0.0,0.0,0.0,0.0,0.0,0.0,0.0,0.0,0.0,0.0,0.0,0.0,0.0,0.0,0.0,0.0,0.0,0.0,0.0,0.0,0.0,0.0,0.0,0.0,0.0,0.0,0.0,0.0,0.0,0.0,0.0,0.0,0.0,0.0,0.0,0.0,0.0,0.0,0.0,0.0,0.0,0.0,0.0,0.0,0.0,0.0,0.0,0.0,0.0,0.0,0.0,0.0,0.0,0.0,0.0,0.0,0.0,0.0,0.0,0.0,0.0,0.0,0.0,0.0,0.0,0.0,0.0,0.0,0.0,0.0,0.0,0.0,0.0,0.0,0.0,0.0,0.0,0.0,0.0,0.0,0.0,0.0,0.0,0.0,0.0,0.0,0.0,0.0,0.0,0.0,0.0,0.0,0.0,0.0,0.0,0.0,0.0,0.0,0.0,0.0,0.0,0.0,0.0,0.0,0.0,0.0,0.0,0.0,0.0,0.0,0.0,0.0,0.0,0.0,0.0,0.0,0.0,0.0,0.0,0.0,0.0,0.0,0.0,0.0,0.0,0.0,0.0,0.0,0.0,0.0,0.0,0.0,0.0,0.0,0.0,0.0,0.0,0.0,0.0,0.0,0.0,0.0,0.0,0.0,0.0,0.0,0.0,0.0,0.0,0.0,0.0,0.0,0.0,0.0,0.0,0.0,0.0,0.0,0.0,0.0,0.0,0.0,0.0,0.0,0.0,0.0,0.0,0.0,0.0,0.0,0.0,0.0,0.0,0.0,0.0,0.0,0.0,0.0,0.0,0.0,0.0,0.0,0.0,0.0,0.0,0.0,0.0,0.0,0.0,0.0,0.0,0.0,0.0,0.0,0.0,0.0,0.0,0.0,0.0,0.0,0.0,0.0,0.0,0.0,0.0,0.0,0.0,0.0,0.0,0.0,0.0,0.0,0.0,0.0,0.0,0.0,0.0,0.0,0.0,0.0,0.0,0.0,0.0,0.0,0.0,0.0,0.0,0.0,0.0,0.0,0.0,0.0,0.0,0.0,0.0,0.0,0.0,0.0,0.0,0.0,0.0,0.0,0.0,0.0,0.0,0.0,0.0,0.0,0.0,0.0,0.0,0.0,0.0,0.0,0.0,0.0,0.0,0.0,0.0,0.0,0.0,0.0,0.0,0.0,0.0,0.0,0.0,0.0,0.0,0.0,0.0,0.0,0.0,0.0,0.0,0.0,0.0,0.0,0.0,0.0,0.0,0.0,0.0,0.0,0.0,0.0,0.0,0.0,0.0,0.0,0.0,0.0,0.0,0.0,0.0,0.0,0.0,0.0,0.0,0.0,0.0,0.0,0.0,0.0,0.0,0.0,0.0,0.0,0.0,0.0,0.0,0.0,0.0,0.0,0.0,0.0,0.0,0.0,0.0,0.0,0.0,0.0,0.0,0.0,0.0,0.0,0.0,0.0,0.0,0.0,0.0,0.0,0.0,0.0,0.0,0.0,0.0,0.0,0.0,0.0,0.0,0.0,0.0,0.0,0.0,0.0,0.0,0.0,0.0,0.0,0.0,0.0,0.0,0.0,0.0,0.0,0.0,0.0,0.0,0.0,0.0,0.0,0.0,0.0,0.0,0.0,0.0,0.0,0.0,0.0,0.0,0.0,0.0,0.0,0.0,0.0,0.0,0.0,0.0,0.0,0.0,0.0,0.0,0.0,0.0,0.0,0.0,0.0,0.0,0.0,0.0,0.0,0.0,0.0,0.0,0.0,0.0,0.0,0.0,0.0,0.0,0.0,0.0,0.0,0.0,0.0,0.0,0.0,0.0,0.0,0.0,0.0,0.0,0.0,0.0,0.0,0.0,0.0,0.0,0.0,0.0,0.0,0.0,0.0,0.0,0.0,0.0,0.0,0.0,0.0,0.0,0.0,0.0,0.0,0.0,0.0,0.0,0.0,0.0,0.0,0.0,0.0,0.0,0.0,0.0,0.0,0.0,0.0,0.0,0.0,0.0,0.0,0.0,0.0,0.0,0.0,0.0,0.0,0.0,0.0,0.0,0.0,0.0,0.0,0.0,0.0,0.0,0.0,0.0,0.0,0.0,0.0,0.0,0.0,0.0,0.0,0.0,0.0,0.0,0.0,0.0,0.0,0.0,0.0,0.0,0.0,0.0,0.0,0.0,0.0,0.0,0.0,0.0,0.0,0.0,0.0,0.0,0.0,0.0,0.0,0.0,0.0,0.0,0.0,0.0,0.0,0.0,0.0,0.0,0.0,0.0,0.0,0.0,0.0,0.0,0.0,0.0,0.0,0.0,0.0,0.0,0.0,0.0,0.0,0.0,0.0,0.0,0.0,0.0,0.0,0.0,0.0,0.0,0.0,0.0,0.0,0.0,0.0,0.0,0.0,0.0,0.0,0.0,0.0,0.0,0.0,0.0,0.0,0.0,0.0,0.0,0.0,0.0,0.0,0.0,0.0,0.0,0.0,0.0,0.0,0.0,0.0,0.0,0.0,0.0,0.0,0.0,0.0,0.0,0.0,0.0,0.0,0.0,0.0,0.0,0.0,0.0,0.0,0.0,0.0,0.0,0.0,0.0,0.0,0.0,0.0,0.0,0.0,0.0,0.0,0.0,0.0,0.0,0.0,0.0,0.0,0.0,0.0,0.0,0.0,0.0,0.0,0.0,0.0,0.0,0.0,0.0,0.0,1.4396,0.0,0.0,0.0,0.0,0.0,0.0,0.0,0.0,0.0,0.0,0.0,0.0,0.0,0.0,0.0,0.0,0.0,0.0,0.0,0.0,0.0,0.0,0.0,0.0,0.0,0.0,0.0,0.0,0.0,0.0,0.0,0.0,0.0,0.0,0.0,0.0,0.0,0.0,0.0,0.0,0.0,0.0,0.0,0.0,0.0,0.0,0.0,0.0,0.0,0.0,0.0,0.0,0.0,0.0,0.0,0.0,0.0,0.0,0.0,0.0,0.0,0.0,0.0,0.0,0.0,0.0,0.0,0.0,0.0,0.0,0.0,0.0,0.0,0.0,0.0,0.0,0.0,0.0,0.0,0.0,0.0,0.0,0.0,0.0,0.0,0.0,0.0,0.0,0.0,0.0,0.0,0.0,0.0,0.0,0.0,0.0,0.0,0.0,0.0,0.0,0.0,0.0,0.0,0.0,0.0,0.0,0.0,0.0,0.0,0.0,1.4407,1.4407,1.4407,1.4407,1.4407,0.0,0.0,0.0,0.0,0.0,0.0,0.0,0.0,0.0,0.0,0.0,0.0,0.0,0.0,0.0,0.0,0.0,0.0,0.0,0.0,0.0,0.0,0.0,0.0,0.0,0.0,0.0,0.0,0.0,0.0,0.0,0.0,0.0,0.0,0.0,0.0,0.0,0.0,0.0,0.0,0.0,0.0,0.0,0.0,0.0,0.0,0.0,0.0,0.0,0.0,0.0,0.0,0.0,0.0,0.0,0.0,0.0,0.0,0.0,0.0,0.0,0.0,0.0,0.0,0.0,0.0,0.0,0.0,0.0,0.0,0.0,0.0,0.0,0.0,0.0,0.0,0.0,0.0,0.0,0.0,0.0,0.0,0.0,0.0,0.0,0.0,0.0,0.0,0.0,0.0,0.0,0.0,0.0,0.0,0.0,0.0,0.0,0.0,0.0,0.0,0.0,0.0,0.0,0.0,0.0,0.0,0.0,0.0,0.0,0.0,0.0,0.0,1.4571,1.4549,1.456,0.0,0.0,0.0,0.0,0.0,0.0,0.0,0.0,0.0,0.0,0.0,0.0,0.0,0.0,0.0,0.0,0.0,0.0,0.0,0.0,0.0,0.0,0.0,0.0,0.0,0.0,0.0,0.0,0.0,0.0,0.0,0.0,0.0,0.0,0.0,0.0,0.0,0.0,0.0,0.0,0.0,0.0,0.0,0.0,0.0,0.0,0.0,0.0,0.0,0.0,0.0,0.0,0.0,0.0,0.0,0.0,0.0,0.0,0.0,0.0,0.0,0.0,0.0,0.0,0.0,0.0,0.0,0.0,0.0,0.0,0.0,0.0,0.0,0.0,0.0,0.0,0.0,0.0,0.0,0.0,0.0,0.0,0.0,0.0,0.0,0.0,0.0,0.0,0.0,0.0,0.0,0.0,0.0,0.0,0.0,0.0,0.0,0.0,0.0,0.0,0.0,0.0,0.0,0.0,0.0,0.0,0.0,0.0,0.0,0.0,1.4592,1.5017,1.5039,0.0,1.4996,0.0,0.0,0.0,0.0,0.0,0.0,0.0,0.0,0.0,0.0,0.0,0.0,0.0,0.0,0.0,0.0,0.0,0.0,0.0,0.0,0.0,0.0,0.0,0.0,0.0,0.0,0.0,0.0,0.0,0.0,0.0,0.0,0.0,0.0,0.0,0.0,0.0,0.0,0.0,0.0,0.0,0.0,0.0,0.0,0.0,0.0,0.0,0.0,0.0,0.0,0.0,0.0,0.0,0.0,0.0,0.0,0.0,0.0,0.0,0.0,0.0,0.0,0.0,0.0,0.0,0.0,0.0,0.0,0.0,0.0,0.0,0.0,0.0,0.0,0.0,0.0,0.0,0.0,0.0,0.0,0.0,0.0,0.0,0.0,0.0,0.0,0.0,0.0,0.0,0.0,0.0,0.0,0.0,0.0,0.0,0.0,0.0,0.0,0.0,0.0,0.0,0.0,0.0,0.0,0.0,0.0,0.0,0.0,0.0,0.0,1.5039,1.5506,1.5245,1.5105,0.0,0.0,0.0,0.0,0.0,0.0,0.0,0.0,0.0,0.0,0.0,0.0,0.0,0.0,0.0,0.0,0.0,0.0,0.0,0.0,0.0,0.0,0.0,0.0,0.0,0.0,0.0,0.0,0.0,0.0,0.0,0.0,0.0,0.0,0.0,0.0,0.0,0.0,0.0,0.0,0.0,0.0,0.0,0.0,0.0,0.0,0.0,0.0,0.0,0.0,0.0,0.0,0.0,0.0,0.0,0.0,0.0,0.0,0.0,0.0,0.0,0.0,0.0,0.0,0.0,0.0,0.0,0.0,0.0,0.0,0.0,0.0,0.0,0.0,0.0,0.0,0.0,0.0,0.0,0.0,0.0,0.0,0.0,0.0,0.0,0.0,0.0,0.0,0.0,0.0,0.0,0.0,0.0,0.0,0.0,0.0,0.0,0.0,0.0,0.0,0.0,0.0,0.0,0.0,0.0,0.0,0.0,0.0,0.0,0.0,1.492,1.5125,1.5571,1.5409,1.5169,1.492,0.0,0.0,0.0,0.0,0.0,0.0,0.0,0.0,0.0,0.0,0.0,0.0,0.0,0.0,0.0,0.0,0.0,0.0,0.0,0.0,0.0,0.0,0.0,0.0,0.0,0.0,0.0,0.0,0.0,0.0,0.0,0.0,0.0,0.0,0.0,0.0,0.0,0.0,0.0,0.0,0.0,0.0,0.0,0.0,0.0,0.0,0.0,0.0,0.0,0.0,0.0,0.0,0.0,0.0,0.0,0.0,0.0,0.0,0.0,0.0,0.0,0.0,0.0,0.0,0.0,0.0,0.0,0.0,0.0,0.0,0.0,0.0,0.0,0.0,0.0,0.0,0.0,0.0,0.0,0.0,0.0,0.0,0.0,0.0,0.0,0.0,0.0,0.0,0.0,0.0,0.0,0.0,0.0,0.0,0.0,0.0,0.0,0.0,0.0,0.0,0.0,0.0,0.0,0.0,0.0,0.0,0.0,0.0,1.4439,1.4451,1.4669,1.5159,1.5562,1.5354,0.0,0.0,0.0,0.0,0.0,0.0,0.0,0.0,0.0,0.0,0.0,0.0,0.0,0.0,0.0,0.0,0.0,0.0,0.0,0.0,0.0,0.0,0.0,0.0,0.0,0.0,0.0,0.0,0.0,0.0,0.0,0.0,0.0,0.0,0.0,0.0,0.0,0.0,0.0,0.0,0.0,0.0,0.0,0.0,0.0,0.0,0.0,0.0,0.0,0.0,0.0,0.0,0.0,0.0,0.0,0.0,0.0,0.0,0.0,0.0,0.0,0.0,0.0,0.0,0.0,0.0,0.0,0.0,0.0,0.0,0.0,0.0,0.0,0.0,0.0,0.0,0.0,0.0,0.0,0.0,0.0,0.0,0.0,0.0,0.0,0.0,0.0,0.0,0.0,0.0,0.0,0.0,0.0,0.0,0.0,0.0,0.0,0.0,0.0,0.0,0.0,0.0,0.0,0.0,0.0,0.0,0.0,0.0,0.0,1.4855,1.5159,1.5518,1.5966,1.5595,1.5061,0.0,0.0,0.0,0.0,0.0,0.0,0.0,0.0,0.0,0.0,0.0,0.0,0.0,0.0,0.0,0.0,0.0,0.0,0.0,0.0,0.0,0.0,0.0,0.0,0.0,0.0,0.0,0.0,0.0,0.0,0.0,0.0,0.0,0.0,0.0,0.0,0.0,0.0,0.0,0.0,0.0,0.0,0.0,0.0,0.0,0.0,0.0,0.0,0.0,0.0,0.0,0.0,0.0,0.0,0.0,0.0,0.0,0.0,0.0,0.0,0.0,0.0,0.0,0.0,0.0,0.0,0.0,0.0,0.0,0.0,0.0,0.0,0.0,0.0,0.0,0.0,0.0,0.0,0.0,0.0,0.0,0.0,0.0,0.0,0.0,0.0,0.0,0.0,0.0,0.0,0.0,0.0,0.0,0.0,0.0,0.0,0.0,0.0,0.0,0.0,0.0,0.0,0.0,0.0,0.0,0.0,0.0,0.0,0.0,1.5106,0.0,1.5887,0.0,1.5584,1.4874,0.0,0.0,0.0,0.0,0.0,0.0,0.0,0.0,0.0,0.0,0.0,0.0,0.0,0.0,0.0,0.0,0.0,0.0,0.0,0.0,0.0,0.0,0.0,0.0,0.0,0.0,0.0,0.0,0.0,0.0,0.0,0.0,0.0,0.0,0.0,0.0,0.0,0.0,0.0,0.0,0.0,0.0,0.0,0.0,0.0,0.0,0.0,0.0,0.0,0.0,0.0,0.0,0.0,0.0,0.0,0.0,0.0,0.0,0.0,0.0,0.0,0.0,0.0,0.0,0.0,0.0,0.0,0.0,0.0,0.0,0.0,0.0,0.0,0.0,0.0,0.0,0.0,0.0,0.0,0.0,0.0,0.0,0.0,0.0,0.0,0.0,0.0,0.0,0.0,0.0,0.0,0.0,0.0,0.0,0.0,0.0,0.0,0.0,0.0,0.0,0.0,0.0,0.0,0.0,0.0,0.0,0.0,0.0,1.4917,1.5128,1.5573,1.564,1.5183,1.5574,1.4895,0.0,0.0,0.0,0.0,0.0,0.0,0.0,0.0,0.0,0.0,0.0,0.0,0.0,0.0,0.0,0.0,0.0,0.0,0.0,0.0,0.0,0.0,0.0,0.0,0.0,0.0,0.0,0.0,0.0,0.0,0.0,0.0,0.0,0.0,0.0,0.0,0.0,0.0,0.0,0.0,0.0,0.0,0.0,0.0,0.0,0.0,0.0,0.0,0.0,0.0,0.0,0.0,0.0,0.0,0.0,0.0,0.0,0.0,0.0,0.0,0.0,0.0,0.0,0.0,0.0,0.0,0.0,0.0,0.0,0.0,0.0,0.0,0.0,0.0,0.0,0.0,0.0,0.0,0.0,0.0,0.0,0.0,0.0,0.0,0.0,0.0,0.0,0.0,0.0,0.0,0.0,0.0,0.0,0.0,0.0,0.0,0.0,0.0,0.0,0.0,0.0,0.0,0.0,0.0,0.0,0.0,0.0,0.0,0.0,1.5849,1.6042,1.6235,1.6376,1.5775,1.5042,0.0,0.0,0.0,0.0,0.0,0.0,0.0,0.0,0.0,0.0,0.0,0.0,0.0,0.0,0.0,0.0,0.0,0.0,0.0,0.0,0.0,0.0,0.0,0.0,0.0,0.0,0.0,0.0,0.0,0.0,0.0,0.0,0.0,0.0,0.0,0.0,0.0,0.0,0.0,0.0,0.0,0.0,0.0,0.0,0.0,0.0,0.0,0.0,0.0,0.0,0.0,0.0,0.0,0.0,0.0,0.0,0.0,0.0,0.0,0.0,0.0,0.0,0.0,0.0,0.0,0.0,0.0,0.0,0.0,0.0,0.0,0.0,0.0,0.0,0.0,0.0,0.0,0.0,0.0,0.0,0.0,0.0,0.0,0.0,0.0,0.0,0.0,0.0,0.0,0.0,0.0,0.0,0.0,0.0,0.0,0.0,0.0,0.0,0.0,0.0,0.0,0.0,0.0,0.0,0.0,0.0,0.0,0.0,0.0,1.707,1.6989,1.7034,1.7297,1.6612,1.5684,1.4567,0.0,0.0,0.0,0.0,0.0,0.0,0.0,0.0,0.0,0.0,0.0,0.0,0.0,0.0,0.0,0.0,0.0,0.0,0.0,0.0,0.0,0.0,0.0,0.0,0.0,0.0,0.0,0.0,0.0,0.0,0.0,0.0,0.0,0.0,0.0,0.0,0.0,0.0,0.0,0.0,0.0,0.0,0.0,0.0,0.0,0.0,0.0,0.0,0.0,0.0,0.0,0.0,0.0,0.0,0.0,0.0,0.0,0.0,0.0,0.0,0.0,0.0,0.0,0.0,0.0,0.0,0.0,0.0,0.0,0.0,0.0,0.0,0.0,0.0,0.0,0.0,0.0,0.0,0.0,0.0,0.0,0.0,0.0,0.0,0.0,0.0,0.0,0.0,0.0,0.0,0.0,0.0,0.0,0.0,0.0,0.0,0.0,0.0,0.0,0.0,0.0,0.0,0.0,0.0,0.0,0.0,0.0,0.0,1.8677,1.8396,1.8152,1.7943,1.7837,1.6787,0.0,0.0,0.0,0.0,0.0,0.0,0.0,0.0,0.0,0.0,0.0,0.0,0.0,0.0,0.0,0.0,0.0,0.0,0.0,0.0,0.0,0.0,0.0,0.0,0.0,0.0,0.0,0.0,0.0,0.0,0.0,0.0,0.0,0.0,0.0,0.0,0.0,0.0,0.0,0.0,0.0,0.0,0.0,0.0,0.0,0.0,0.0,0.0,0.0,0.0,0.0,0.0,0.0,0.0,0.0,0.0,0.0,0.0,0.0,0.0,0.0,0.0,0.0,0.0,0.0,0.0,0.0,0.0,0.0,0.0,0.0,0.0,0.0,0.0,0.0,0.0,0.0,0.0,0.0,0.0,0.0,0.0,0.0,0.0,0.0,0.0,0.0,0.0,0.0,0.0,0.0,0.0,0.0,0.0,0.0,0.0,0.0,0.0,0.0,0.0,0.0,0.0,0.0,0.0,0.0,0.0,0.0,0.0,0.0,1.977,2.0652,2.0538,1.9373,1.8528,1.7487,0.0,0.0,0.0,0.0,0.0,0.0,0.0,0.0,0.0,0.0,0.0,0.0,0.0,0.0,0.0,0.0,0.0,0.0,0.0,0.0,0.0,0.0,0.0,0.0,0.0,0.0,0.0,0.0,0.0,0.0,0.0,0.0,0.0,0.0,0.0,0.0,0.0,0.0,0.0,0.0,0.0,0.0,0.0,0.0,0.0,0.0,0.0,0.0,0.0,0.0,0.0,0.0,0.0,0.0,0.0,0.0,0.0,0.0,0.0,0.0,0.0,0.0,0.0,0.0,0.0,0.0,0.0,0.0,0.0,0.0,0.0,0.0,0.0,0.0,0.0,0.0,0.0,0.0,0.0,0.0,0.0,0.0,0.0,0.0,0.0,0.0,0.0,0.0,0.0,0.0,0.0,0.0,0.0,0.0,0.0,0.0,0.0,0.0,0.0,0.0,0.0,0.0,0.0,0.0,0.0,0.0,0.0,0.0,1.9901,2.0892,2.2094,2.2233,2.1189,1.9888,1.8604,0.0,0.0,0.0,0.0,0.0,0.0,0.0,0.0,0.0,0.0,0.0,0.0,0.0,0.0,0.0,0.0,0.0,0.0,0.0,0.0,0.0,0.0,0.0,0.0,0.0,0.0,0.0,0.0,0.0,0.0,0.0,0.0,0.0,0.0,0.0,0.0,0.0,0.0,0.0,0.0,0.0,0.0,0.0,0.0,0.0,0.0,0.0,0.0,0.0,0.0,0.0,0.0,0.0,0.0,0.0,0.0,0.0,0.0,0.0,0.0,0.0,0.0,0.0,0.0,0.0,0.0,0.0,0.0,0.0,0.0,0.0,0.0,0.0,0.0,0.0,0.0,0.0,0.0,0.0,0.0,0.0,0.0,0.0,0.0,0.0,0.0,0.0,0.0,0.0,0.0,0.0,0.0,0.0,0.0,0.0,0.0,0.0,0.0,0.0,0.0,0.0,0.0,0.0,0.0,0.0,0.0,0.0,0.0,2.0668,2.1999,2.3104,2.346,2.3019,2.1504,1.9858,0.0,0.0,0.0,0.0,0.0,0.0,0.0,0.0,0.0,0.0,0.0,0.0,0.0,0.0,0.0,0.0,0.0,0.0,0.0,0.0,0.0,0.0,0.0,0.0,0.0,0.0,0.0,0.0,0.0,0.0,0.0,0.0,0.0,0.0,0.0,0.0,0.0,0.0,0.0,0.0,0.0,0.0,0.0,0.0,0.0,0.0,0.0,0.0,0.0,0.0,0.0,0.0,0.0,0.0,0.0,0.0,0.0,0.0,0.0,0.0,0.0,0.0,0.0,0.0,0.0,0.0,0.0,0.0,0.0,0.0,0.0,0.0,0.0,0.0,0.0,0.0,0.0,0.0,0.0,0.0,0.0,0.0,0.0,0.0,0.0,0.0,0.0,0.0,0.0,0.0,0.0,0.0,0.0,0.0,0.0,0.0,0.0,0.0,0.0,0.0,0.0,0.0,0.0,0.0,0.0,0.0,0.0,0.0,2.2262,2.2849,2.4051,2.4468,2.4011,2.2204,2.0395,0.0,0.0,0.0,0.0,0.0,0.0,0.0,0.0,0.0,0.0,0.0,0.0,0.0,0.0,0.0,0.0,0.0,0.0,0.0,0.0,0.0,0.0,0.0,0.0,0.0,0.0,0.0,0.0,0.0,0.0,0.0,0.0,0.0,0.0,0.0,0.0,0.0,0.0,0.0,0.0,0.0,0.0,0.0,0.0,0.0,0.0,0.0,0.0,1.4928,0.0,0.0,0.0,0.0,0.0,0.0,0.0,0.0,0.0,0.0,0.0,0.0,0.0,0.0,0.0,0.0,0.0,0.0,0.0,0.0,0.0,0.0,0.0,0.0,0.0,0.0,0.0,0.0,0.0,0.0,0.0,0.0,0.0,0.0,0.0,0.0,0.0,0.0,0.0,0.0,0.0,0.0,0.0,0.0,0.0,0.0,0.0,0.0,0.0,0.0,0.0,0.0,0.0,0.0,0.0,0.0,0.0,0.0,0.0,2.3345,2.4036,2.5252,2.5574,2.4826,2.3402,2.1579,0.0,0.0,0.0,0.0,0.0,0.0,0.0,0.0,0.0,0.0,0.0,0.0,0.0,0.0,0.0,0.0,0.0,0.0,0.0,0.0,0.0,0.0,0.0,0.0,0.0,0.0,0.0,0.0,0.0,0.0,0.0,0.0,0.0,0.0,0.0,0.0,0.0,0.0,0.0,0.0,0.0,0.0,0.0,0.0,0.0,0.0,0.0,0.0,0.0,0.0,0.0,0.0,0.0,0.0,0.0,0.0,0.0,0.0,0.0,0.0,0.0,0.0,0.0,0.0,0.0,0.0,0.0,0.0,0.0,0.0,0.0,0.0,0.0,0.0,0.0,0.0,0.0,0.0,0.0,0.0,0.0,0.0,0.0,0.0,0.0,0.0,0.0,0.0,0.0,0.0,0.0,0.0,0.0,0.0,0.0,0.0,0.0,0.0,0.0,0.0,0.0,0.0,0.0,0.0,0.0,0.0,0.0,2.2334,2.3971,2.5086,2.611,2.6245,2.5361,2.4235,2.248,2.0074,0.0,0.0,0.0,0.0,0.0,0.0,0.0,0.0,0.0,0.0,0.0,0.0,0.0,0.0,0.0,0.0,0.0,0.0,0.0,0.0,0.0,0.0,0.0,0.0,0.0,0.0,0.0,0.0,0.0,0.0,0.0,0.0,0.0,0.0,0.0,0.0,0.0,0.0,1.75,1.7503,0.0,0.0,0.0,0.0,0.0,0.0,0.0,0.0,1.556,0.0,0.0,0.0,0.0,0.0,0.0,0.0,0.0,0.0,0.0,0.0,0.0,0.0,0.0,0.0,0.0,0.0,0.0,0.0,0.0,0.0,0.0,0.0,0.0,0.0,0.0,0.0,0.0,0.0,0.0,0.0,0.0,0.0,0.0,0.0,0.0,0.0,0.0,0.0,0.0,0.0,0.0,0.0,0.0,0.0,0.0,0.0,0.0,0.0,0.0,0.0,0.0,0.0,0.0,0.0,0.0,2.0524,2.2216,2.3727,2.4981,2.5326,2.5205,2.4647,2.294,2.1217,1.9577,0.0,0.0,0.0,0.0,0.0,0.0,0.0,0.0,0.0,0.0,0.0,0.0,0.0,0.0,0.0,0.0,0.0,0.0,0.0,0.0,0.0,0.0,0.0,0.0,0.0,0.0,0.0,0.0,0.0,0.0,0.0,0.0,0.0,0.0,0.0,0.0,0.0,0.0,0.0,1.8438,1.8124,0.0,0.0,0.0,0.0,0.0,0.0,0.0,0.0,1.59,0.0,0.0,0.0,0.0,0.0,0.0,0.0,0.0,0.0,0.0,0.0,0.0,0.0,0.0,0.0,0.0,0.0,0.0,0.0,0.0,0.0,0.0,0.0,0.0,0.0,0.0,0.0,0.0,0.0,0.0,0.0,0.0,0.0,0.0,0.0,0.0,0.0,0.0,0.0,0.0,0.0,0.0,0.0,0.0,0.0,0.0,0.0,0.0,0.0,0.0,0.0,0.0,0.0,0.0,0.0,2.141,2.3248,2.4674,2.5643,2.6214,2.6063,2.5122,2.3419,2.1506,0.0,0.0,0.0,0.0,0.0,0.0,0.0,0.0,0.0,0.0,0.0,0.0,0.0,0.0,0.0,0.0,0.0,0.0,0.0,0.0,0.0,0.0,0.0,0.0,0.0,0.0,0.0,0.0,0.0,0.0,0.0,0.0,0.0,0.0,0.0,0.0,0.0,0.0,0.0,0.0,1.9007,1.8774,1.8685,0.0,0.0,0.0,0.0,0.0,0.0,1.6881,1.6688,0.0,0.0,0.0,0.0,0.0,0.0,0.0,0.0,0.0,0.0,0.0,0.0,0.0,0.0,0.0,0.0,0.0,0.0,0.0,0.0,0.0,0.0,0.0,0.0,0.0,0.0,0.0,0.0,0.0,0.0,0.0,0.0,0.0,0.0,0.0,0.0,0.0,0.0,0.0,0.0,0.0,0.0,0.0,0.0,0.0,0.0,0.0,0.0,0.0,0.0,0.0,0.0,0.0,0.0,0.0,2.1909,2.3973,2.5364,2.603,2.6698,2.6547,2.5469,2.364,2.1555,0.0,0.0,0.0,0.0,0.0,0.0,0.0,0.0,0.0,0.0,0.0,0.0,0.0,0.0,0.0,0.0,0.0,0.0,0.0,0.0,0.0,0.0,0.0,0.0,0.0,0.0,0.0,0.0,0.0,0.0,0.0,0.0,0.0,0.0,0.0,0.0,0.0,0.0,0.0,0.0,0.0,1.9305,1.9272,1.9014,0.0,0.0,0.0,0.0,1.7798,1.7807,0.0,0.0,0.0,0.0,0.0,0.0,0.0,0.0,0.0,0.0,0.0,0.0,0.0,0.0,0.0,0.0,0.0,0.0,0.0,0.0,0.0,0.0,0.0,0.0,0.0,0.0,0.0,0.0,0.0,0.0,0.0,0.0,0.0,0.0,0.0,0.0,0.0,0.0,0.0,0.0,0.0,0.0,0.0,0.0,0.0,0.0,0.0,0.0,0.0,0.0,0.0,0.0,0.0,0.0,0.0,0.0,2.0974,2.3063,2.4492,2.509,2.4973,2.4787,2.4601,2.1925,1.9918,0.0,0.0,0.0,0.0,0.0,0.0,0.0,0.0,0.0,0.0,0.0,0.0,0.0,0.0,0.0,0.0,0.0,0.0,0.0,0.0,0.0,0.0,0.0,0.0,0.0,0.0,0.0,0.0,0.0,0.0,0.0,0.0,0.0,0.0,0.0,0.0,0.0,0.0,0.0,0.0,0.0,1.9687,1.9567,1.9367,1.9053,0.0,0.0,1.8632,1.8577,1.8861,0.0,0.0,0.0,0.0,0.0,0.0,0.0,0.0,0.0,0.0,0.0,0.0,0.0,0.0,0.0,0.0,0.0,0.0,0.0,0.0,0.0,0.0,0.0,0.0,0.0,0.0,0.0,0.0,0.0,0.0,0.0,0.0,0.0,0.0,0.0,0.0,0.0,0.0,0.0,0.0,0.0,0.0,0.0,0.0,0.0,0.0,0.0,0.0,0.0,0.0,0.0,0.0,0.0,0.0,0.0,2.0167,2.1616,2.3971,2.5363,2.5743,2.5808,2.5638,2.5172,2.2577,2.0499,0.0,0.0,0.0,0.0,0.0,0.0,0.0,0.0,0.0,0.0,0.0,0.0,0.0,0.0,0.0,0.0,0.0,0.0,0.0,0.0,0.0,0.0,0.0,0.0,0.0,0.0,0.0,0.0,0.0,0.0,0.0,0.0,0.0,0.0,0.0,0.0,0.0,0.0,0.0,0.0,0.0,0.0,1.9973,2.0158,0.0,0.0,0.0,1.9721,1.9712,0.0,0.0,0.0,0.0,0.0,0.0,0.0,0.0,0.0,0.0,0.0,0.0,0.0,0.0,0.0,0.0,0.0,0.0,0.0,0.0,0.0,0.0,0.0,0.0,0.0,0.0,0.0,0.0,0.0,0.0,0.0,0.0,0.0,0.0,0.0,0.0,0.0,0.0,0.0,0.0,0.0,0.0,0.0,0.0,0.0,0.0,0.0,0.0,0.0,0.0,0.0,0.0,0.0,0.0,0.0,0.0,0.0,2.2265,2.4823,2.6227,2.6336,2.651,2.6272,2.5523,2.3149,0.0,0.0,0.0,0.0,0.0,0.0,0.0,0.0,0.0,0.0,0.0,0.0,0.0,0.0,0.0,0.0,0.0,0.0,0.0,0.0,0.0,0.0,0.0,0.0,0.0,0.0,0.0,1.4362,0.0,0.0,0.0,0.0,0.0,0.0,0.0,0.0,0.0,0.0,0.0,0.0,0.0,0.0,2.0672,2.0522,2.085,2.0976,0.0,0.0,2.061,2.0518,2.0161,1.9778,0.0,0.0,0.0,0.0,0.0,0.0,0.0,0.0,0.0,0.0,0.0,0.0,0.0,0.0,0.0,0.0,0.0,0.0,0.0,0.0,0.0,0.0,0.0,0.0,0.0,0.0,0.0,0.0,0.0,0.0,0.0,0.0,0.0,0.0,0.0,0.0,0.0,0.0,0.0,0.0,0.0,0.0,0.0,0.0,0.0,0.0,0.0,0.0,0.0,0.0,0.0,0.0,0.0,0.0,2.1153,2.242,2.4967,2.6352,2.6469,2.6035,2.558,2.5116,2.2733,2.0806,0.0,0.0,0.0,0.0,0.0,0.0,0.0,0.0,0.0,0.0,0.0,0.0,0.0,0.0,0.0,0.0,0.0,0.0,0.0,0.0,0.0,0.0,0.0,0.0,0.0,0.0,0.0,0.0,0.0,0.0,0.0,0.0,0.0,0.0,0.0,0.0,0.0,0.0,0.0,0.0,0.0,2.0705,2.1243,2.1188,2.1099,0.0,2.1062,2.0943,2.0576,2.1086,2.104,1.9558,0.0,0.0,0.0,0.0,0.0,0.0,0.0,0.0,0.0,0.0,0.0,0.0,0.0,0.0,0.0,0.0,0.0,0.0,0.0,0.0,0.0,0.0,0.0,0.0,0.0,0.0,0.0,0.0,0.0,0.0,0.0,0.0,0.0,0.0,0.0,0.0,0.0,0.0,0.0,0.0,0.0,0.0,0.0,0.0,0.0,0.0,0.0,0.0,0.0,0.0,0.0,0.0,0.0,2.1656,2.2786,2.5416,2.6812,2.6862,2.6667,2.6333,2.5835,2.4095,2.219,0.0,0.0,0.0,0.0,0.0,0.0,0.0,0.0,0.0,0.0,0.0,0.0,0.0,0.0,0.0,0.0,0.0,0.0,0.0,0.0,0.0,0.0,0.0,0.0,0.0,0.0,0.0,0.0,1.6685,1.6882,1.6579,0.0,0.0,0.0,0.0,0.0,0.0,0.0,0.0,0.0,0.0,2.15,2.1597,2.1726,0.0,0.0,2.1627,2.1425,2.1248,2.1288,2.1114,2.0491,2.0124,0.0,0.0,0.0,0.0,0.0,0.0,0.0,0.0,0.0,0.0,0.0,0.0,0.0,0.0,0.0,0.0,0.0,0.0,0.0,0.0,0.0,0.0,0.0,0.0,0.0,0.0,0.0,0.0,0.0,0.0,0.0,0.0,0.0,0.0,0.0,0.0,0.0,0.0,0.0,0.0,0.0,0.0,0.0,0.0,0.0,0.0,0.0,0.0,0.0,0.0,0.0,0.0,2.2089,2.3436,2.5801,2.7194,2.751,2.7348,2.6971,2.6344,2.4948,2.3161,0.0,0.0,0.0,0.0,0.0,0.0,0.0,0.0,0.0,0.0,0.0,0.0,0.0,0.0,0.0,0.0,0.0,0.0,0.0,0.0,0.0,0.0,0.0,0.0,0.0,0.0,0.0,0.0,1.6578,1.6569,1.6638,0.0,0.0,0.0,0.0,0.0,0.0,0.0,0.0,0.0,0.0,2.2141,2.208,2.2291,2.2497,2.2465,2.2236,2.2062,2.2053,2.1727,2.1407,2.1297,0.0,0.0,0.0,0.0,0.0,0.0,0.0,0.0,0.0,0.0,0.0,0.0,0.0,0.0,0.0,0.0,0.0,0.0,0.0,0.0,0.0,0.0,0.0,0.0,0.0,0.0,0.0,1.8379,0.0,0.0,1.7434,0.0,0.0,0.0,0.0,0.0,0.0,0.0,0.0,0.0,0.0,0.0,0.0,0.0,0.0,0.0,0.0,0.0,0.0,0.0,0.0,0.0,0.0,2.2438,2.4441,2.6087,2.7419,2.8386,2.7954,2.7289,2.6492,2.5014,2.3369,2.1592,0.0,0.0,0.0,0.0,0.0,0.0,0.0,0.0,0.0,0.0,0.0,0.0,0.0,0.0,0.0,0.0,0.0,0.0,0.0,0.0,0.0,0.0,0.0,0.0,0.0,0.0,1.6832,1.633,1.6207,0.0,0.0,0.0,0.0,0.0,0.0,0.0,0.0,0.0,0.0,2.1894,2.2442,2.2812,2.2862,2.2895,2.2885,2.2876,2.2867,2.2835,2.2519,2.2149,0.0,0.0,0.0,0.0,0.0,0.0,0.0,0.0,0.0,0.0,0.0,0.0,0.0,0.0,0.0,0.0,0.0,0.0,0.0,0.0,0.0,0.0,0.0,0.0,0.0,0.0,0.0,2.1237,2.063,0.0,0.0,0.0,0.0,0.0,0.0,0.0,0.0,0.0,0.0,0.0,2.3429,2.3605,0.0,0.0,0.0,0.0,0.0,0.0,0.0,0.0,0.0,0.0,0.0,0.0,2.3151,2.4537,2.6533,2.7727,2.8091,2.7905,2.7545,2.6917,2.6045,2.4153,2.1107,0.0,0.0,0.0,0.0,0.0,0.0,0.0,0.0,0.0,0.0,0.0,0.0,0.0,0.0,0.0,0.0,0.0,0.0,0.0,0.0,0.0,0.0,0.0,0.0,0.0,1.7143,0.0,0.0,0.0,0.0,0.0,0.0,0.0,0.0,0.0,0.0,0.0,2.1093,2.189,2.2644,2.3142,2.3279,2.3297,2.3288,0.0,0.0,0.0,0.0,0.0,0.0,0.0,0.0,0.0,0.0,0.0,0.0,0.0,0.0,2.285,2.1861,2.1797,2.1769,2.137,0.0,0.0,0.0,0.0,0.0,0.0,0.0,0.0,0.0,0.0,0.0,0.0,0.0,0.0,2.2911,0.0,2.1813,0.0,0.0,0.0,0.0,0.0,0.0,0.0,0.0,2.4505,2.5187,2.5225,2.5427,2.5364,0.0,2.475,2.3575,0.0,0.0,0.0,0.0,0.0,0.0,0.0,0.0,2.3857,2.506,2.6878,2.7913,2.8091,2.8102,2.7805,2.713,2.6001,2.4088,2.1336,2.0115,1.8779,0.0,0.0,0.0,0.0,0.0,0.0,0.0,0.0,0.0,0.0,0.0,0.0,0.0,0.0,0.0,0.0,0.0,0.0,0.0,0.0,0.0,0.0,0.0,1.6986,0.0,0.0,0.0,0.0,0.0,0.0,0.0,0.0,0.0,2.0537,2.1352,2.2185,2.2868,2.3523,2.3944,2.3944,0.0,0.0,0.0,0.0,0.0,0.0,0.0,2.3697,2.4091,2.4155,2.4246,2.4521,2.4576,2.4704,2.5159,0.0,0.0,2.3623,2.3468,2.3431,2.3033,2.3275,2.3462,2.3235,2.3486,2.377,0.0,0.0,0.0,0.0,0.0,0.0,0.0,0.0,2.4812,2.4146,0.0,2.3495,0.0,0.0,0.0,0.0,0.0,2.4356,0.0,0.0,2.6825,2.7258,2.6536,2.6992,2.698,2.6487,2.6445,2.6123,2.5503,2.3033,0.0,0.0,0.0,0.0,0.0,0.0,2.4613,2.6093,2.7193,2.7986,2.8466,2.849,2.8075,2.7186,2.501,2.3407,2.2397,2.1468,2.0314,1.8866,1.8327,0.0,0.0,0.0,0.0,0.0,0.0,0.0,0.0,0.0,0.0,0.0,0.0,0.0,0.0,0.0,0.0,0.0,0.0,0.0,0.0,1.6768,0.0,0.0,0.0,0.0,0.0,0.0,0.0,0.0,0.0,0.0,2.1911,2.2845,2.3706,2.4183,0.0,0.0,0.0,0.0,2.4966,2.5343,2.5416,2.5407,2.5416,2.5113,2.4994,2.5388,0.0,0.0,2.6472,2.6609,2.6729,2.7142,2.7151,2.6609,2.4716,2.4691,2.4801,2.4459,2.4682,2.4893,2.492,2.5223,2.5471,2.7859,0.0,0.0,0.0,0.0,2.6513,2.6705,2.6702,2.733,2.6975,2.5943,2.5546,0.0,0.0,0.0,0.0,0.0,0.0,2.6082,2.639,2.7291,2.7765,2.7903,2.8059,2.8047,2.7891,2.7529,2.7251,2.704,2.5955,2.454,2.2891,0.0,0.0,0.0,0.0,2.548,2.6633,2.7721,2.8334,2.851,2.851,2.806,2.7135,2.6204,2.5062,2.3787,2.3186,2.2237,2.0828,1.996,0.0,0.0,0.0,0.0,0.0,0.0,0.0,0.0,0.0,0.0,0.0,0.0,0.0,0.0,0.0,0.0,0.0,0.0,0.0,1.7334,1.7781,1.8127,0.0,0.0,0.0,0.0,0.0,0.0,0.0,0.0,0.0,2.47,2.4556,2.4599,0.0,0.0,2.5232,2.5223,2.5232,2.5361,2.5756,2.5846,0.0,2.6188,2.6142,2.6206,2.6628,2.6921,2.7187,2.7417,2.7454,2.749,2.7619,2.7628,2.7417,2.694,2.6848,2.6866,2.6793,2.6857,2.693,2.6949,2.7041,2.7096,3.0025,2.8692,2.7932,2.7682,2.7853,2.826,2.8467,2.8497,2.9072,2.8826,2.8021,2.7779,2.7028,2.5924,2.5521,0.0,0.0,0.0,2.7657,2.8198,2.851,2.8823,2.9124,2.9136,2.9136,2.91,2.8595,2.8334,2.8342,2.7577,2.661,2.5366,0.0,0.0,2.4716,2.5528,2.6352,2.7217,2.8058,2.851,2.849,2.8159,2.7725,2.7149,2.6382,2.5562,2.4695,2.4232,2.3536,2.2459,2.1509,2.0314,0.0,0.0,0.0,0.0,0.0,0.0,0.0,0.0,0.0,0.0,0.0,1.7456,1.802,0.0,0.0,0.0,1.712,1.7349,1.7988,1.8683,0.0,0.0,0.0,0.0,0.0,0.0,0.0,2.4008,2.4941,2.5756,2.6371,2.6187,2.6022,2.6104,2.6114,2.6114,2.6114,0.0,2.6251,2.6673,2.6701,2.6793,2.7041,2.7086,2.7224,2.7628,2.8014,2.8261,2.8271,2.828,2.828,2.828,2.828,2.828,2.828,2.828,2.816,2.7876,2.7931,2.8041,2.8041,2.816,2.828,3.2285,3.1713,3.0233,2.9741,2.9927,2.9813,2.9915,3.0155,3.0167,2.9857,2.94,2.989,2.928,2.7902,2.789,0.0,2.8667,2.9136,2.9593,3.0086,3.0086,3.0086,3.0086,3.0086,3.0086,3.0083,2.9593,2.9364,2.9316,2.8378,2.789,2.7866,2.6892,2.6346,2.6262,2.6724,2.721,2.7769,2.825,2.851,2.849,2.7725,2.7267,2.7182,2.6,2.5331,2.5248,2.4812,2.4312,2.3779,2.2873,2.1688,2.0303,0.0,0.0,0.0,0.0,0.0,0.0,0.0,0.0,0.0,0.0,0.0,0.0,0.0,0.0,0.0,1.8055,0.0,1.889,1.9666,0.0,0.0,0.0,2.263,2.4183,2.4404,2.4847,2.5975,0.0,0.0,2.7252,2.7646,2.7757,2.7399,2.7288,2.7252,2.7252,2.7103,2.7212,2.7501,2.7526,2.7487,2.7294,2.7361,2.7449,2.7771,2.8442,2.8456,2.8474,2.8483,2.862,2.8474,2.8639,2.8591,2.8668,2.8435,2.848,2.7791,2.8129,2.8443,2.8452,2.872,2.8931,3.302,3.2886,3.2516,3.1922,3.1247,3.1216,3.1016,3.072,3.0708,3.0407,2.9905,3.0046,2.9881,2.9532,2.952,2.9593,2.9713,2.9845,2.9986,3.0086,3.0086,3.0086,3.0086,3.0086,3.0086,3.0086,2.9974,2.9914,2.9893,2.9653,2.952,2.9508,2.9268,2.8534,2.7361,2.7457,2.7769,2.8298,2.845,2.851,2.851,2.8311,2.7878,2.7214,2.6907,2.6421,2.5762,2.5262,2.4812,2.4312,2.3362,2.2346,2.1297,2.0112,0.0,0.0,0.0,0.0,0.0,0.0,0.0,0.0,0.0,1.872,1.946,0.0,1.876,0.0,1.9157,1.9876,2.0885,2.1714,0.0,0.0,2.4158,2.4792,2.548,2.6104,2.66,2.6875,2.7545,2.8003,2.8104,2.8443,2.8654,2.8592,2.8041,2.7646,2.7656,2.6747,2.6267,2.6577,2.5911,2.5329,2.5657,2.5657,2.5756,2.5803,2.5915,2.5942,2.5973,2.5942,2.5942,2.5942,2.5942,2.5942,2.6003,2.5942,2.6357,2.7038,2.8074,2.8838,2.8867,2.892,2.8955,3.397,3.3958,3.3982,3.3633,3.3044,3.2609,3.2236,3.1984,3.1972,3.1803,3.1492,3.1264,3.1023,3.0817,3.0804,3.0804,3.0817,3.0817,3.0817,3.0817,3.0804,3.0817,3.0804,3.0817,3.0804,3.0804,3.0564,3.0456,3.0456,3.0227,3.0086,3.0086,3.0086,2.9653,2.8791,2.8526,2.8462,2.851,2.851,2.851,2.849,2.8107,2.7745,2.7328,2.6869,2.6335,2.5734,2.5378,2.4976,2.4517,2.3755,2.2942,2.2139,2.1084,2.0097,0.0,0.0,0.0,0.0,0.0,0.0,0.0,0.0,0.0,0.0,0.0,2.0022,2.0206,2.0827,2.1746,2.2978,2.3633,2.4418,2.5425,2.593,2.6426,2.7013,2.7444,2.7821,2.7995,2.8408,2.8663,2.8663,2.8847,2.8767,2.8212,2.7748,2.7434,2.7346,2.6299,2.5535,2.5687,2.5147,2.4718,2.497,2.4994,2.4994,2.4994,2.4994,2.4994,2.4994,2.4994,2.4994,2.4994,2.4994,2.4994,2.4994,2.4994,2.527,2.5912,2.668,2.7383,2.7972,2.7624,2.7233,3.4907,3.4895,3.4835,3.4799,3.4727,3.3873,3.3476,3.338,3.332,3.3284,3.326,3.2803,3.2357,3.1922,3.191,3.1899,3.1899,3.1922,3.1922,3.191,3.1827,3.1825,3.1791,3.1731,3.1705,3.1693,3.1226,3.1019,3.0985,3.054,3.0311,3.0311,3.0311,3.0254,3.0191,2.9725,2.9244,2.8727,2.8643,2.8607,2.8587,2.778,2.7368,2.7409,2.653,2.5865,2.5569,2.5275,2.4922,2.4497,2.3902,2.3338,2.2837,2.1879,2.0988,0.0,1.9672,0.0,0.0,0.0,0.0,0.0,0.0,0.0,0.0,2.152,2.1695,2.2149,2.2849,2.3798,2.5003,2.5462,2.6141,2.7178,2.7362,2.7665,2.8361,2.8471,2.854,2.8721,2.8895,2.8955,2.8719,2.8767,2.8241,2.7263,2.6586,2.6301,2.6382,2.5436,2.4732,2.474,2.4587,2.4132,2.4247,2.434,2.4348,2.4409,2.4286,2.4502,2.4348,2.4379,2.444,2.4409,2.4317,2.4379,2.4502,2.444,2.4502,2.4687,2.4656,2.5017,2.6255,2.5973,2.5056,3.5448,3.54,3.4979,3.4799,3.4787,3.4595,3.427,3.385,3.3464,3.3284,3.3307,3.3211,3.308,3.3007,3.3007,3.2971,3.2984,3.3007,3.3007,3.2959,3.2561,3.2346,3.231,3.1899,3.1705,3.1705,3.1597,3.156,3.1539,3.1442,3.1416,3.1404,3.1382,3.1187,3.0756,0.0,0.0,0.0,2.9364,2.9148,2.9115,2.8401,2.7753,2.7267,2.6912,0.0,2.5826,2.5062,2.4605,2.4465,2.3471,0.0,0.0,0.0,0.0,0.0,0.0,0.0,0.0,0.0,0.0,0.0,2.2546,2.2636,2.2507,2.3147,2.3901,2.4611,2.5141,2.5783,2.6664,2.7105,2.7564,2.8086,2.8159,2.8352,2.8849,2.8865,2.8536,2.7495,2.831,2.8549,2.7543,2.7383,2.7263,2.6831,2.517,2.3938,2.3876,2.3659,2.3481,2.3411,2.2678,2.1947,2.1853,2.194,2.2097,2.1853,2.1853,2.1908,2.1971,2.194,2.1877,2.194,2.1853,2.1908,2.1908,2.1853,2.231,2.3232,2.2623,2.256,2.4841,2.5178,2.4994,3.6014,0.0,3.5688,3.5605,0.0,3.558,3.528,3.4763,3.4246,3.3874,3.3633,3.3633,3.3525,3.3284,3.3284,3.3284,3.3284,3.3284,3.3284,3.3272,3.302,3.2887,3.2875,3.2621,3.2489,3.2477,3.2489,3.2489,3.2501,3.2489,3.2489,3.2489,3.2214,3.196,3.1685,3.143,3.0901,3.0098,2.9821,2.9556,2.9284,2.8527,2.7868,2.7339,2.6736,0.0,0.0,0.0,0.0,0.0,0.0,0.0,0.0,0.0,0.0,2.2228,2.161,2.148,2.1981,2.2045,2.2364,2.307,2.3879,2.4258,2.4036,2.4868,2.5636,2.6233,2.6655,2.7132,2.7738,2.7957,2.8261,2.8656,2.8691,2.8557,2.8116,2.7993,2.7474,2.6346,2.6611,2.6741,2.6103,2.6003,2.5729,2.514,2.4,2.2841,2.2247,2.2121,2.2097,2.209,2.1632,2.1102,2.1102,2.1102,2.1102,2.1102,2.1102,2.1102,2.1102,2.1102,2.1102,2.1102,2.1102,2.1102,2.1102,2.1102,2.1292,2.1877,2.1569,2.145,2.2841,2.3052,2.3084,3.6543,3.6531,3.6435,3.6411,3.6411,3.6411,3.6146,3.5688,0.0,0.0,0.0,3.4126,3.3922,3.3561,3.3561,3.3573,3.3561,3.3573,3.3561,3.3561,3.3452,3.3416,3.3416,3.3355,3.3284,3.3284,3.3284,3.3284,3.3284,3.3284,3.3284,3.3248,3.2851,3.2647,3.2611,3.2212,3.1551,3.0708,3.0374,3.0046,2.9605,2.8768,2.8124,2.7707,2.675,2.6038,2.5714,2.5472,2.4804,2.3728,2.4174,2.3881,2.2616,2.2876,2.2888,2.2469,2.23,2.2441,2.2931,2.2973,2.3246,2.3889,2.4968,2.5618,2.5618,2.6288,2.6885,2.738,2.7711,2.8069,2.8452,2.8498,2.8627,2.8948,2.8984,2.8549,2.7534,2.7103,2.6559,2.527,2.5086,2.4934,2.4781,2.4727,2.4363,2.3438,2.2998,2.2513,2.1493,2.1244,2.1229,2.1197,2.1134,2.1102,2.1102,2.1102,2.1102,2.1102,2.1102,2.1102,2.1102,2.1102,2.1102,2.1102,2.1102,2.1102,2.1102,2.1102,2.1102,2.1102,2.1102,2.1102,2.1109,2.1156,2.1303,3.7072,3.7048,3.6591,3.6411,3.6411,3.6411,3.6362,3.6218,3.5232,3.4763,3.4691,3.4691,3.4655,3.4595,3.4583,3.4595,3.4583,3.4583,3.4595,3.4559,3.4126,3.391,3.3862,3.3501,3.3284,3.3284,3.3296,3.3284,3.3284,3.3296,3.3284,3.3319,3.3212,3.3176,3.3199,3.3104,3.2984,3.2815,3.149,3.0756,3.0672,2.9934,2.9237,2.8546,2.7827,2.7124,2.6473,2.6037,2.5388,2.4577,2.445,2.4274,2.3999,2.3363,2.3239,2.3635,2.3149,2.3146,2.3929,2.3993,2.4475,2.5535,2.6141,2.6444,2.6435,2.6857,2.7435,2.8132,2.8269,2.8471,2.8838,2.8883,2.8931,2.8975,2.8984,2.8886,2.8498,2.7521,2.6302,2.4987,2.4994,2.458,2.3877,2.37,2.3637,2.3296,2.2578,2.1773,2.1585,2.1269,2.1122,2.1102,2.1102,2.1102,2.1102,2.1102,2.1102,2.1102,2.1102,2.1102,2.1102,2.1102,2.1102,2.1102,2.1122,2.1129,2.1122,2.1102,2.1124,2.1176,2.1182,2.1162,2.1176,2.1343,2.1442,3.7651,3.7615,3.736,3.7252,3.724,3.6952,3.6831,3.6759,3.6026,3.5521,3.5244,3.5256,3.5075,3.4811,3.4799,3.4799,3.4799,3.4799,3.4799,3.4787,3.4534,3.4438,3.4426,3.421,3.4102,3.4126,3.4126,3.4102,3.4114,3.409,3.4102,3.4102,3.3814,3.3561,3.3308,3.3284,3.3284,3.3272,3.2573,3.1924,3.1346,3.0526,2.9764,2.9103,2.8296,2.7612,2.7098,2.6883,2.61,2.469,2.4899,2.4605,2.3618,2.3536,2.361,2.3725,2.3675,2.3859,2.448,2.492,2.5398,2.5984,2.6572,2.7031,2.7243,2.76,2.8115,2.8645,2.8718,2.8821,2.8996,2.8984,2.8984,2.8984,2.837,2.7633,2.6857,2.5816,2.4579,2.3425,2.3278,2.3182,2.2751,2.27,2.27,2.2642,2.2103,2.1816,2.1823,2.1703,2.1516,2.1376,2.1223,2.1116,2.1109,2.1102,2.1102,2.1102,2.1102,2.1102,2.1102,2.1109,2.1109,2.1122,2.1229,2.1336,2.1381,2.149,2.1563,2.159,2.159,2.1583,2.1603,2.1736,2.1696,3.8,3.8,3.8,3.8,3.7964,3.7579,3.7399,3.735,3.694,3.6459,3.5978,3.5712,3.5364,3.4991,3.4871,3.4799,3.4799,3.4799,3.4799,3.4811,3.4931,3.4979,3.4991,3.5099,3.5159,3.5159,3.5159,3.5099,3.4991,3.4991,3.4919,3.4775,3.439,3.3994,3.3645,3.3645,3.3645,3.3633,3.3633,3.3139,3.2082,3.1335,3.0593,2.9727,2.8854,2.8046,2.741,2.7268,2.6421,2.4784,2.5272,2.4971,2.3487,2.3955,2.4214,2.3999,2.4278,2.4636,2.5058,2.5728,2.6169,2.627,2.693,2.7509,2.7903,2.8316,2.8645,2.8929,2.8966,2.8975,2.8984,2.8984,2.8895,2.8558,2.7663,2.6589,2.521,2.4072,2.3069,2.2112,2.1931,2.1982,2.1977,2.2044,2.215,2.2177,2.2031,2.2004,2.2091,2.2044,2.193,2.1796,2.1496,2.1309,2.1236,2.1223,2.1189,2.1136,2.1102,2.1149,2.1189,2.1223,2.1269,2.1336,2.1535,2.1662,2.1703,2.1836,2.1924,2.1924,2.1911,2.1971,2.2044,2.2064,2.1984,3.8,3.8,3.7974,3.8,3.7882,3.7861,3.7798,3.7798,3.7841,3.7529,3.6823,3.6025,3.5567,3.546,3.5015,3.4786,3.4798,3.4775,3.4774,3.4846,3.5304,3.552,3.5593,3.5989,3.6229,3.623,3.6206,3.5942,3.5544,3.552,3.5292,3.4847,3.4751,3.4703,3.4643,3.4631,3.4631,3.4655,3.4667,3.4162,3.3247,3.307,3.2301,3.0801,2.9927,2.8694,2.704,2.6562,2.5868,2.4794,2.5443,2.5509,2.4764,2.5008,2.5245,2.5186,2.5251,2.5462,2.5847,2.6306,2.6701,2.7077,2.7472,2.7903,2.8287,2.8691,2.8968,2.8984,2.8984,2.8984,2.8984,2.8984,2.8519,2.7474,2.7052,2.6459,2.5063,2.3899,2.3089,2.2995,2.2137,2.1723,2.199,2.2184,2.2318,2.2372,2.2218,2.2164,2.2325,2.2211,2.2151,2.2225,2.2091,2.1843,2.1622,2.1542,2.143,2.1209,2.1129,2.1263,2.1468,2.1555,2.1609,2.171,2.1891,2.197,2.1944,2.2017,2.205,2.2144,2.2144,2.2124,2.2298,2.2378,2.2265,3.8,3.7921,3.7215,3.6491,3.5909,3.5881,3.5854,3.5881,3.5854,3.5729,3.5479,3.4733,3.5008,3.5998,3.5105,3.4682,3.467,3.4682,3.4682,3.477,3.5625,3.6086,3.611,3.629,3.6411,3.6411,3.6411,3.629,3.6122,3.6061,3.5966,3.5737,3.5436,3.5268,3.5268,3.4967,3.4799,3.4787,3.4164,3.3658,3.3177,3.2223,3.1399,3.0634,2.9085,2.8037,2.7471,2.7249,2.6849,2.6209,2.6492,2.6313,2.5552,2.5655,2.5645,2.5443,2.5644,2.5947,2.6343,2.6738,2.7031,2.7197,2.7812,2.8252,2.8388,2.8764,2.8984,2.8984,2.8984,2.8984,2.8984,2.8984,2.846,2.7194,2.6308,2.5331,2.4,2.2882,2.2211,2.22,2.2005,2.187,2.1991,2.2238,2.2478,2.2619,2.2592,2.2545,2.2652,2.2612,2.2599,2.2666,2.2606,2.2345,2.1957,2.1843,2.1744,2.1663,2.163,2.1736,2.179,2.1843,2.1897,2.1984,2.2138,2.2231,2.2238,2.2412,2.2539,2.2512,2.2532,2.2579,2.2659,2.2679,2.2646,3.7004,3.6881,3.6057,3.5207,3.4419,3.438,3.438,3.438,3.438,3.438,3.4359,3.396,3.4556,3.5564,3.4636,3.4133,3.4133,3.4133,3.4133,3.4234,3.517,3.5782,3.6102,3.6307,3.6522,3.678,3.6855,3.6771,3.6627,3.6447,3.6411,3.6313,3.5674,3.5332,3.526,3.4654,3.429,3.419,3.3476,3.3121,3.2881,3.1414,3.0488,3.0303,2.8703,2.7765,2.7743,2.7682,2.7394,2.6912,2.6986,2.6719,2.6076,2.6113,2.6031,2.5811,2.6095,2.6444,2.6756,2.7142,2.7408,2.7564,2.8105,2.8452,2.8581,2.8819,2.8966,2.8984,2.8984,2.8984,2.8984,2.8984,2.8271,2.671,2.5515,2.4402,2.2748,2.1844,2.1474,2.1489,2.1695,2.1943,2.2004,2.2238,2.2458,2.2659,2.282,2.29,2.29,2.288,2.288,2.29,2.2887,2.2679,2.2211,2.2104,2.2091,2.1991,2.1977,2.1964,2.2071,2.2104,2.2198,2.2352,2.2458,2.2525,2.2539,2.2766,2.2873,2.2887,2.288,2.2867,2.2853,2.2887,2.2887,3.4558,3.4586,3.4503,3.4391,3.4353,3.4269,3.4325,3.414,3.4269,3.4336,3.4224,3.4219,3.4365,3.4355,3.3372,3.2985,3.3011,3.3044,3.3066,3.3126,3.361,3.4392,3.5439,3.5964,3.6734,3.7414,3.7428,3.7328,3.6988,3.6585,3.6411,3.6295,3.5163,3.4624,3.4471,3.357,3.2987,3.3052,3.2888,3.2859,3.2655,3.1136,3.0146,3.0003,2.9386,2.8482,2.7724,2.7354,2.6912,2.6104,2.6517,2.649,2.6095,2.638,2.6536,2.6582,2.6912,2.7142,2.7215,2.7545,2.7922,2.8242,2.8361,2.8563,2.8865,2.8948,2.8975,2.8984,2.8984,2.8984,2.8984,2.8984,2.7903,2.5607,2.5117,2.3891,2.1538,2.1287,2.1129,2.1182,2.1403,2.1716,2.1944,2.2238,2.2365,2.2525,2.2699,2.29,2.29,2.29,2.29,2.29,2.288,2.2786,2.2465,2.2398,2.2285,2.2205,2.2205,2.2124,2.2278,2.2432,2.2565,2.2672,2.2726,2.2813,2.286,2.288,2.2887,2.29,2.29,2.2893,2.29,2.29,2.29,3.3955,3.3318,3.3318,3.2874,3.2199,3.217,3.218,3.2141,3.216,3.218,3.217,3.217,3.2152,3.2121,3.1777,3.2048,3.2738,3.2766,3.2766,3.2888,3.3694,3.434,3.473,3.4952,3.5223,3.5635,3.5679,3.5599,3.5414,3.521,3.5131,3.4969,3.4081,3.3568,3.3433,3.2836,3.2457,3.241,3.2057,3.1822,3.1703,3.0276,2.9399,2.9176,2.8269,2.7753,2.7595,2.7336,2.7178,2.7142,2.7298,2.7187,2.6839,2.6903,2.6967,2.7031,2.7362,2.7582,2.7628,2.793,2.8223,2.8417,2.8665,2.881,2.8977,2.8984,2.8984,2.8984,2.8984,2.8984,2.8984,2.8984,2.7933,2.5615,2.4963,2.3977,2.1846,2.1102,2.1102,2.1122,2.1223,2.1443,2.1864,2.2084,2.2291,2.2632,2.2827,2.2887,2.29,2.29,2.29,2.29,2.2893,2.286,2.278,2.2699,2.2659,2.2612,2.2619,2.2619,2.2672,2.2665,2.28,2.2759,2.2887,2.2893,2.2887,2.2887,2.29,2.29,2.29,2.29,2.29,2.29,2.29,3.2807,3.218,3.2123,3.1653,3.0947,3.0928,3.0928,3.0928,3.0928,3.0928,3.0928,3.0928,3.0928,3.0928,3.0928,3.1286,3.2065,3.2123,3.2123,3.218,3.2921,3.3477,3.3814,3.3871,3.4028,3.4331,3.4272,3.4207,3.4185,3.407,3.4005,3.3945,3.302,3.2486,3.2378,3.1763,3.1337,3.1261,3.0877,3.0685,3.0557,2.9756,2.9122,2.8765,2.8002,2.7557,2.767,2.7474,2.7435,2.7582,2.76,2.7481,2.7243,2.7197,2.7261,2.7417,2.7784,2.7995,2.8041,2.8352,2.8581,2.8619,2.8819,2.8984,2.8984,2.8984,2.8984,2.8984,2.8984,2.8984,2.8984,2.8984,2.7903,2.5576,2.4994,2.3946,2.1544,2.1102,2.1102,2.1091,2.1223,2.1456,2.1803,2.2011,2.2298,2.2726,2.2827,2.2893,2.29,2.29,2.29,2.29,2.29,2.2967,2.2966,2.3006,2.2879,2.2853,2.2792,2.2893,2.29,2.29,2.29,2.29,2.29,2.29,2.29,2.29,2.29,2.29,2.29,2.29,2.29,2.29,2.29,3.0976,3.1005,3.0928,3.0976,3.0928,3.0928,3.0928,3.0928,3.0928,3.0928,3.0928,3.0928,3.0928,3.0928,3.0928,3.0947,3.1064,3.1093,3.1093,3.1122,3.1141,3.173,3.2657,3.2685,3.3148,3.3989,3.3867,3.3688,3.3567,3.3182,3.3025,3.2889,3.1864,3.1276,3.1339,3.0319,2.9705,2.9741,2.9762,2.971,2.9598,2.9598,2.9383,2.9056,2.8689,2.8286,2.7777,2.7739,2.7536,2.7233,2.7206,2.7197,2.7206,2.727,2.7426,2.7802,2.8197,2.8379,2.8463,2.8737,2.892,2.892,2.9005,2.8984,2.8984,2.8984,2.8984,2.8984,2.8984,2.8984,2.8984,2.8856,2.7783,2.5523,2.4994,2.3915,2.1814,2.1102,2.1122,2.1196,2.1435,2.1621,2.1749,2.2158,2.2552,2.2672,2.2832,2.3,2.2987,2.298,2.2927,2.29,2.2914,2.2974,2.3133,2.3258,2.3113,2.3,2.2939,2.2946,2.292,2.29,2.29,2.29,2.29,2.29,2.29,2.29,2.29,2.29,2.29,2.29,2.29,2.29,2.29,3.0928,3.0928,3.0928,3.0928,3.0928,3.0928,3.0928,3.0928,3.0928,3.0928,3.0928,3.0928,3.0928,3.0928,3.0928,3.0928,3.0928,3.0928,3.0928,3.0928,3.0928,3.1093,3.1421,3.1479,3.1653,3.194,3.1866,3.1813,3.1769,3.1383,3.1142,3.0949,3.0203,2.9687,2.9744,2.9304,2.9121,2.916,2.9442,2.9598,2.9608,2.9598,2.9322,2.8756,2.8616,2.8243,2.7583,2.7428,2.7187,2.6829,2.6802,2.6921,2.7233,2.771,2.8058,2.8243,2.8601,2.8801,2.881,2.8902,2.8984,2.8984,2.8984,2.8984,2.8984,2.8984,2.8984,2.8984,2.8984,2.8984,2.8856,2.8122,2.6892,2.5178,2.4963,2.393,2.1725,2.1136,2.1309,2.1643,2.1797,2.2098,2.2605,2.2993,2.3073,2.3253,2.3422,2.3429,2.3213,2.3113,2.3066,2.2954,2.2967,2.2994,2.3193,2.3278,2.3207,2.3086,2.3053,2.2959,2.2927,2.29,2.29,2.29,2.29,2.29,2.29,2.29,2.29,2.29,2.29,2.29,2.29,2.29,2.29,3.0928,3.0928,3.0928,3.0928,3.0928,3.0928,3.0928,3.0928,3.0928,3.0928,3.0928,3.0928,3.0928,3.0928,3.0928,3.0928,3.0928,3.0928,3.0928,3.0928,3.0928,3.0928,3.0928,3.0928,3.0928,3.0879,3.0742,3.0635,3.0605,3.0195,2.9989,2.9872,2.9414,2.9197,2.916,2.915,2.9101,2.8994,2.918,2.9248,2.9158,2.9129,2.8915,2.8553,2.8507,2.8275,2.7895,2.7659,2.7299,2.6883,2.6792,2.7086,2.7591,2.8113,2.8462,2.8636,2.8858,2.8975,2.8984,2.8975,2.8984,2.8984,2.8984,2.8984,2.8984,2.8984,2.8984,2.8984,2.8984,2.8984,2.8797,2.7783,2.6459,2.5148,2.4494,2.3475,2.179,2.1436,2.171,2.2151,2.2425,2.2772,2.3112,2.346,2.3541,2.377,2.381,2.3616,2.3307,2.3133,2.2986,2.286,2.2699,2.2873,2.3198,2.33,2.328,2.3213,2.3153,2.3006,2.292,2.29,2.29,2.29,2.29,2.29,2.29,2.29,2.29,2.29,2.29,2.29,2.29,2.29,2.29,3.0928,3.0928,3.0928,3.0928,3.0928,3.0928,3.0928,3.0928,3.0928,3.0928,3.0928,3.0928,3.0928,3.0928,3.0928,3.0928,3.0928,3.0928,3.0928,3.0928,3.0928,3.0928,3.0928,3.0928,3.0928,3.083,3.0508,3.0322,3.0371,2.9989,2.9637,2.9715,2.9637,2.9579,2.953,2.9579,2.9383,2.9072,2.8996,2.8857,2.8496,2.8486,2.8495,2.8562,2.8619,2.8672,2.8659,2.8321,2.7768,2.7175,2.7207,2.7646,2.8205,2.8416,2.8627,2.8941,2.8975,2.8984,2.8984,2.8984,2.8984,2.8984,2.8984,2.8984,2.8984,2.8984,2.8984,2.8984,2.8984,2.8984,2.8767,2.7573,2.6203,2.488,2.3664,2.2677,2.2126,2.199,2.2291,2.2813,2.316,2.3359,2.3452,2.3728,2.3834,2.3881,2.3901,2.371,2.3308,2.3148,2.2826,2.2692,2.2632,2.2859,2.3212,2.3319,2.3347,2.3475,2.334,2.3194,2.2967,2.2907,2.29,2.29,2.29,2.29,2.29,2.29,2.29,2.29,2.29,2.29,2.29,2.29,2.29,3.0928,3.0928,3.0928,3.0928,3.0928,3.0928,3.0928,3.0928,3.0928,3.0928,3.0928,3.0928,3.0928,3.0928,3.0928,3.0928,3.0928,3.0928,3.0928,3.0928,3.0928,3.0928,3.0928,3.0928,3.0928,3.0898,3.0752,3.0713,3.0674,3.0244,3.0067,3.001,2.9794,2.9637,2.9608,2.9647,2.9549,2.9452,2.9422,2.9189,2.8877,2.9062,2.9084,2.8826,2.9128,2.9314,2.9309,2.882,2.821,2.7558,2.7871,2.8141,2.8407,2.8663,2.8886,2.8948,2.8984,2.8984,2.8984,2.8984,2.8984,2.8984,2.8984,2.8984,2.8984,2.8984,2.8984,2.8984,2.8984,2.8984,2.8648,2.6969,2.4889,2.2875,2.2354,2.2141,2.2096,2.2198,2.2612,2.3395,2.3607,2.3834,2.4086,2.4239,2.4356,2.4326,2.4272,2.4115,2.3596,2.3388,2.318,2.2927,2.2853,2.2999,2.32,2.3299,2.346,2.3669,2.3596,2.3415,2.3148,2.292,2.2907,2.29,2.29,2.29,2.29,2.29,2.29,2.29,2.29,2.29,2.29,2.29,2.29,3.0928,3.0928,3.0928,3.0928,3.0928,3.0928,3.0928,3.0928,3.0928,3.0928,3.0928,3.0928,3.0928,3.0928,3.0928,3.0928,3.0928,3.0928,3.0928,3.0928,3.0928,3.0928,3.0928,3.0928,3.0928,3.0928,3.0928,3.0918,3.085,3.0605,3.0508,3.0459,3.0273,3.0127,3.0204,3.0146,3.0038,2.9911,2.9852,2.9629,2.9268,2.9434,2.956,2.9463,2.9717,2.9844,2.9666,2.9355,2.886,2.8331,2.8314,2.8462,2.8636,2.8886,2.8984,2.8984,2.8984,2.8984,2.8984,2.8984,2.8984,2.8984,2.8984,2.8984,2.8984,2.8984,2.8984,2.8984,2.8984,2.8984,2.8576,2.6716,2.4303,2.2404,2.1984,2.2244,2.2519,2.2839,2.332,2.3875,2.4155,2.4229,2.4566,2.4592,2.4592,2.4579,2.4539,2.4139,2.3694,2.3647,2.3447,2.3046,2.282,2.2866,2.3146,2.3347,2.3527,2.3736,2.381,2.3629,2.3335,2.3027,2.292,2.2907,2.29,2.29,2.29,2.29,2.29,2.29,2.29,2.292,2.2934,2.2967,2.2954,3.0928,3.0928,3.0928,3.0928,3.0928,3.0928,3.0928,3.0928,3.0928,3.0928,3.0928,3.0928,3.0928,3.0928,3.0928,3.0928,3.0928,3.0928,3.0928,3.0928,3.0928,3.0928,3.0928,3.0928,3.0928,3.0928,3.0928,3.0928,3.0879,3.0888,3.0898,3.084,3.081,3.0879,3.0771,3.0801,3.0644,3.0342,3.0273,3.0077,2.9784,2.9813,2.9922,3.0029,3.0205,3.013,2.9968,2.9813,2.951,2.889,2.8618,2.8674,2.8929,2.8975,2.8984,2.8984,2.8984,2.8984,2.8984,2.8984,2.8984,2.8984,2.8984,2.8984,2.8984,2.8984,2.8984,2.8984,2.8984,2.8773,2.8071,2.6545,2.465,2.2778,2.2606,2.3041,2.3367,2.3654,2.4035,2.4492,2.4579,2.4592,2.4592,2.4592,2.4592,2.4592,2.4566,2.4286,2.3895,2.3688,2.336,2.2899,2.2726,2.2639,2.2999,2.3409,2.3567,2.3754,2.3875,2.3817,2.3522,2.3241,2.3027,2.292,2.2907,2.29,2.29,2.29,2.2914,2.2966,2.3033,2.3047,2.3027,2.3033,2.3046,3.0928,3.0928,3.0928,3.0928,3.0928,3.0928,3.0928,3.0928,3.0928,3.0928,3.0928,3.0928,3.0928,3.0928,3.0928,3.0928,3.0928,3.0928,3.0928,3.0928,3.0928,3.0928,3.0928,3.0928,3.0928,3.0928,3.0928,3.0928,3.0928,3.0928,3.0928,3.0928,3.0928,3.0928,3.0928,3.0918,3.0859,3.0752,3.0723,3.0488,3.0234,3.04,3.042,3.0312,3.0537,3.0529,3.0286,3.0021,2.9727,2.9367,2.9044,2.8874,2.8957,2.8984,2.8984,2.8984,2.8984,2.8984,2.8984,2.8984,2.8984,2.8984,2.8984,2.8984,2.8984,2.8984,2.8984,2.8984,2.8964,2.836,2.705,2.6284,2.496,2.3564,2.3088,2.3405,2.3881,2.4068,2.4282,2.4486,2.4592,2.4592,2.4592,2.4592,2.4592,2.4592,2.4512,2.4379,2.4128,2.3788,2.342,2.3013,2.2973,2.2939,2.304,2.3474,2.3821,2.3981,2.4075,2.3935,2.3647,2.3414,2.3193,2.3041,2.29,2.29,2.29,2.2926,2.2959,2.308,2.3227,2.3287,2.3348,2.3273,2.322,3.0928,3.0928,3.0928,3.0928,3.0928,3.0928,3.0928,3.0928,3.0928,3.0928,3.0928,3.0928,3.0928,3.0928,3.0928,3.0928,3.0928,3.0928,3.0928,3.0928,3.0928,3.0928,3.0928,3.0928,3.0928,3.0928,3.0928,3.0928,3.0928,3.0928,3.0928,3.0928,3.0928,3.0928,3.0928,3.0928,3.0918,3.0908,3.0889,3.0752,3.0625,3.0742,3.0849,3.0586,3.0733,3.0674,3.0177,3.001,2.9686,2.934,2.9103,2.8984,2.8984,2.8984,2.8984,2.8984,2.8984,2.8984,2.8984,2.8984,2.8984,2.8984,2.8984,2.8984,2.8984,2.8984,2.9124,2.9234,2.9182,2.8665,2.7438,2.66,2.5722,2.472,2.3921,2.391,2.4148,2.4322,2.4412,2.4559,2.4592,2.4592,2.4592,2.4592,2.4592,2.4592,2.4592,2.4459,2.4289,2.3961,2.3688,2.3407,2.336,2.3313,2.3267,2.3581,2.4115,2.4252,2.4366,2.4135,2.3823,2.3581,2.338,2.314,2.2914,2.29,2.2914,2.2953,2.31,2.3227,2.3387,2.3567,2.3647,2.3574,2.3534,3.0928,3.0928,3.0928,3.0928,3.0928,3.0928,3.0928,3.0928,3.0928,3.0928,3.0928,3.0928,3.0928,3.0928,3.0928,3.0928,3.0928,3.0928,3.0928,3.0928,3.0928,3.0928,3.0928,3.0928,3.0928,3.0928,3.0928,3.0928,3.0928,3.0928,3.0928,3.0928,3.0928,3.0928,3.0928,3.0928,3.0928,3.0928,3.0889,3.0879,3.0869,3.0879,3.0898,3.0859,3.0859,3.0557,3.0098,2.9863,2.9636,2.9044,2.8984,2.8984,2.8984,2.8984,2.8984,2.8984,2.8984,2.8984,2.8984,2.8984,2.8984,2.8984,2.8984,2.903,2.9067,2.9149,2.9363,2.9647,2.9742,2.9569,2.8965,2.7914,2.6727,2.5648,2.4682,2.4304,2.4309,2.4459,2.4559,2.4586,2.4592,2.4592,2.4592,2.4592,2.4592,2.4592,2.4592,2.4532,2.4369,2.4142,2.3875,2.3667,2.3609,2.3667,2.3654,2.3694,2.4229,2.4419,2.4572,2.4275,2.395,2.3756,2.3487,2.3141,2.2934,2.2954,2.304,2.3233,2.336,2.3434,2.3621,2.3868,2.3908,2.3861,2.3841,3.0928,3.0928,3.0928,3.0928,3.0928,3.0928,3.0928,3.0928,3.0928,3.0928,3.0928,3.0928,3.0928,3.0928,3.0928,3.0928,3.0928,3.0928,3.0928,3.0928,3.0928,3.0928,3.0928,3.0928,3.0928,3.0928,3.0928,3.0928,3.0928,3.0928,3.0928,3.0928,3.0928,3.0928,3.0928,3.0928,3.0928,3.0928,3.0928,3.0928,3.0928,3.0928,3.0928,3.0928,3.0928,3.0557,3.0078,2.9892,2.9636,2.9064,2.9014,2.8984,2.8984,2.8984,2.8984,2.8984,2.8984,2.8984,2.8984,2.8984,2.8984,2.8984,2.9021,2.9234,2.9409,2.9519,2.9721,3.0121,3.0446,3.0177,2.7643,2.7874,2.6837,2.5413,2.4501,2.4315,2.4452,2.4552,2.4592,2.4592,2.4592,2.4592,2.4592,2.4592,2.4592,2.4592,2.4592,2.4592,2.4492,2.4309,2.4075,2.3888,2.377,2.3937,2.4048,2.4082,2.4272,2.4459,2.4526,2.4315,2.4015,2.3877,2.3603,2.3228,2.3066,2.312,2.328,2.3467,2.3681,2.3801,2.3995,2.4195,2.4202,2.4195,2.4142,3.0928,3.0928,3.0928,3.0928,3.0928,3.0928,3.0928,3.0928,3.0928,3.0928,3.0928,3.0928,3.0928,3.0928,3.0928,3.0928,3.0928,3.0928,3.0928,3.0928,3.0928,3.0928,3.0928,3.0928,3.0928,3.0928,3.0928,3.0928,3.0928,3.0928,3.0928,3.0928,3.0928,3.0928,3.0928,3.0928,3.0928,3.0928,3.0928,3.0928,3.0928,3.0928,3.0928,3.0928,3.0859,3.0557,3.0039,2.9922,2.9607,2.9133,2.8984,2.8984,2.8984,2.8984,2.8984,2.8984,2.8984,2.8984,2.8984,2.8993,2.9067,2.9269,2.9317,2.9519,2.9803,2.9938,3.0094,3.0552,3.1212,3.1291,3.0164,2.9074,2.79,2.6854,2.5475,2.4579,2.4589,2.4623,2.4592,2.4592,2.4592,2.4592,2.4592,2.4592,2.4592,2.4592,2.4592,2.4592,2.4592,2.4446,2.4262,2.4115,2.3981,2.4102,2.4269,2.4342,2.4339,2.4499,2.4492,2.4289,2.4095,2.395,2.3634,2.3287,2.326,2.3287,2.3387,2.3534,2.3848,2.4155,2.4295,2.4416,2.4472,2.4529,2.4436,3.0928,3.0928,3.0928,3.0928,3.0928,3.0928,3.0928,3.0928,3.0928,3.0928,3.0928,3.0928,3.0928,3.0928,3.0928,3.0928,3.0928,3.0928,3.0928,3.0928,3.0928,3.0928,3.0928,3.0928,3.0928,3.0928,3.0928,3.0928,3.0928,3.0928,3.0928,3.0928,3.0928,3.0928,3.0928,3.0928,3.0928,3.0928,3.0928,3.0928,3.0928,3.0928,3.0928,3.0889,3.083,3.0499,2.9981,2.9804,2.9538,2.9163,2.8984,2.8984,2.8984,2.8984,2.8984,2.8984,2.8984,2.8984,2.9003,2.9152,2.9299,2.951,2.9635,2.991,3.0222,3.0433,3.0598,3.0974,3.1634,3.1887,3.1195,3.0213,2.9236,2.8374,2.6583,2.499,2.5038,2.4961,2.4629,2.4592,2.4592,2.4592,2.4592,2.4592,2.4592,2.4592,2.4592,2.4592,2.4592,2.4592,2.4439,2.4299,2.4269,2.4329,2.4399,2.4492,2.4506,2.4546,2.4459,2.4246,2.4128,2.4017,2.3694,2.346,2.3374,2.34,2.35,2.3708,2.4095,2.4389,2.4492,2.4559,2.4566,2.4572,2.4519,3.0928,3.0928,3.0928,3.0928,3.0928,3.0928,3.0928,3.0928,3.0928,3.0928,3.0928,3.0928,3.0928,3.0928,3.0928,3.0928,3.0928,3.0928,3.0928,3.0928,3.0928,3.0928,3.0928,3.0928,3.0928,3.0928,3.0928,3.0928,3.0928,3.0928,3.0928,3.0928,3.0928,3.0928,3.0928,3.0928,3.0928,3.0928,3.0928,3.0928,3.0928,3.0928,3.0928,3.083,3.0616,3.0304,2.9951,2.9715,2.939,2.9073,2.8984,2.8984,2.8984,2.8984,2.8984,2.8984,2.8984,2.8984,2.9067,2.9324,2.9601,2.9794,2.9947,3.0305,3.0644,3.0956,3.1171,3.1304,3.2001,3.2023,3.1394,3.0737,3.0076,2.9094,2.7649,2.6648,2.643,2.5609,2.5212,2.4851,2.4924,2.4703,2.4592,2.4592,2.4592,2.4592,2.4592,2.4592,2.4592,2.4592,2.4592,2.4452,2.4372,2.4426,2.4472,2.4579,2.4592,2.4592,2.4466,2.4286,2.4195,2.4068,2.3928,2.3728,2.3641,2.3701,2.3935,2.4189,2.4456,2.4519,2.4559,2.4579,2.4592,2.4592,2.4592,3.0928,3.0928,3.0928,3.0928,3.0928,3.0928,3.0928,3.0928,3.0928,3.0928,3.0928,3.0928,3.0928,3.0928,3.0928,3.0928,3.0928,3.0928,3.0928,3.0928,3.0928,3.0928,3.0928,3.0928,3.0928,3.0928,3.0928,3.0928,3.0928,3.0928,3.0928,3.0928,3.0928,3.0928,3.0928,3.0928,3.0928,3.0928,3.0928,3.0928,3.0928,3.0928,3.0928,3.0889,3.0577,3.0245,2.9922,2.9656,2.9361,2.9073,2.8984,2.8984,2.8984,2.8984,2.8984,2.9032,2.9214,2.9344,2.94,2.9709,2.9996,3.0244,3.0442,3.0699,3.1079,3.1281,3.141,3.141,3.19,3.1872,3.148,3.1158,3.0853,2.9995,2.842,2.8133,2.7543,2.6641,2.6005,2.5609,2.5125,2.479,2.4512,2.4539,2.4552,2.4592,2.4592,2.4592,2.4592,2.4592,2.4592,2.4572,2.4519,2.4499,2.4532,2.4592,2.4592,2.4592,2.4572,2.4406,2.4295,2.4162,2.4068,2.4108,2.4148,2.4255,2.4386,2.4409,2.4436,2.4492,2.4592,2.4592,2.4592,2.4592,2.4592,3.0587,3.0928,3.0928,3.0928,3.0928,3.0928,3.0928,3.0928,3.0928,3.0928,3.0928,3.0928,3.0928,3.0928,3.0928,3.0928,3.0928,3.0928,3.0928,3.0928,3.0928,3.0928,3.0928,3.0928,3.0928,3.0928,3.0928,3.0928,3.0928,3.0928,3.0928,3.0928,3.0928,3.0928,3.0928,3.0928,3.0928,3.0928,3.0928,3.0928,3.0928,3.0928,3.0928,3.0801,3.0577,3.0245,2.9922,2.9656,2.9361,2.9073,2.8984,2.8984,2.8984,2.8984,2.9076,2.9234,2.9537,2.984,2.9978,3.0204,3.0488,3.0708,3.096,3.1079,3.129,3.141,3.1501,3.1561,3.1974,3.2202,3.1947,3.1201,3.0986,3.021,2.9087,2.8999,2.8514,2.6999,2.5717,2.4974,2.4553,2.4542,2.4402,2.4476,2.4499,2.4572,2.4592,2.4592,2.4592,2.4592,2.4592,2.4592,2.4579,2.4546,2.4566,2.4592,2.4592,2.4579,2.4559,2.4526,2.4429,2.4356,2.4295,2.4359,2.4472,2.4499,2.4492,2.4442,2.4376,2.4479,2.4592,2.4592,2.4592,2.4592,2.4592,2.9785,3.0928,3.0859,3.0889,3.0928,3.0928,3.0928,3.0928,3.0928,3.0928,3.0928,3.0928,3.0928,3.0928,3.0928,3.0928,3.0928,3.0928,3.0928,3.0928,3.0928,3.0928,3.0928,3.0928,3.0928,3.0928,3.0928,3.0928,3.0928,3.0928,3.0928,3.0928,3.0928,3.0928,3.0928,3.0928,3.0928,3.0928,3.0928,3.0928,3.0928,3.0928,3.0928,3.082,3.0577,3.0245,2.9902,2.9656,2.9361,2.9014,2.8984,2.8984,2.8984,2.9058,2.9225,2.9482,2.9932,3.0262,3.0479,3.0635,3.0776,3.0923,3.1098,3.13,3.1391,3.141,3.1566,3.1845,3.2139,3.2043,3.1505,3.0823,3.1123,3.0814,3.0071,2.9404,2.8483,2.6463,2.5229,2.4347,2.4036,2.4131,2.4229,2.4295,2.4466,2.4559,2.4592,2.4592,2.4592,2.4592,2.4592,2.4592,2.4592,2.4586,2.4586,2.4592,2.4592,2.4552,2.4512,2.4539,2.4526,2.4479,2.4419,2.4472,2.4552,2.4579,2.4592,2.4512,2.4479,2.4546,2.4592,2.4592,2.4592,2.4592,2.4592,2.8044,2.8561,2.9333,3.0147,3.0928,3.0928,3.0928,3.0928,3.0928,3.0928,3.0928,3.0928,3.0928,3.0928,3.0928,3.0928,3.0928,3.0928,3.0928,3.0928,3.0928,3.0928,3.0928,3.0928,3.0928,3.0928,3.0928,3.0928,3.0928,3.0928,3.0928,3.0928,3.0928,3.0928,3.0928,3.0928,3.0928,3.0928,3.0928,3.0928,3.0928,3.0928,3.0928,3.0889,3.0577,3.0245,2.9892,2.9627,2.9331,2.9094,2.9014,2.8984,2.9039,2.9216,2.9427,2.9693,3.0207,3.062,3.0818,3.0992,3.118,3.1199,3.1327,3.141,3.141,3.141,3.163,3.1891,3.2148,3.1995,3.2383,3.2042,3.1942,3.1729,3.0933,2.9766,2.8406,2.63,2.5395,2.4778,2.4204,2.3904,2.3988,2.4108,2.4356,2.4539,2.4566,2.4592,2.4592,2.4592,2.4592,2.4592,2.4592,2.4592,2.4592,2.4592,2.4592,2.4546,2.4486,2.4532,2.4579,2.4579,2.4539,2.4586,2.4592,2.4592,2.4592,2.4592,2.4592,2.4592,2.4592,2.4592,2.4592,2.4592,2.4592,2.665,2.7103,2.7966,2.9087,3.0216,3.0304,3.0548,3.0801,3.0431,3.0587,3.0898,3.0928,3.0928,3.0928,3.0928,3.0928,3.0928,3.0928,3.0928,3.0928,3.0928,3.0928,3.0928,3.0928,3.0928,3.0928,3.0928,3.0928,3.0928,3.0928,3.0928,3.0928,3.0928,3.0928,3.0928,3.0928,3.0928,3.0928,3.0928,3.0928,3.0928,3.0928,3.0928,3.0889,3.0704,3.0421,3.0098,2.9804,2.9499,2.9233,2.9064,2.9014,2.9143,2.9344,2.9629,2.9938,3.0332,3.0841,3.1011,3.1208,3.141,3.1364,3.1382,3.141,3.141,3.1419,3.1602,3.1937,3.2056,3.2198,3.2673,3.1791,3.0996,3.0378,2.9023,2.7908,2.7518,2.6116,2.5783,2.5322,2.4526,2.3516,2.3721,2.3875,2.4242,2.4446,2.4572,2.4592,2.4592,2.4592,2.4592,2.4592,2.4592,2.4592,2.4592,2.4592,2.4592,2.4586,2.4546,2.4559,2.4592,2.4592,2.4592,2.4592,2.4592,2.4592,2.4592,2.4592,2.4592,2.4592,2.4592,2.4592,2.4592,2.4592,2.4592,2.5798,2.6952,2.7021,2.7757,2.8772,2.892,2.9599,3.0284,2.9569,2.9717,3.0645,3.0801,3.0928,3.0928,3.0928,3.0928,3.0928,3.0928,3.0928,3.0928,3.0928,3.0928,3.0928,3.0928,3.0928,3.0928,3.0928,3.0928,3.0928,3.0928,3.0928,3.0928,3.0928,3.0928,3.0928,3.0928,3.0928,3.0928,3.0928,3.0928,3.0928,3.0928,3.0928,3.0889,3.0859,3.0635,3.0216,2.9951,2.9656,2.9331,2.9094,2.9014,2.903,2.9464,2.9782,3.013,3.0593,3.1006,3.1336,3.1391,3.141,3.141,3.141,3.141,3.141,3.1446,3.1593,3.1946,3.2074,3.178,3.1243,3.0539,3.0004,2.9563,2.8388,2.7359,2.7156,2.6415,2.6061,2.5288,2.4024,2.3047,2.3327,2.3647,2.4075,2.4332,2.4526,2.4592,2.4586,2.4592,2.4592,2.4592,2.4592,2.4592,2.4592,2.4592,2.4592,2.4592,2.4592,2.4592,2.4592,2.4592,2.4592,2.4592,2.4592,2.4592,2.4592,2.4592,2.4592,2.4592,2.4592,2.4592,2.4592,2.4592,2.4592,2.4023,2.4479,2.537,2.5981,2.649,2.7315,2.7945,2.8343,2.8721,2.9166,2.9717,3.0421,3.0889,3.0928,3.0928,3.0928,3.0928,3.0928,3.0928,3.0928,3.0928,3.0928,3.0928,3.0928,3.0928,3.0928,3.0928,3.0928,3.0928,3.0928,3.0928,3.0928,3.0928,3.0928,3.0928,3.0928,3.0928,3.0928,3.0928,3.0928,3.0928,3.0928,3.0928,3.0928,3.0928,3.0684,3.0225,3.0049,2.9745,2.937,2.9103,2.9044,2.9113,2.9516,3.002,3.0341,3.0726,3.1244,3.1391,3.141,3.141,3.141,3.141,3.141,3.141,3.141,3.1648,3.1918,3.212,3.2098,3.2394,3.1085,3.0539,3.1066,3.0215,2.8966,2.8246,2.7093,2.6231,2.5062,2.3823,2.3288,2.3267,2.3427,2.3801,2.4122,2.4315,2.4499,2.4552,2.4586,2.4592,2.4592,2.4592,2.4592,2.4592,2.4592,2.4592,2.4592,2.4592,2.4592,2.4592,2.4592,2.4592,2.4592,2.4592,2.4592,2.4592,2.4592,2.4592,2.4592,2.4592,2.4592,2.4592,2.4592,2.4592,2.3106,2.3199,2.4023,2.4394,2.461,2.5798,2.6355,2.6589,2.7637,2.8236,2.8513,2.9608,3.0147,3.0304,3.0684,3.0928,3.0928,3.0928,3.0928,3.0928,3.0928,3.0928,3.0928,3.083,3.0928,3.0889,3.0889,3.0928,3.0928,3.0928,3.0928,3.0928,3.0928,3.0928,3.0928,3.0928,3.0928,3.0928,3.0928,3.0928,3.0928,3.0928,3.0928,3.0928,3.0859,3.0713,3.0343,3.0069,2.9833,2.9429,2.9192,2.9103,2.9273,2.9663,3.014,3.0415,3.0892,3.1336,3.141,3.141,3.141,3.141,3.141,3.141,3.141,3.141,3.1497,3.1763,3.2093,3.2429,3.2514,3.1165,3.1041,3.1516,3.0696,2.937,2.7614,2.6367,2.5693,2.4588,2.3893,2.3459,2.316,2.3307,2.3507,2.3794,2.4062,2.4315,2.4526,2.4566,2.4592,2.4592,2.4586,2.4586,2.4586,2.4592,2.4592,2.4592,2.4592,2.4592,2.4592,2.4592,2.4592,2.4592,2.4592,2.4592,2.4592,2.4592,2.4592,2.4592,2.4592,2.4592,2.4592,2.4592,2.4592,2.3106,2.3106,2.3106,2.3168,2.3386,2.4548,2.5041,2.5164,2.6377,2.6931,2.7043,2.8295,2.8831,2.9116,3.0098,3.044,3.0352,3.0411,3.0343,3.0401,3.0069,3.0284,3.0352,3.0323,3.0049,3.0401,3.0577,3.0401,3.0772,3.0889,3.0889,3.0928,3.0928,3.0928,3.0928,3.0928,3.0928,3.0928,3.0928,3.0928,3.0928,3.0928,3.0928,3.0889,3.083,3.0704,3.0489,3.0284,3.0039,2.9745,2.9538,2.9281,2.9361,2.9794,3.0048,3.047,3.1098,3.13,3.141,3.141,3.141,3.141,3.141,3.141,3.141,3.141,3.1474,3.1552,3.1799,3.2016,3.2023,3.1452,3.095,3.0595,2.9951,2.8301,2.6318,2.5283,2.4803,2.4115,2.3562,2.3166,2.3041,2.3121,2.338,2.3701,2.4008,2.4275,2.4459,2.4572,2.4592,2.4579,2.4572,2.4566,2.4566,2.4539,2.4566,2.4559,2.4592,2.4592,2.4592,2.4592,2.4592,2.4592,2.4592,2.4592,2.4592,2.4592,2.4592,2.4592,2.4592,2.4592,2.4592,2.4592,2.4592,2.3106,2.3106,2.3106,2.3106,2.3168,2.351,2.3658,2.3845,2.5071,2.5654,2.5715,2.6974,2.7508,2.7615,2.7954,2.8164,2.8194,2.8113,2.8074,2.8224,2.8552,2.8262,2.8233,2.8382,2.8224,2.8552,2.8968,2.9569,2.9776,3.0236,3.0889,3.0928,3.0928,3.0928,3.0928,3.0928,3.0928,3.0928,3.0928,3.0928,3.0928,3.0928,3.0928,3.0889,3.0665,3.0548,3.0343,3.0049,2.9715,2.939,2.9252,2.9073,2.9099,2.9745,3.0323,3.0992,3.1318,3.141,3.141,3.141,3.141,3.141,3.141,3.141,3.141,3.141,3.141,3.1501,3.1748,3.2089,3.1792,3.1216,3.0766,3.0261,2.9563,2.8309,2.6582,2.5929,2.5315,2.3728,2.3153,2.3053,2.2927,2.304,2.334,2.3667,2.3968,2.4235,2.4386,2.4499,2.4519,2.4506,2.4399,2.4346,2.4426,2.4426,2.4486,2.4532,2.4566,2.4592,2.4592,2.4592,2.4592,2.4592,2.4592,2.4592,2.4592,2.4592,2.4592,2.4592,2.4592,2.4592,2.4592,2.4592,2.4592,2.3106,2.3106,2.3106,2.3106,2.3106,2.3106,2.3106,2.3261,2.3969,2.4309,2.4456,2.5676,2.6255,2.6346,2.6831,2.7134,2.7164,2.7284,2.7254,2.7254,2.6862,2.7164,2.7043,2.6922,2.7194,2.7336,2.7697,2.8474,2.8989,3.0089,3.0928,3.0928,3.0928,3.0898,3.0928,3.0928,3.0928,3.0928,3.0928,3.0928,3.0928,3.0928,3.0928,3.0859,3.0567,3.0333,3.0186,2.9892,2.9597,2.945,2.9429,2.9192,2.9282,2.9867,3.0584,3.118,3.1382,3.141,3.141,3.141,3.141,3.141,3.141,3.141,3.141,3.141,3.141,3.1483,3.189,3.2087,3.1458,3.0871,3.0505,3.014,2.9345,2.8552,2.7768,2.7073,2.5519,2.3667,2.3041,2.2954,2.2939,2.3086,2.3307,2.3641,2.3921,2.4168,2.4329,2.4386,2.4379,2.4346,2.4222,2.4102,2.4222,2.4382,2.4426,2.4499,2.4572,2.4592,2.4592,2.4592,2.4592,2.4592,2.4592,2.4592,2.4592,2.4592,2.4592,2.4592,2.4592,2.4592,2.4592,2.4592,2.4592,2.3106,2.3106,2.3106,2.3106,2.3106,2.3106,2.3106,2.3106,2.3199,2.3137,2.3448,2.4402,2.4941,2.5102,2.5707,2.6164,2.6073,2.6073,2.6003,2.665,2.6125,2.6064,2.6164,2.6589,2.5981,2.6407,2.6974,2.7357,2.8683,2.9451,2.9951,3.0616,3.0587,3.046,3.0401,3.0801,3.0898,3.0928,3.0928,3.0928,3.0928,3.0928,3.0889,3.083,3.0635,3.0431,3.0518,3.0343,2.999,3.001,2.989,2.9494,2.9809,3.0057,3.0725,3.1125,3.1382,3.141,3.141,3.141,3.141,3.141,3.141,3.141,3.141,3.141,3.141,3.1483,3.1826,3.1238,3.0568,3.0402,3.019,2.9453,2.8589,2.7723,2.6889,2.6099,2.485,2.3351,2.2987,2.2914,2.2907,2.3013,2.316,2.3547,2.389,2.4075,2.4255,2.4306,2.4266,2.4242,2.4068,2.3981,2.4155,2.4302,2.4409,2.4459,2.4559,2.4592,2.4592,2.4592,2.4592,2.4592,2.4592,2.4592,2.4592,2.4592,2.4592,2.4592,2.4592,2.4592,2.4592,2.4592,2.4592,2.3106,2.3106,2.3106,2.3106,2.3106,2.3106,2.3106,2.3106,2.3106,2.3106,2.3168,2.3441,2.3658,2.3876,2.4116,2.4394,2.4301,2.461,2.4116,2.427,2.4324,2.4602,2.4209,2.451,2.4301,2.4402,2.5033,2.6286,2.7336,2.7885,2.8074,2.8164,2.876,2.9392,2.9451,3.0039,3.0674,3.0645,3.0889,3.0801,3.0713,3.083,3.0889,3.0704,3.0489,3.0333,3.0244,2.9793,2.9607,2.9557,2.9626,2.9901,3.0457,3.0565,3.0905,3.13,3.141,3.141,3.1442,3.1442,3.141,3.141,3.141,3.141,3.141,3.141,3.1456,3.1515,3.1331,3.0544,2.9959,2.9986,2.9792,2.8831,2.7767,2.6814,2.5873,2.4924,2.3941,2.3461,2.3009,2.292,2.29,2.298,2.3093,2.3382,2.3683,2.3944,2.4148,2.4275,2.4215,2.4135,2.3984,2.3944,2.4102,2.4249,2.4362,2.4459,2.4572,2.4592,2.4592,2.4592,2.4592,2.4592,2.4592,2.4592,2.4592,2.4592,2.4592,2.4592,2.4592,2.4592,2.4592,2.4592,2.4592,2.3106,2.3106,2.3106,2.3106,2.3106,2.3106,2.3106,2.3106,2.3106,2.3106,2.3106,2.3106,2.3106,2.3106,2.3106,2.3106,2.3106,2.3137,2.3347,2.323,2.3106,2.323,2.3106,2.3106,2.3293,2.3479,2.4487,2.5584,2.6133,2.6892,2.7194,2.7013,2.7757,2.8086,2.8245,2.9264,3.003,2.9991,3.046,3.046,3.0274,3.046,3.083,3.0713,3.0382,3.0292,3.0358,2.9993,2.9919,3.0047,3.0312,3.0288,3.0628,3.0749,3.1069,3.1409,3.1548,3.1474,3.1515,3.1483,3.141,3.141,3.141,3.141,3.141,3.141,3.141,3.152,3.1772,3.1162,3.0365,3.0143,2.9698,2.8909,2.7235,2.5775,2.5013,2.4232,2.3557,2.3174,2.2914,2.2907,2.29,2.29,2.3108,2.3529,2.3777,2.3961,2.4162,2.4235,2.4168,2.4088,2.3977,2.3984,2.4135,2.4249,2.4335,2.4439,2.4592,2.4592,2.4592,2.4592,2.4592,2.4592,2.4592,2.4592,2.4592,2.4592,2.4592,2.4592,2.4592,2.4592,2.4592,2.4592,2.4592,2.3106,2.3106,2.3106,2.3106,2.3106,2.3106,2.3106,2.3106,2.3106,2.3106,2.3106,2.3106,2.3106,2.3106,2.3106,2.3106,2.3106,2.3106,2.3106,2.3106,2.3106,2.3106,2.3106,2.3106,2.3106,2.3386,2.4154,2.4517,2.4826,2.5523,2.6012,2.6468,2.668,2.6779,2.7125,2.7877,2.8692,2.887,2.9176,2.9422,2.9628,2.9903,3.0304,3.0343,3.0252,3.0434,3.0697,3.0781,3.0596,3.0679,3.0874,3.0847,3.093,3.106,3.1294,3.1579,3.1612,3.1612,3.1644,3.1515,3.1442,3.141,3.141,3.141,3.141,3.1175,3.1175,3.1464,3.1725,3.1292,3.0491,2.9686,2.9202,2.8366,2.6454,2.4868,2.4217,2.3638,2.327,2.29,2.29,2.29,2.29,2.29,2.3134,2.3569,2.3877,2.4108,2.4275,2.4255,2.4209,2.4155,2.4068,2.4115,2.4148,2.4242,2.4302,2.4459,2.4592,2.4592,2.4592,2.4592,2.4592,2.4592,2.4592,2.4592,2.4592,2.4592,2.4592,2.4592,2.4592,2.4592,2.4592,2.4592,2.4592,2.3106,2.3106,2.3106,2.3106,2.3106,2.3106,2.3106,2.3106,2.3106,2.3106,2.3106,2.3106,2.3106,2.3106,2.3106,2.3106,2.3106,2.3106,2.3106,2.3106,2.3106,2.3106,2.3106,2.3106,2.3106,2.3324,2.3503,2.3472,2.3845,2.3992,2.393,2.4116,2.5225,2.5501,2.5707,2.655,2.7405,2.7615,2.7675,2.7864,2.7975,2.8364,2.9107,2.9257,2.9299,3.0216,3.0906,3.1064,3.1074,3.1087,3.0903,3.0837,3.0856,3.1057,3.135,3.1378,3.1442,3.1612,3.1548,3.1515,3.1442,3.141,3.141,3.141,3.1046,3.0284,3.0487,3.1046,3.0991,3.0158,2.9296,2.8403,2.773,2.6625,2.5056,2.421,2.3502,2.3263,2.2996,2.29,2.29,2.29,2.29,2.2907,2.294,2.3288,2.3427,2.3672,2.4068,2.4148,2.4209,2.4148,2.4082,2.3995,2.395,2.4155,2.4282,2.4452,2.4592,2.4592,2.4592,2.4592,2.4592,2.4592,2.4592,2.4592,2.4592,2.4592,2.4592,2.4592,2.4592,2.4592,2.4592,2.4592,2.4592]},{"header":{"parameterUnit":"m.s-1","parameterCategory":1,"la1":31.0,"la2":29.5877,"lo1":-88.7671,"lo2":-86.6584,"dy":0.0162,"dx":0.0185,"nx":115,"ny":88,"refTime":"2024-08-24T06:00:00:Z","depth":0,"parameterNumber":3,"parameterNumberName":"V-component_of_WINDS"},"data":[0.0,0.0,0.0,0.0,0.0,0.0,0.0,0.0,0.0,0.0,0.0,0.0,0.0,0.0,0.0,0.0,0.0,0.0,0.0,0.0,0.0,0.0,0.0,0.0,0.0,0.0,0.0,0.0,0.0,0.0,0.0,0.0,0.0,0.0,0.0,0.0,0.0,0.0,0.0,0.0,0.0,0.0,0.0,0.0,0.0,0.0,0.0,0.0,0.0,0.0,0.0,0.0,0.0,0.0,0.0,0.0,0.0,0.0,0.0,0.0,0.0,0.0,0.0,0.0,0.0,0.0,0.0,0.0,0.0,0.0,0.0,0.0,0.0,0.0,0.0,0.0,0.0,0.0,0.0,0.0,0.0,0.0,0.0,0.0,0.0,0.0,0.0,0.0,0.0,0.0,0.0,0.0,0.0,0.0,0.0,0.0,0.0,0.0,0.0,0.0,0.0,0.0,0.0,0.0,0.0,0.0,0.0,0.0,0.0,0.0,0.0,0.0,0.0,0.0,0.0,0.0,0.0,0.0,0.0,0.0,0.0,0.0,0.0,0.0,0.0,0.0,0.0,0.0,0.0,0.0,0.0,0.0,0.0,0.0,0.0,0.0,0.0,0.0,0.0,0.0,0.0,0.0,0.0,0.0,0.0,0.0,0.0,0.0,0.0,0.0,0.0,0.0,0.0,0.0,0.0,0.0,0.0,0.0,0.0,0.0,0.0,0.0,0.0,0.0,0.0,0.0,0.0,0.0,0.0,0.0,0.0,0.0,0.0,0.0,0.0,0.0,0.0,0.0,0.0,0.0,0.0,0.0,0.0,0.0,0.0,0.0,0.0,0.0,0.0,0.0,0.0,0.0,0.0,0.0,0.0,0.0,0.0,0.0,0.0,0.0,0.0,0.0,0.0,0.0,0.0,0.0,0.0,0.0,0.0,0.0,0.0,0.0,0.0,0.0,0.0,0.0,0.0,0.0,0.0,0.0,0.0,0.0,0.0,0.0,0.0,0.0,0.0,0.0,0.0,0.0,0.0,0.0,0.0,0.0,0.0,0.0,0.0,0.0,0.0,0.0,0.0,0.0,0.0,0.0,0.0,0.0,0.0,0.0,0.0,0.0,0.0,0.0,0.0,0.0,0.0,0.0,0.0,0.0,0.0,0.0,0.0,0.0,0.0,0.0,0.0,0.0,0.0,0.0,0.0,0.0,0.0,0.0,0.0,0.0,0.0,0.0,0.0,0.0,0.0,0.0,0.0,0.0,0.0,0.0,0.0,0.0,0.0,0.0,0.0,0.0,0.0,0.0,0.0,0.0,0.0,0.0,0.0,0.0,0.0,0.0,0.0,0.0,0.0,0.0,0.0,0.0,0.0,0.0,0.0,0.0,0.0,0.0,0.0,0.0,0.0,0.0,0.0,0.0,0.0,0.0,0.0,0.0,0.0,0.0,0.0,0.0,0.0,0.0,0.0,0.0,0.0,0.0,0.0,0.0,0.0,0.0,0.0,0.0,0.0,0.0,0.0,0.0,0.0,0.0,0.0,0.0,0.0,0.0,0.0,0.0,0.0,0.0,0.0,0.0,0.0,0.0,0.0,0.0,0.0,0.0,0.0,0.0,0.0,0.0,0.0,0.0,0.0,0.0,0.0,0.0,0.0,0.0,0.0,0.0,0.0,0.0,0.0,0.0,0.0,0.0,0.0,0.0,0.0,0.0,0.0,0.0,0.0,0.0,0.0,0.0,0.0,0.0,0.0,0.0,0.0,0.0,0.0,0.0,0.0,0.0,0.0,0.0,0.0,0.0,0.0,0.0,0.0,0.0,0.0,0.0,0.0,0.0,0.0,0.0,0.0,0.0,0.0,0.0,0.0,0.0,0.0,0.0,0.0,0.0,0.0,0.0,0.0,0.0,0.0,0.0,0.0,0.0,0.0,0.0,0.0,0.0,0.0,0.0,0.0,0.0,0.0,0.0,0.0,0.0,0.0,0.0,0.0,0.0,0.0,0.0,0.0,0.0,0.0,0.0,0.0,0.0,0.0,0.0,0.0,0.0,0.0,0.0,0.0,0.0,0.0,0.0,0.0,0.0,0.0,0.0,0.0,0.0,0.0,0.0,0.0,0.0,0.0,0.0,0.0,0.0,0.0,0.0,0.0,0.0,0.0,0.0,0.0,0.0,0.0,0.0,0.0,0.0,0.0,0.0,0.0,0.0,0.0,0.0,0.0,0.0,0.0,0.0,0.0,0.0,0.0,0.0,0.0,0.0,0.0,0.0,0.0,0.0,0.0,0.0,0.0,0.0,0.0,0.0,0.0,0.0,0.0,0.0,0.0,0.0,0.0,0.0,0.0,0.0,0.0,0.0,0.0,0.0,0.0,0.0,0.0,0.0,0.0,0.0,0.0,0.0,0.0,0.0,0.0,0.0,0.0,0.0,0.0,0.0,0.0,0.0,0.0,0.0,0.0,0.0,0.0,0.0,0.0,0.0,0.0,0.0,0.0,0.0,0.0,0.0,0.0,0.0,0.0,0.0,0.0,0.0,0.0,0.0,0.0,0.0,0.0,0.0,0.0,0.0,0.0,0.0,0.0,0.0,0.0,0.0,0.0,0.0,0.0,0.0,0.0,0.0,0.0,0.0,0.0,0.0,0.0,0.0,0.0,0.0,0.0,0.0,0.0,0.0,0.0,0.0,0.0,0.0,0.0,0.0,0.0,0.0,0.0,0.0,0.0,0.0,0.0,0.0,0.0,0.0,0.0,0.0,0.0,0.0,0.0,0.0,0.0,0.0,0.0,0.0,0.0,0.0,0.0,0.0,0.0,0.0,0.0,0.0,0.0,0.0,0.0,0.0,0.0,0.0,0.0,0.0,0.0,0.0,0.0,0.0,0.0,0.0,0.0,0.0,0.0,0.0,0.0,0.0,0.0,0.0,0.0,0.0,0.0,0.0,0.0,0.0,0.0,0.0,0.0,0.0,0.0,0.0,0.0,0.0,0.0,0.0,0.0,0.0,0.0,0.0,0.0,0.0,0.0,0.0,0.0,0.0,0.0,0.0,0.0,0.0,0.0,0.0,0.0,0.0,0.0,0.0,0.0,0.0,0.0,0.0,0.0,0.0,0.0,0.0,0.0,0.0,0.0,0.0,0.0,0.0,0.0,0.0,0.0,0.0,0.0,0.0,0.0,0.0,0.0,0.0,0.0,0.0,0.0,0.0,0.0,0.0,0.0,0.0,0.0,0.0,0.0,0.0,0.0,0.0,0.0,0.0,0.0,0.0,0.0,0.0,0.0,0.0,0.0,0.0,0.0,0.0,0.0,0.0,0.0,0.0,0.0,0.0,0.0,0.0,0.0,0.0,0.0,0.0,0.0,0.0,0.0,0.0,0.0,0.0,0.0,0.0,0.0,0.0,0.0,0.0,0.0,0.0,0.0,0.0,0.0,0.0,0.0,0.0,0.0,0.0,0.0,0.0,0.0,0.0,0.0,0.0,0.0,0.0,0.0,0.0,0.0,0.0,0.0,0.0,0.0,0.0,0.0,0.0,0.0,0.0,0.0,0.0,0.0,0.0,0.0,0.0,0.0,0.0,0.0,0.0,0.0,0.0,0.0,0.0,0.0,0.0,0.0,0.0,0.0,0.0,0.0,0.0,0.0,0.0,0.0,0.0,0.0,0.0,0.0,0.0,0.0,0.0,0.0,0.0,0.0,0.0,0.0,0.0,0.0,0.0,0.0,0.0,0.0,0.0,0.0,0.0,0.0,0.0,0.0,0.0,0.0,0.0,0.0,0.0,0.0,0.0,0.0,0.0,0.0,0.0,0.0,0.0,0.0,0.0,0.0,0.0,0.0,0.0,0.0,0.0,0.0,0.0,0.0,0.0,0.0,0.0,0.0,0.0,0.0,0.0,0.0,0.0,0.0,0.0,0.0,0.0,0.0,0.0,0.0,0.0,0.0,0.0,0.0,0.0,0.0,0.0,0.0,0.0,0.0,0.0,0.0,0.0,0.0,0.0,0.0,0.0,0.0,0.0,0.0,0.0,0.0,0.0,0.0,0.0,0.0,0.0,0.0,0.0,0.0,0.0,0.0,0.0,0.0,0.0,0.0,0.0,0.0,0.0,0.0,0.0,0.0,0.0,0.0,0.0,0.0,0.0,0.0,0.0,0.0,0.0,0.0,0.0,0.0,0.0,0.0,0.0,0.0,0.0,0.0,0.0,0.0,0.0,0.0,0.0,0.0,0.0,0.0,0.0,0.0,0.0,0.0,0.0,0.0,0.0,0.0,0.0,0.0,0.0,2.1293,0.0,0.0,0.0,0.0,0.0,0.0,0.0,0.0,0.0,0.0,0.0,0.0,0.0,0.0,0.0,0.0,0.0,0.0,0.0,0.0,0.0,0.0,0.0,0.0,0.0,0.0,0.0,0.0,0.0,0.0,0.0,0.0,0.0,0.0,0.0,0.0,0.0,0.0,0.0,0.0,0.0,0.0,0.0,0.0,0.0,0.0,0.0,0.0,0.0,0.0,0.0,0.0,0.0,0.0,0.0,0.0,0.0,0.0,0.0,0.0,0.0,0.0,0.0,0.0,0.0,0.0,0.0,0.0,0.0,0.0,0.0,0.0,0.0,0.0,0.0,0.0,0.0,0.0,0.0,0.0,0.0,0.0,0.0,0.0,0.0,0.0,0.0,0.0,0.0,0.0,0.0,0.0,0.0,0.0,0.0,0.0,0.0,0.0,0.0,0.0,0.0,0.0,0.0,0.0,0.0,0.0,0.0,0.0,0.0,0.0,2.1309,2.1309,2.1309,2.1309,2.1309,0.0,0.0,0.0,0.0,0.0,0.0,0.0,0.0,0.0,0.0,0.0,0.0,0.0,0.0,0.0,0.0,0.0,0.0,0.0,0.0,0.0,0.0,0.0,0.0,0.0,0.0,0.0,0.0,0.0,0.0,0.0,0.0,0.0,0.0,0.0,0.0,0.0,0.0,0.0,0.0,0.0,0.0,0.0,0.0,0.0,0.0,0.0,0.0,0.0,0.0,0.0,0.0,0.0,0.0,0.0,0.0,0.0,0.0,0.0,0.0,0.0,0.0,0.0,0.0,0.0,0.0,0.0,0.0,0.0,0.0,0.0,0.0,0.0,0.0,0.0,0.0,0.0,0.0,0.0,0.0,0.0,0.0,0.0,0.0,0.0,0.0,0.0,0.0,0.0,0.0,0.0,0.0,0.0,0.0,0.0,0.0,0.0,0.0,0.0,0.0,0.0,0.0,0.0,0.0,0.0,0.0,0.0,0.0,0.0,0.0,0.0,0.0,2.1552,2.1544,2.1536,0.0,0.0,0.0,0.0,0.0,0.0,0.0,0.0,0.0,0.0,0.0,0.0,0.0,0.0,0.0,0.0,0.0,0.0,0.0,0.0,0.0,0.0,0.0,0.0,0.0,0.0,0.0,0.0,0.0,0.0,0.0,0.0,0.0,0.0,0.0,0.0,0.0,0.0,0.0,0.0,0.0,0.0,0.0,0.0,0.0,0.0,0.0,0.0,0.0,0.0,0.0,0.0,0.0,0.0,0.0,0.0,0.0,0.0,0.0,0.0,0.0,0.0,0.0,0.0,0.0,0.0,0.0,0.0,0.0,0.0,0.0,0.0,0.0,0.0,0.0,0.0,0.0,0.0,0.0,0.0,0.0,0.0,0.0,0.0,0.0,0.0,0.0,0.0,0.0,0.0,0.0,0.0,0.0,0.0,0.0,0.0,0.0,0.0,0.0,0.0,0.0,0.0,0.0,0.0,0.0,0.0,0.0,0.0,0.0,0.0,2.1609,2.2264,2.2297,0.0,2.2232,0.0,0.0,0.0,0.0,0.0,0.0,0.0,0.0,0.0,0.0,0.0,0.0,0.0,0.0,0.0,0.0,0.0,0.0,0.0,0.0,0.0,0.0,0.0,0.0,0.0,0.0,0.0,0.0,0.0,0.0,0.0,0.0,0.0,0.0,0.0,0.0,0.0,0.0,0.0,0.0,0.0,0.0,0.0,0.0,0.0,0.0,0.0,0.0,0.0,0.0,0.0,0.0,0.0,0.0,0.0,0.0,0.0,0.0,0.0,0.0,0.0,0.0,0.0,0.0,0.0,0.0,0.0,0.0,0.0,0.0,0.0,0.0,0.0,0.0,0.0,0.0,0.0,0.0,0.0,0.0,0.0,0.0,0.0,0.0,0.0,0.0,0.0,0.0,0.0,0.0,0.0,0.0,0.0,0.0,0.0,0.0,0.0,0.0,0.0,0.0,0.0,0.0,0.0,0.0,0.0,0.0,0.0,0.0,0.0,0.0,2.2297,2.3042,2.2629,2.2394,0.0,0.0,0.0,0.0,0.0,0.0,0.0,0.0,0.0,0.0,0.0,0.0,0.0,0.0,0.0,0.0,0.0,0.0,0.0,0.0,0.0,0.0,0.0,0.0,0.0,0.0,0.0,0.0,0.0,0.0,0.0,0.0,0.0,0.0,0.0,0.0,0.0,0.0,0.0,0.0,0.0,0.0,0.0,0.0,0.0,0.0,0.0,0.0,0.0,0.0,0.0,0.0,0.0,0.0,0.0,0.0,0.0,0.0,0.0,0.0,0.0,0.0,0.0,0.0,0.0,0.0,0.0,0.0,0.0,0.0,0.0,0.0,0.0,0.0,0.0,0.0,0.0,0.0,0.0,0.0,0.0,0.0,0.0,0.0,0.0,0.0,0.0,0.0,0.0,0.0,0.0,0.0,0.0,0.0,0.0,0.0,0.0,0.0,0.0,0.0,0.0,0.0,0.0,0.0,0.0,0.0,0.0,0.0,0.0,0.0,2.2094,2.2451,2.3139,2.2872,2.2515,2.2094,0.0,0.0,0.0,0.0,0.0,0.0,0.0,0.0,0.0,0.0,0.0,0.0,0.0,0.0,0.0,0.0,0.0,0.0,0.0,0.0,0.0,0.0,0.0,0.0,0.0,0.0,0.0,0.0,0.0,0.0,0.0,0.0,0.0,0.0,0.0,0.0,0.0,0.0,0.0,0.0,0.0,0.0,0.0,0.0,0.0,0.0,0.0,0.0,0.0,0.0,0.0,0.0,0.0,0.0,0.0,0.0,0.0,0.0,0.0,0.0,0.0,0.0,0.0,0.0,0.0,0.0,0.0,0.0,0.0,0.0,0.0,0.0,0.0,0.0,0.0,0.0,0.0,0.0,0.0,0.0,0.0,0.0,0.0,0.0,0.0,0.0,0.0,0.0,0.0,0.0,0.0,0.0,0.0,0.0,0.0,0.0,0.0,0.0,0.0,0.0,0.0,0.0,0.0,0.0,0.0,0.0,0.0,0.0,2.1382,2.1374,2.1722,2.2475,2.3098,2.2791,0.0,0.0,0.0,0.0,0.0,0.0,0.0,0.0,0.0,0.0,0.0,0.0,0.0,0.0,0.0,0.0,0.0,0.0,0.0,0.0,0.0,0.0,0.0,0.0,0.0,0.0,0.0,0.0,0.0,0.0,0.0,0.0,0.0,0.0,0.0,0.0,0.0,0.0,0.0,0.0,0.0,0.0,0.0,0.0,0.0,0.0,0.0,0.0,0.0,0.0,0.0,0.0,0.0,0.0,0.0,0.0,0.0,0.0,0.0,0.0,0.0,0.0,0.0,0.0,0.0,0.0,0.0,0.0,0.0,0.0,0.0,0.0,0.0,0.0,0.0,0.0,0.0,0.0,0.0,0.0,0.0,0.0,0.0,0.0,0.0,0.0,0.0,0.0,0.0,0.0,0.0,0.0,0.0,0.0,0.0,0.0,0.0,0.0,0.0,0.0,0.0,0.0,0.0,0.0,0.0,0.0,0.0,0.0,0.0,2.1997,2.2475,2.3034,2.3698,2.3147,2.2329,0.0,0.0,0.0,0.0,0.0,0.0,0.0,0.0,0.0,0.0,0.0,0.0,0.0,0.0,0.0,0.0,0.0,0.0,0.0,0.0,0.0,0.0,0.0,0.0,0.0,0.0,0.0,0.0,0.0,0.0,0.0,0.0,0.0,0.0,0.0,0.0,0.0,0.0,0.0,0.0,0.0,0.0,0.0,0.0,0.0,0.0,0.0,0.0,0.0,0.0,0.0,0.0,0.0,0.0,0.0,0.0,0.0,0.0,0.0,0.0,0.0,0.0,0.0,0.0,0.0,0.0,0.0,0.0,0.0,0.0,0.0,0.0,0.0,0.0,0.0,0.0,0.0,0.0,0.0,0.0,0.0,0.0,0.0,0.0,0.0,0.0,0.0,0.0,0.0,0.0,0.0,0.0,0.0,0.0,0.0,0.0,0.0,0.0,0.0,0.0,0.0,0.0,0.0,0.0,0.0,0.0,0.0,0.0,0.0,2.2369,0.0,2.3609,0.0,2.3131,2.2078,0.0,0.0,0.0,0.0,0.0,0.0,0.0,0.0,0.0,0.0,0.0,0.0,0.0,0.0,0.0,0.0,0.0,0.0,0.0,0.0,0.0,0.0,0.0,0.0,0.0,0.0,0.0,0.0,0.0,0.0,0.0,0.0,0.0,0.0,0.0,0.0,0.0,0.0,0.0,0.0,0.0,0.0,0.0,0.0,0.0,0.0,0.0,0.0,0.0,0.0,0.0,0.0,0.0,0.0,0.0,0.0,0.0,0.0,0.0,0.0,0.0,0.0,0.0,0.0,0.0,0.0,0.0,0.0,0.0,0.0,0.0,0.0,0.0,0.0,0.0,0.0,0.0,0.0,0.0,0.0,0.0,0.0,0.0,0.0,0.0,0.0,0.0,0.0,0.0,0.0,0.0,0.0,0.0,0.0,0.0,0.0,0.0,0.0,0.0,0.0,0.0,0.0,0.0,0.0,0.0,0.0,0.0,0.0,2.1552,2.2402,2.3115,2.3187,2.2483,2.309,2.2135,0.0,0.0,0.0,0.0,0.0,0.0,0.0,0.0,0.0,0.0,0.0,0.0,0.0,0.0,0.0,0.0,0.0,0.0,0.0,0.0,0.0,0.0,0.0,0.0,0.0,0.0,0.0,0.0,0.0,0.0,0.0,0.0,0.0,0.0,0.0,0.0,0.0,0.0,0.0,0.0,0.0,0.0,0.0,0.0,0.0,0.0,0.0,0.0,0.0,0.0,0.0,0.0,0.0,0.0,0.0,0.0,0.0,0.0,0.0,0.0,0.0,0.0,0.0,0.0,0.0,0.0,0.0,0.0,0.0,0.0,0.0,0.0,0.0,0.0,0.0,0.0,0.0,0.0,0.0,0.0,0.0,0.0,0.0,0.0,0.0,0.0,0.0,0.0,0.0,0.0,0.0,0.0,0.0,0.0,0.0,0.0,0.0,0.0,0.0,0.0,0.0,0.0,0.0,0.0,0.0,0.0,0.0,0.0,0.0,2.2926,2.3125,2.3348,2.3606,2.2953,2.1964,0.0,0.0,0.0,0.0,0.0,0.0,0.0,0.0,0.0,0.0,0.0,0.0,0.0,0.0,0.0,0.0,0.0,0.0,0.0,0.0,0.0,0.0,0.0,0.0,0.0,0.0,0.0,0.0,0.0,0.0,0.0,0.0,0.0,0.0,0.0,0.0,0.0,0.0,0.0,0.0,0.0,0.0,0.0,0.0,0.0,0.0,0.0,0.0,0.0,0.0,0.0,0.0,0.0,0.0,0.0,0.0,0.0,0.0,0.0,0.0,0.0,0.0,0.0,0.0,0.0,0.0,0.0,0.0,0.0,0.0,0.0,0.0,0.0,0.0,0.0,0.0,0.0,0.0,0.0,0.0,0.0,0.0,0.0,0.0,0.0,0.0,0.0,0.0,0.0,0.0,0.0,0.0,0.0,0.0,0.0,0.0,0.0,0.0,0.0,0.0,0.0,0.0,0.0,0.0,0.0,0.0,0.0,0.0,0.0,2.4265,2.4011,2.4075,2.4559,2.3752,2.2661,2.1295,0.0,0.0,0.0,0.0,0.0,0.0,0.0,0.0,0.0,0.0,0.0,0.0,0.0,0.0,0.0,0.0,0.0,0.0,0.0,0.0,0.0,0.0,0.0,0.0,0.0,0.0,0.0,0.0,0.0,0.0,0.0,0.0,0.0,0.0,0.0,0.0,0.0,0.0,0.0,0.0,0.0,0.0,0.0,0.0,0.0,0.0,0.0,0.0,0.0,0.0,0.0,0.0,0.0,0.0,0.0,0.0,0.0,0.0,0.0,0.0,0.0,0.0,0.0,0.0,0.0,0.0,0.0,0.0,0.0,0.0,0.0,0.0,0.0,0.0,0.0,0.0,0.0,0.0,0.0,0.0,0.0,0.0,0.0,0.0,0.0,0.0,0.0,0.0,0.0,0.0,0.0,0.0,0.0,0.0,0.0,0.0,0.0,0.0,0.0,0.0,0.0,0.0,0.0,0.0,0.0,0.0,0.0,0.0,2.6214,2.5671,2.5389,2.5418,2.5326,2.4058,0.0,0.0,0.0,0.0,0.0,0.0,0.0,0.0,0.0,0.0,0.0,0.0,0.0,0.0,0.0,0.0,0.0,0.0,0.0,0.0,0.0,0.0,0.0,0.0,0.0,0.0,0.0,0.0,0.0,0.0,0.0,0.0,0.0,0.0,0.0,0.0,0.0,0.0,0.0,0.0,0.0,0.0,0.0,0.0,0.0,0.0,0.0,0.0,0.0,0.0,0.0,0.0,0.0,0.0,0.0,0.0,0.0,0.0,0.0,0.0,0.0,0.0,0.0,0.0,0.0,0.0,0.0,0.0,0.0,0.0,0.0,0.0,0.0,0.0,0.0,0.0,0.0,0.0,0.0,0.0,0.0,0.0,0.0,0.0,0.0,0.0,0.0,0.0,0.0,0.0,0.0,0.0,0.0,0.0,0.0,0.0,0.0,0.0,0.0,0.0,0.0,0.0,0.0,0.0,0.0,0.0,0.0,0.0,0.0,2.6505,2.7942,2.8365,2.7636,2.6677,2.5355,0.0,0.0,0.0,0.0,0.0,0.0,0.0,0.0,0.0,0.0,0.0,0.0,0.0,0.0,0.0,0.0,0.0,0.0,0.0,0.0,0.0,0.0,0.0,0.0,0.0,0.0,0.0,0.0,0.0,0.0,0.0,0.0,0.0,0.0,0.0,0.0,0.0,0.0,0.0,0.0,0.0,0.0,0.0,0.0,0.0,0.0,0.0,0.0,0.0,0.0,0.0,0.0,0.0,0.0,0.0,0.0,0.0,0.0,0.0,0.0,0.0,0.0,0.0,0.0,0.0,0.0,0.0,0.0,0.0,0.0,0.0,0.0,0.0,0.0,0.0,0.0,0.0,0.0,0.0,0.0,0.0,0.0,0.0,0.0,0.0,0.0,0.0,0.0,0.0,0.0,0.0,0.0,0.0,0.0,0.0,0.0,0.0,0.0,0.0,0.0,0.0,0.0,0.0,0.0,0.0,0.0,0.0,0.0,2.6895,2.8105,2.9961,3.0706,3.0227,2.8634,2.7005,0.0,0.0,0.0,0.0,0.0,0.0,0.0,0.0,0.0,0.0,0.0,0.0,0.0,0.0,0.0,0.0,0.0,0.0,0.0,0.0,0.0,0.0,0.0,0.0,0.0,0.0,0.0,0.0,0.0,0.0,0.0,0.0,0.0,0.0,0.0,0.0,0.0,0.0,0.0,0.0,0.0,0.0,0.0,0.0,0.0,0.0,0.0,0.0,0.0,0.0,0.0,0.0,0.0,0.0,0.0,0.0,0.0,0.0,0.0,0.0,0.0,0.0,0.0,0.0,0.0,0.0,0.0,0.0,0.0,0.0,0.0,0.0,0.0,0.0,0.0,0.0,0.0,0.0,0.0,0.0,0.0,0.0,0.0,0.0,0.0,0.0,0.0,0.0,0.0,0.0,0.0,0.0,0.0,0.0,0.0,0.0,0.0,0.0,0.0,0.0,0.0,0.0,0.0,0.0,0.0,0.0,0.0,0.0,2.8415,3.0418,3.1836,3.2663,3.276,3.0746,2.8726,0.0,0.0,0.0,0.0,0.0,0.0,0.0,0.0,0.0,0.0,0.0,0.0,0.0,0.0,0.0,0.0,0.0,0.0,0.0,0.0,0.0,0.0,0.0,0.0,0.0,0.0,0.0,0.0,0.0,0.0,0.0,0.0,0.0,0.0,0.0,0.0,0.0,0.0,0.0,0.0,0.0,0.0,0.0,0.0,0.0,0.0,0.0,0.0,0.0,0.0,0.0,0.0,0.0,0.0,0.0,0.0,0.0,0.0,0.0,0.0,0.0,0.0,0.0,0.0,0.0,0.0,0.0,0.0,0.0,0.0,0.0,0.0,0.0,0.0,0.0,0.0,0.0,0.0,0.0,0.0,0.0,0.0,0.0,0.0,0.0,0.0,0.0,0.0,0.0,0.0,0.0,0.0,0.0,0.0,0.0,0.0,0.0,0.0,0.0,0.0,0.0,0.0,0.0,0.0,0.0,0.0,0.0,0.0,3.0854,3.1996,3.3992,3.4822,3.4331,3.171,2.9399,0.0,0.0,0.0,0.0,0.0,0.0,0.0,0.0,0.0,0.0,0.0,0.0,0.0,0.0,0.0,0.0,0.0,0.0,0.0,0.0,0.0,0.0,0.0,0.0,0.0,0.0,0.0,0.0,0.0,0.0,0.0,0.0,0.0,0.0,0.0,0.0,0.0,0.0,0.0,0.0,0.0,0.0,0.0,0.0,0.0,0.0,0.0,0.0,2.8075,0.0,0.0,0.0,0.0,0.0,0.0,0.0,0.0,0.0,0.0,0.0,0.0,0.0,0.0,0.0,0.0,0.0,0.0,0.0,0.0,0.0,0.0,0.0,0.0,0.0,0.0,0.0,0.0,0.0,0.0,0.0,0.0,0.0,0.0,0.0,0.0,0.0,0.0,0.0,0.0,0.0,0.0,0.0,0.0,0.0,0.0,0.0,0.0,0.0,0.0,0.0,0.0,0.0,0.0,0.0,0.0,0.0,0.0,0.0,3.1441,3.2557,3.4282,3.4918,3.4327,3.2247,3.0358,0.0,0.0,0.0,0.0,0.0,0.0,0.0,0.0,0.0,0.0,0.0,0.0,0.0,0.0,0.0,0.0,0.0,0.0,0.0,0.0,0.0,0.0,0.0,0.0,0.0,0.0,0.0,0.0,0.0,0.0,0.0,0.0,0.0,0.0,0.0,0.0,0.0,0.0,0.0,0.0,0.0,0.0,0.0,0.0,0.0,0.0,0.0,0.0,0.0,0.0,0.0,0.0,0.0,0.0,0.0,0.0,0.0,0.0,0.0,0.0,0.0,0.0,0.0,0.0,0.0,0.0,0.0,0.0,0.0,0.0,0.0,0.0,0.0,0.0,0.0,0.0,0.0,0.0,0.0,0.0,0.0,0.0,0.0,0.0,0.0,0.0,0.0,0.0,0.0,0.0,0.0,0.0,0.0,0.0,0.0,0.0,0.0,0.0,0.0,0.0,0.0,0.0,0.0,0.0,0.0,0.0,0.0,2.9538,3.1631,3.3064,3.4298,3.471,3.4274,3.2677,3.1154,2.9761,0.0,0.0,0.0,0.0,0.0,0.0,0.0,0.0,0.0,0.0,0.0,0.0,0.0,0.0,0.0,0.0,0.0,0.0,0.0,0.0,0.0,0.0,0.0,0.0,0.0,0.0,0.0,0.0,0.0,0.0,0.0,0.0,0.0,0.0,0.0,0.0,0.0,0.0,2.7502,2.913,0.0,0.0,0.0,0.0,0.0,0.0,0.0,0.0,2.9265,0.0,0.0,0.0,0.0,0.0,0.0,0.0,0.0,0.0,0.0,0.0,0.0,0.0,0.0,0.0,0.0,0.0,0.0,0.0,0.0,0.0,0.0,0.0,0.0,0.0,0.0,0.0,0.0,0.0,0.0,0.0,0.0,0.0,0.0,0.0,0.0,0.0,0.0,0.0,0.0,0.0,0.0,0.0,0.0,0.0,0.0,0.0,0.0,0.0,0.0,0.0,0.0,0.0,0.0,0.0,0.0,2.7673,3.0718,3.3264,3.5225,3.6295,3.6545,3.5862,3.3339,3.1015,2.8989,0.0,0.0,0.0,0.0,0.0,0.0,0.0,0.0,0.0,0.0,0.0,0.0,0.0,0.0,0.0,0.0,0.0,0.0,0.0,0.0,0.0,0.0,0.0,0.0,0.0,0.0,0.0,0.0,0.0,0.0,0.0,0.0,0.0,0.0,0.0,0.0,0.0,0.0,0.0,3.046,3.1078,0.0,0.0,0.0,0.0,0.0,0.0,0.0,0.0,2.9903,0.0,0.0,0.0,0.0,0.0,0.0,0.0,0.0,0.0,0.0,0.0,0.0,0.0,0.0,0.0,0.0,0.0,0.0,0.0,0.0,0.0,0.0,0.0,0.0,0.0,0.0,0.0,0.0,0.0,0.0,0.0,0.0,0.0,0.0,0.0,0.0,0.0,0.0,0.0,0.0,0.0,0.0,0.0,0.0,0.0,0.0,0.0,0.0,0.0,0.0,0.0,0.0,0.0,0.0,0.0,2.8155,3.1026,3.3421,3.5254,3.5998,3.6204,3.5794,3.2908,3.029,0.0,0.0,0.0,0.0,0.0,0.0,0.0,0.0,0.0,0.0,0.0,0.0,0.0,0.0,0.0,0.0,0.0,0.0,0.0,0.0,0.0,0.0,0.0,0.0,0.0,0.0,0.0,0.0,0.0,0.0,0.0,0.0,0.0,0.0,0.0,0.0,0.0,0.0,0.0,0.0,3.1439,3.2394,3.2941,0.0,0.0,0.0,0.0,0.0,0.0,3.1748,3.1386,0.0,0.0,0.0,0.0,0.0,0.0,0.0,0.0,0.0,0.0,0.0,0.0,0.0,0.0,0.0,0.0,0.0,0.0,0.0,0.0,0.0,0.0,0.0,0.0,0.0,0.0,0.0,0.0,0.0,0.0,0.0,0.0,0.0,0.0,0.0,0.0,0.0,0.0,0.0,0.0,0.0,0.0,0.0,0.0,0.0,0.0,0.0,0.0,0.0,0.0,0.0,0.0,0.0,0.0,0.0,2.8264,3.1137,3.3393,3.5018,3.547,3.5631,3.55,3.2315,2.9533,0.0,0.0,0.0,0.0,0.0,0.0,0.0,0.0,0.0,0.0,0.0,0.0,0.0,0.0,0.0,0.0,0.0,0.0,0.0,0.0,0.0,0.0,0.0,0.0,0.0,0.0,0.0,0.0,0.0,0.0,0.0,0.0,0.0,0.0,0.0,0.0,0.0,0.0,0.0,0.0,0.0,3.3734,3.3933,3.4792,0.0,0.0,0.0,0.0,3.3473,3.349,0.0,0.0,0.0,0.0,0.0,0.0,0.0,0.0,0.0,0.0,0.0,0.0,0.0,0.0,0.0,0.0,0.0,0.0,0.0,0.0,0.0,0.0,0.0,0.0,0.0,0.0,0.0,0.0,0.0,0.0,0.0,0.0,0.0,0.0,0.0,0.0,0.0,0.0,0.0,0.0,0.0,0.0,0.0,0.0,0.0,0.0,0.0,0.0,0.0,0.0,0.0,0.0,0.0,0.0,0.0,0.0,2.7897,3.1454,3.4061,3.5626,3.6041,3.6193,3.6131,3.2164,2.9253,0.0,0.0,0.0,0.0,0.0,0.0,0.0,0.0,0.0,0.0,0.0,0.0,0.0,0.0,0.0,0.0,0.0,0.0,0.0,0.0,0.0,0.0,0.0,0.0,0.0,0.0,0.0,0.0,0.0,0.0,0.0,0.0,0.0,0.0,0.0,0.0,0.0,0.0,0.0,0.0,0.0,3.4797,3.5758,3.6044,3.588,0.0,0.0,3.5042,3.4938,3.5473,0.0,0.0,0.0,0.0,0.0,0.0,0.0,0.0,0.0,0.0,0.0,0.0,0.0,0.0,0.0,0.0,0.0,0.0,0.0,0.0,0.0,0.0,0.0,0.0,0.0,0.0,0.0,0.0,0.0,0.0,0.0,0.0,0.0,0.0,0.0,0.0,0.0,0.0,0.0,0.0,0.0,0.0,0.0,0.0,0.0,0.0,0.0,0.0,0.0,0.0,0.0,0.0,0.0,0.0,0.0,2.5958,2.817,3.1631,3.4004,3.523,3.5279,3.545,3.5783,3.202,2.9208,0.0,0.0,0.0,0.0,0.0,0.0,0.0,0.0,0.0,0.0,0.0,0.0,0.0,0.0,0.0,0.0,0.0,0.0,0.0,0.0,0.0,0.0,0.0,0.0,0.0,0.0,0.0,0.0,0.0,0.0,0.0,0.0,0.0,0.0,0.0,0.0,0.0,0.0,0.0,0.0,0.0,0.0,3.6738,3.7615,0.0,0.0,0.0,3.7139,3.7122,0.0,0.0,0.0,0.0,0.0,0.0,0.0,0.0,0.0,0.0,0.0,0.0,0.0,0.0,0.0,0.0,0.0,0.0,0.0,0.0,0.0,0.0,0.0,0.0,0.0,0.0,0.0,0.0,0.0,0.0,0.0,0.0,0.0,0.0,0.0,0.0,0.0,0.0,0.0,0.0,0.0,0.0,0.0,0.0,0.0,0.0,0.0,0.0,0.0,0.0,0.0,0.0,0.0,0.0,0.0,0.0,0.0,2.8755,3.206,3.4257,3.5228,3.4902,3.4983,3.5413,3.2045,0.0,0.0,0.0,0.0,0.0,0.0,0.0,0.0,0.0,0.0,0.0,0.0,0.0,0.0,0.0,0.0,0.0,0.0,0.0,0.0,0.0,0.0,0.0,0.0,0.0,0.0,0.0,2.1293,0.0,0.0,0.0,0.0,0.0,0.0,0.0,0.0,0.0,0.0,0.0,0.0,0.0,0.0,3.7245,3.7796,3.8906,3.9503,0.0,0.0,3.8813,3.864,3.7967,3.7198,0.0,0.0,0.0,0.0,0.0,0.0,0.0,0.0,0.0,0.0,0.0,0.0,0.0,0.0,0.0,0.0,0.0,0.0,0.0,0.0,0.0,0.0,0.0,0.0,0.0,0.0,0.0,0.0,0.0,0.0,0.0,0.0,0.0,0.0,0.0,0.0,0.0,0.0,0.0,0.0,0.0,0.0,0.0,0.0,0.0,0.0,0.0,0.0,0.0,0.0,0.0,0.0,0.0,0.0,2.7442,2.9718,3.3057,3.529,3.6223,3.567,3.5492,3.5703,3.2317,2.9922,0.0,0.0,0.0,0.0,0.0,0.0,0.0,0.0,0.0,0.0,0.0,0.0,0.0,0.0,0.0,0.0,0.0,0.0,0.0,0.0,0.0,0.0,0.0,0.0,0.0,0.0,0.0,0.0,0.0,0.0,0.0,0.0,0.0,0.0,0.0,0.0,0.0,0.0,0.0,0.0,0.0,3.774,3.9227,3.9589,3.9681,0.0,3.9612,3.9388,3.8698,3.971,3.9623,3.6784,0.0,0.0,0.0,0.0,0.0,0.0,0.0,0.0,0.0,0.0,0.0,0.0,0.0,0.0,0.0,0.0,0.0,0.0,0.0,0.0,0.0,0.0,0.0,0.0,0.0,0.0,0.0,0.0,0.0,0.0,0.0,0.0,0.0,0.0,0.0,0.0,0.0,0.0,0.0,0.0,0.0,0.0,0.0,0.0,0.0,0.0,0.0,0.0,0.0,0.0,0.0,0.0,0.0,2.7843,2.9562,3.35,3.5702,3.6054,3.5834,3.5547,3.5235,3.324,3.093,0.0,0.0,0.0,0.0,0.0,0.0,0.0,0.0,0.0,0.0,0.0,0.0,0.0,0.0,0.0,0.0,0.0,0.0,0.0,0.0,0.0,0.0,0.0,0.0,0.0,0.0,0.0,0.0,2.512,2.6089,2.6857,0.0,0.0,0.0,0.0,0.0,0.0,0.0,0.0,0.0,0.0,3.9598,4.03,4.0807,0.0,0.0,4.0727,4.0348,4.0066,4.0089,3.9761,3.8588,3.7898,0.0,0.0,0.0,0.0,0.0,0.0,0.0,0.0,0.0,0.0,0.0,0.0,0.0,0.0,0.0,0.0,0.0,0.0,0.0,0.0,0.0,0.0,0.0,0.0,0.0,0.0,0.0,0.0,0.0,0.0,0.0,0.0,0.0,0.0,0.0,0.0,0.0,0.0,0.0,0.0,0.0,0.0,0.0,0.0,0.0,0.0,0.0,0.0,0.0,0.0,0.0,0.0,2.8273,2.9997,3.3624,3.5682,3.6055,3.5883,3.563,3.532,3.3947,3.1915,0.0,0.0,0.0,0.0,0.0,0.0,0.0,0.0,0.0,0.0,0.0,0.0,0.0,0.0,0.0,0.0,0.0,0.0,0.0,0.0,0.0,0.0,0.0,0.0,0.0,0.0,0.0,0.0,2.5866,2.6841,2.7827,0.0,0.0,0.0,0.0,0.0,0.0,0.0,0.0,0.0,0.0,4.1206,4.1526,4.2033,4.2366,4.2361,4.193,4.1602,4.1585,4.0917,4.0313,4.0106,0.0,0.0,0.0,0.0,0.0,0.0,0.0,0.0,0.0,0.0,0.0,0.0,0.0,0.0,0.0,0.0,0.0,0.0,0.0,0.0,0.0,0.0,0.0,0.0,0.0,0.0,0.0,1.9795,0.0,0.0,1.9046,0.0,0.0,0.0,0.0,0.0,0.0,0.0,0.0,0.0,0.0,0.0,0.0,0.0,0.0,0.0,0.0,0.0,0.0,0.0,0.0,0.0,0.0,2.8719,3.1318,3.3502,3.5213,3.6415,3.586,3.5806,3.6255,3.4311,3.28,3.1823,0.0,0.0,0.0,0.0,0.0,0.0,0.0,0.0,0.0,0.0,0.0,0.0,0.0,0.0,0.0,0.0,0.0,0.0,0.0,0.0,0.0,0.0,0.0,0.0,0.0,0.0,2.5888,2.701,2.8035,0.0,0.0,0.0,0.0,0.0,0.0,0.0,0.0,0.0,0.0,4.0961,4.2263,4.3017,4.3167,4.3172,4.3155,4.3138,4.312,4.3116,4.2465,4.1711,0.0,0.0,0.0,0.0,0.0,0.0,0.0,0.0,0.0,0.0,0.0,0.0,0.0,0.0,0.0,0.0,0.0,0.0,0.0,0.0,0.0,0.0,0.0,0.0,0.0,0.0,0.0,2.4057,2.3447,0.0,0.0,0.0,0.0,0.0,0.0,0.0,0.0,0.0,0.0,0.0,2.7891,2.81,0.0,0.0,0.0,0.0,0.0,0.0,0.0,0.0,0.0,0.0,0.0,0.0,2.9599,3.1441,3.454,3.6381,3.6816,3.6614,3.6347,3.6087,3.4958,3.3053,3.0355,0.0,0.0,0.0,0.0,0.0,0.0,0.0,0.0,0.0,0.0,0.0,0.0,0.0,0.0,0.0,0.0,0.0,0.0,0.0,0.0,0.0,0.0,0.0,0.0,0.0,2.6942,0.0,0.0,0.0,0.0,0.0,0.0,0.0,0.0,0.0,0.0,0.0,3.9462,4.1007,4.2531,4.3638,4.3897,4.3931,4.3914,0.0,0.0,0.0,0.0,0.0,0.0,0.0,0.0,0.0,0.0,0.0,0.0,0.0,0.0,4.2975,4.1222,4.1101,4.105,4.0244,0.0,0.0,0.0,0.0,0.0,0.0,0.0,0.0,0.0,0.0,0.0,0.0,0.0,0.0,2.6974,0.0,2.6111,0.0,0.0,0.0,0.0,0.0,0.0,0.0,0.0,3.0194,3.0999,3.0943,3.1156,3.1182,0.0,3.0598,2.9113,0.0,0.0,0.0,0.0,0.0,0.0,0.0,0.0,3.0535,3.2148,3.4989,3.6583,3.6816,3.6831,3.669,3.6415,3.5501,3.3654,3.0791,2.9474,2.7808,0.0,0.0,0.0,0.0,0.0,0.0,0.0,0.0,0.0,0.0,0.0,0.0,0.0,0.0,0.0,0.0,0.0,0.0,0.0,0.0,0.0,0.0,0.0,2.8165,0.0,0.0,0.0,0.0,0.0,0.0,0.0,0.0,0.0,3.8675,4.021,4.178,4.3009,4.4298,4.5092,4.5092,0.0,0.0,0.0,0.0,0.0,0.0,0.0,4.4626,4.5368,4.5488,4.5661,4.6178,4.6282,4.6523,4.7255,0.0,0.0,4.4488,4.4195,4.4126,4.332,4.3832,4.4242,4.3699,4.4229,4.4764,0.0,0.0,0.0,0.0,0.0,0.0,0.0,0.0,2.9866,2.9226,0.0,2.8724,0.0,0.0,0.0,0.0,0.0,3.0689,0.0,0.0,3.4065,3.4694,3.3398,3.3933,3.3918,3.3336,3.3245,3.2878,3.2098,2.9021,0.0,0.0,0.0,0.0,0.0,0.0,3.1432,3.3398,3.4844,3.586,3.6476,3.6507,3.6754,3.7247,3.5968,3.458,3.3165,3.179,3.0047,2.7937,2.717,0.0,0.0,0.0,0.0,0.0,0.0,0.0,0.0,0.0,0.0,0.0,0.0,0.0,0.0,0.0,0.0,0.0,0.0,0.0,0.0,2.8431,0.0,0.0,0.0,0.0,0.0,0.0,0.0,0.0,0.0,0.0,4.1262,4.3022,4.4643,4.5363,0.0,0.0,0.0,0.0,4.6893,4.76,4.7738,4.772,4.7738,4.7169,4.6945,4.7686,0.0,0.0,4.9786,5.0045,5.0203,5.0979,5.0996,4.9979,4.6362,4.6376,4.6583,4.588,4.6358,4.6755,4.6807,4.7376,4.7841,3.2944,0.0,0.0,0.0,0.0,3.1703,3.2432,3.2864,3.3938,3.3647,3.2396,3.2188,0.0,0.0,0.0,0.0,0.0,0.0,3.3233,3.3588,3.4891,3.5537,3.5554,3.5753,3.5738,3.5538,3.5077,3.4724,3.4493,3.3109,3.134,2.9233,0.0,0.0,0.0,0.0,3.2613,3.4166,3.5522,3.6307,3.6492,3.6492,3.6445,3.6338,3.615,3.5502,3.4368,3.4093,3.2967,3.0878,2.9626,0.0,0.0,0.0,0.0,0.0,0.0,0.0,0.0,0.0,0.0,0.0,0.0,0.0,0.0,0.0,0.0,0.0,0.0,0.0,3.0023,3.0915,3.1999,0.0,0.0,0.0,0.0,0.0,0.0,0.0,0.0,0.0,4.6393,4.6182,4.6203,0.0,0.0,4.7393,4.7376,4.7393,4.7634,4.8376,4.8482,0.0,4.9252,4.9166,4.9286,5.0013,5.0565,5.1065,5.1496,5.1565,5.1634,5.1875,5.1892,5.1496,5.0599,5.0427,5.0462,5.0324,5.0444,5.0582,5.0617,5.0789,5.0893,3.7285,3.4768,3.3622,3.3321,3.3713,3.4743,3.543,3.5906,3.6795,3.6566,3.5585,3.5476,3.4477,3.2885,3.2556,0.0,0.0,0.0,3.5399,3.6091,3.6492,3.6892,3.7277,3.7292,3.7292,3.7246,3.6599,3.6307,3.6276,3.5337,3.406,3.243,0.0,0.0,3.1599,3.2675,3.3766,3.4875,3.5953,3.6492,3.6507,3.6739,3.675,3.6523,3.6648,3.6464,3.5806,3.5673,3.4894,3.3336,3.1926,3.0188,0.0,0.0,0.0,0.0,0.0,0.0,0.0,0.0,0.0,0.0,0.0,2.8175,2.9227,0.0,0.0,0.0,2.9357,3.051,3.2703,3.3792,0.0,0.0,0.0,0.0,0.0,0.0,0.0,4.5212,4.6906,4.8376,4.9531,4.9186,4.8875,4.9031,4.9048,4.9048,4.9048,0.0,4.9306,5.0033,5.0151,5.0324,5.0789,5.0875,5.1134,5.1892,5.2617,5.3082,5.3099,5.3117,5.3117,5.3117,5.3117,5.3117,5.3117,5.3117,5.2892,5.2358,5.2461,5.2668,5.2668,5.2892,5.3117,4.1276,4.0409,3.7543,3.6686,3.7288,3.748,3.7947,3.8553,3.8568,3.8215,3.7631,3.8214,3.7477,3.5753,3.5737,0.0,3.6692,3.7292,3.7877,3.8508,3.8508,3.8508,3.8508,3.8508,3.8508,3.8461,3.7877,3.7584,3.7523,3.6322,3.5737,3.5706,3.4459,3.3721,3.3614,3.4244,3.4905,3.5583,3.6199,3.6492,3.6507,3.7043,3.7358,3.7371,3.7349,3.7335,3.7344,3.6743,3.6044,3.5296,3.3951,3.223,3.0172,0.0,0.0,0.0,0.0,0.0,0.0,0.0,0.0,0.0,0.0,0.0,0.0,0.0,0.0,0.0,3.2488,0.0,3.548,3.7036,0.0,0.0,0.0,4.2561,4.5363,4.5776,4.6669,4.8723,0.0,0.0,5.1186,5.1927,5.2134,5.1461,5.1255,5.1186,5.1186,5.1176,5.1516,5.2203,5.2388,5.2453,5.2642,5.2629,5.2869,5.3561,5.4202,5.4591,5.4626,5.4643,5.4615,5.4626,5.465,5.4631,5.4634,5.4624,5.4204,5.2823,5.3042,5.3494,5.3511,5.3944,5.4341,4.2263,4.2045,4.1293,4.0493,3.9682,3.9731,3.9565,3.9276,3.9261,3.8876,3.8277,3.8414,3.8246,3.78,3.7784,3.7877,3.8031,3.82,3.8338,3.8508,3.8508,3.8508,3.8508,3.8508,3.8508,3.8508,3.8322,3.8245,3.8262,3.7954,3.7784,3.7769,3.7461,3.6522,3.506,3.5183,3.5583,3.6261,3.6415,3.6492,3.6492,3.6647,3.6953,3.7371,3.7377,3.7603,3.8104,3.7452,3.6743,3.6044,3.4635,3.3129,3.1575,3.0065,0.0,0.0,0.0,0.0,0.0,0.0,0.0,0.0,0.0,3.2019,3.3622,0.0,3.4151,0.0,3.5514,3.7234,3.933,4.0946,0.0,0.0,4.5376,4.6565,4.7858,4.9031,4.9962,5.0479,5.1737,5.2666,5.2856,5.3494,5.3891,5.3703,5.2668,5.1927,5.1944,5.2352,5.29,5.3597,5.4095,5.4628,5.51,5.5337,5.5313,5.5571,5.5734,5.5872,5.5858,5.5872,5.5872,5.5872,5.5872,5.5872,5.5844,5.5872,5.557,5.4828,5.4437,5.4236,5.422,5.4391,5.4527,4.3479,4.3513,4.3494,4.3048,4.2294,4.1691,4.1214,4.0891,4.0876,4.0661,4.0309,4.0016,3.9708,3.9399,3.9384,3.9384,3.9399,3.9399,3.9399,3.9399,3.9384,3.9399,3.9384,3.9399,3.9384,3.9384,3.9076,3.8938,3.8938,3.8645,3.8508,3.8508,3.8508,3.7954,3.6892,3.6553,3.643,3.6492,3.6492,3.6492,3.6507,3.6754,3.7028,3.7313,3.7669,3.783,3.784,3.7492,3.6985,3.6306,3.5218,3.4093,3.3056,3.1741,3.0544,0.0,0.0,0.0,0.0,0.0,0.0,0.0,0.0,0.0,0.0,0.0,3.7311,3.7655,3.9118,4.0952,4.3216,4.4505,4.5924,4.7755,4.8703,4.9634,5.0737,5.1614,5.2255,5.2582,5.3358,5.3908,5.3908,5.4253,5.4605,5.485,5.4166,5.3624,5.3669,5.4146,5.4683,5.5086,5.5421,5.5763,5.6249,5.6303,5.6303,5.6303,5.6303,5.6303,5.6303,5.6303,5.6303,5.6303,5.6303,5.6303,5.6303,5.6303,5.618,5.5887,5.5546,5.5224,5.4972,5.5104,5.5299,4.4729,4.4714,4.4637,4.4591,4.4498,4.3356,4.2799,4.2725,4.2648,4.2602,4.2571,4.1986,4.1368,4.0766,4.0751,4.0784,4.0784,4.0766,4.0766,4.0751,4.0691,4.0643,4.0645,4.0568,4.0489,4.0474,3.9922,3.9613,3.9614,3.9045,3.8753,3.8753,3.8753,3.8723,3.8599,3.8046,3.743,3.6769,3.6661,3.6615,3.663,3.7075,3.7283,3.7253,3.7932,3.7988,3.7291,3.7208,3.6904,3.6319,3.5519,3.4886,3.4422,3.3252,3.2435,0.0,3.1443,0.0,0.0,0.0,0.0,0.0,0.0,0.0,0.0,4.0209,4.0802,4.1711,4.3086,4.4816,4.6962,4.7824,4.91,5.1114,5.1393,5.1961,5.3339,5.3546,5.3818,5.4518,5.4559,5.4527,5.4586,5.4605,5.4834,5.5284,5.5504,5.5531,5.5623,5.5976,5.6291,5.6394,5.6461,5.6593,5.6607,5.6568,5.6586,5.6559,5.6612,5.6519,5.6586,5.6572,5.6546,5.6559,5.6599,5.6572,5.6519,5.6546,5.6519,5.6438,5.6452,5.6272,5.5748,5.5858,5.6276,4.5422,4.5361,4.4822,4.4591,4.4575,4.4329,4.3913,4.3374,4.2833,4.2602,4.2584,4.2461,4.234,4.2199,4.2199,4.2202,4.2217,4.2199,4.2199,4.2186,4.163,4.1401,4.1355,4.0784,4.0489,4.0489,4.0351,4.0305,4.0322,4.0199,4.012,4.0105,4.0122,3.9828,3.9322,0.0,0.0,0.0,3.7584,3.7307,3.7308,3.6971,3.6997,3.7358,3.7686,0.0,3.8109,3.7069,3.6435,3.627,3.5126,0.0,0.0,0.0,0.0,0.0,0.0,0.0,0.0,0.0,0.0,0.0,4.1364,4.1582,4.1452,4.3192,4.4893,4.6286,4.722,4.8427,5.0082,5.091,5.1772,5.2822,5.2959,5.3322,5.4185,5.4287,5.4527,5.5147,5.4821,5.4697,5.5167,5.5224,5.5284,5.5473,5.6203,5.6739,5.6765,5.6856,5.6951,5.6958,5.7296,5.7643,5.7679,5.7625,5.7565,5.7679,5.7679,5.7637,5.7613,5.7625,5.7649,5.7625,5.7679,5.7637,5.7637,5.7679,5.7462,5.7053,5.7339,5.7364,5.6371,5.6221,5.6303,4.6095,0.0,4.573,4.5572,0.0,4.5592,4.5207,4.4545,4.3882,4.3405,4.3097,4.3097,4.291,4.2602,4.2602,4.2602,4.2602,4.2602,4.2602,4.2586,4.2263,4.2094,4.2078,4.1707,4.1537,4.1522,4.1537,4.1537,4.1553,4.1537,4.1537,4.1537,4.1232,4.0861,4.0555,4.0184,3.9507,3.8523,3.8169,3.7831,3.7523,3.7515,3.7448,3.7329,3.7787,0.0,0.0,0.0,0.0,0.0,0.0,0.0,0.0,0.0,0.0,3.7501,3.7477,3.8159,3.9758,3.9923,4.0818,4.2879,4.444,4.5146,4.4733,4.6525,4.8151,4.9272,5.0065,5.0962,5.2099,5.258,5.3082,5.3823,5.396,5.4207,5.4811,5.4939,5.5179,5.5705,5.5557,5.5516,5.5819,5.5844,5.5971,5.6217,5.6713,5.7252,5.7486,5.7534,5.7565,5.7546,5.7762,5.7978,5.7978,5.7978,5.7978,5.7978,5.7978,5.7978,5.7978,5.7978,5.7978,5.7978,5.7978,5.7978,5.7978,5.7978,5.7909,5.7649,5.7785,5.7851,5.7252,5.7147,5.7134,4.6773,4.6757,4.6634,4.6603,4.6603,4.6603,4.6265,4.573,0.0,0.0,0.0,4.3778,4.3467,4.2956,4.2956,4.2971,4.2956,4.2971,4.2956,4.2956,4.2817,4.2771,4.2771,4.2645,4.2602,4.2602,4.2602,4.2602,4.2602,4.2602,4.2602,4.2556,4.2048,4.1786,4.174,4.1184,4.0337,3.9261,3.8877,3.8414,3.7892,3.8263,3.8182,3.7616,3.8159,3.8153,3.7546,3.7499,3.743,3.729,3.7003,3.7262,3.8156,3.8024,3.8472,3.9664,3.9871,4.0642,4.2288,4.2421,4.3206,4.4988,4.6958,4.8117,4.8117,4.9375,5.0562,5.1427,5.2048,5.272,5.3511,5.3598,5.3839,5.4443,5.4512,5.4697,5.5149,5.534,5.5604,5.618,5.6262,5.6415,5.6653,5.6698,5.6792,5.7201,5.7463,5.7613,5.8064,5.8072,5.7932,5.7944,5.7967,5.7978,5.7978,5.7978,5.7978,5.7978,5.7978,5.7978,5.7978,5.7978,5.7978,5.7978,5.7978,5.7978,5.7978,5.7978,5.7978,5.7978,5.7978,5.7978,5.7997,5.8125,5.8134,4.745,4.7419,4.6834,4.6603,4.6603,4.6603,4.6542,4.6357,4.5145,4.4545,4.4452,4.4452,4.4406,4.4329,4.4314,4.4329,4.4314,4.4314,4.4329,4.4283,4.3728,4.3451,4.3439,4.2879,4.2602,4.2602,4.2617,4.2602,4.2602,4.2617,4.2602,4.2599,4.2509,4.2463,4.2445,4.2371,4.2217,4.2001,4.0261,3.9322,3.9214,3.8922,3.8887,3.9156,3.8832,3.8827,3.9156,3.8602,3.8402,3.8764,3.8844,3.9322,4.0288,4.0773,4.1337,4.1988,4.2414,4.3304,4.4768,4.4888,4.5849,4.7962,4.91,4.9669,4.9717,5.0444,5.153,5.2908,5.3166,5.3546,5.4236,5.4322,5.4341,5.4494,5.4512,5.4542,5.4745,5.5199,5.5769,5.637,5.6303,5.6868,5.7823,5.8022,5.8048,5.8206,5.8531,5.8918,5.8904,5.8437,5.8033,5.7978,5.7978,5.7978,5.7978,5.7978,5.7978,5.7978,5.7978,5.7978,5.7978,5.7978,5.7978,5.7978,5.8033,5.8052,5.8033,5.7978,5.8137,5.818,5.8198,5.8143,5.818,5.8639,5.8811,4.8137,4.8091,4.7819,4.7681,4.7665,4.7296,4.7142,4.705,4.6111,4.5464,4.516,4.5126,4.4945,4.4606,4.4591,4.4591,4.4591,4.4591,4.4591,4.4575,4.4302,4.4129,4.4113,4.3836,4.3698,4.3679,4.3679,4.3698,4.3664,4.3682,4.3698,4.3648,4.3328,4.2956,4.2633,4.2602,4.2602,4.2586,4.1645,4.0814,4.0076,4.019,4.0224,4.0103,4.0177,4.0697,4.1578,4.1298,4.1267,4.1604,4.1388,4.1564,4.2065,4.2134,4.2539,4.3413,4.4062,4.4872,4.5979,4.6807,4.7703,4.8741,4.991,5.0772,5.1168,5.1908,5.2806,5.3873,5.4011,5.4134,5.4461,5.4512,5.4512,5.4512,5.479,5.5122,5.5525,5.6404,5.7209,5.7797,5.8255,5.8756,5.9364,5.9425,5.9425,5.9468,5.9712,5.9838,5.9857,5.9526,5.9116,5.8731,5.8309,5.8015,5.7997,5.7978,5.7978,5.7978,5.7978,5.7978,5.7978,5.7997,5.7997,5.8033,5.8327,5.8621,5.8646,5.9043,5.9245,5.9318,5.9318,5.93,5.9355,5.9618,5.9508,4.8583,4.8583,4.8583,4.8583,4.8537,4.8045,4.7814,4.7753,4.7281,4.6665,4.6049,4.5761,4.5314,4.4837,4.4683,4.4591,4.4591,4.4591,4.4591,4.4606,4.476,4.4822,4.4837,4.4976,4.5053,4.5053,4.5053,4.4976,4.4837,4.4837,4.4745,4.456,4.4067,4.3559,4.3063,4.3063,4.3063,4.3048,4.3048,4.2368,4.1063,4.1489,4.1628,4.1484,4.1787,4.2474,4.3443,4.3532,4.3595,4.3695,4.3663,4.3746,4.3941,4.3777,4.408,4.5018,4.56,4.6272,4.7065,4.8324,4.9151,4.9341,5.0582,5.1668,5.241,5.3185,5.3873,5.4408,5.4477,5.4494,5.4512,5.4512,5.4559,5.4714,5.5106,5.5589,5.6292,5.7318,5.8192,5.875,5.9547,6.009,6.0382,6.0566,6.0652,6.0622,6.0529,6.0456,6.0591,6.0566,6.015,5.9783,5.9061,5.8547,5.8345,5.8309,5.8217,5.807,5.7978,5.8107,5.8217,5.8309,5.8437,5.8621,5.9068,5.9416,5.9526,5.9893,6.0236,6.0236,6.0199,6.0364,6.0566,6.0621,6.0401,4.8583,4.8583,4.8604,4.8583,4.8651,4.8569,4.8543,4.8543,4.8435,4.8035,4.7397,4.6161,4.5626,4.5438,4.4918,4.4725,4.469,4.461,4.4659,4.4752,4.5237,4.5515,4.5557,4.6115,4.6423,4.6372,4.6342,4.6003,4.5545,4.5515,4.5222,4.4652,4.4529,4.4468,4.4391,4.4375,4.4375,4.4406,4.4421,4.3775,4.2507,4.2471,4.2913,4.3835,4.3443,4.3404,4.4018,4.3989,4.3971,4.3824,4.5027,4.5842,4.627,4.6848,4.7231,4.7307,4.7427,4.7824,4.8548,4.941,5.0151,5.0858,5.1599,5.241,5.3201,5.396,5.441,5.4512,5.4512,5.4512,5.4512,5.4512,5.4712,5.5179,5.5387,5.5629,5.6294,5.6819,5.7237,5.7275,5.872,5.9581,6.0315,6.0951,6.1422,6.1465,6.1043,6.0896,6.1337,6.1025,6.086,6.1062,6.0694,5.9912,5.9306,5.9086,5.8877,5.8272,5.8052,5.8419,5.8884,5.9123,5.9269,5.9648,6.0144,6.026,6.0291,6.0389,6.0481,6.0737,6.0737,6.0682,6.1263,6.1484,6.1172,4.8583,4.8646,4.9163,4.9654,5.0053,5.0073,5.0092,5.0073,5.0092,4.9917,4.9568,4.8637,4.7472,4.6231,4.6375,4.6498,4.6482,4.6498,4.6498,4.6457,4.6323,4.6188,4.6219,4.6449,4.6603,4.6603,4.6603,4.6449,4.6234,4.6207,4.6034,4.5741,4.5407,4.5191,4.5141,4.4806,4.4591,4.4625,4.503,4.4971,4.4429,4.3896,4.3817,4.4261,4.4362,4.5308,4.6812,4.7077,4.7396,4.802,4.8666,4.8653,4.7931,4.8186,4.8169,4.7789,4.8103,4.8672,4.9479,5.022,5.0772,5.1082,5.2237,5.3065,5.3391,5.4098,5.4512,5.4512,5.4512,5.4512,5.4512,5.4512,5.4743,5.5296,5.5701,5.6152,5.6713,5.772,5.8336,5.8403,5.9249,5.9985,6.0419,6.1098,6.1759,6.2144,6.1967,6.1942,6.2236,6.2022,6.1985,6.2169,6.2004,6.1288,6.0224,5.9912,5.974,5.952,5.9428,5.9618,5.9765,5.9912,6.0059,6.0401,6.0823,6.108,6.1098,6.1575,6.182,6.1747,6.1802,6.193,6.2254,6.231,6.2114,4.9273,4.939,4.9971,5.0573,5.1089,5.1091,5.1091,5.1091,5.1091,5.1091,5.1059,5.0526,4.9408,4.8008,4.8057,4.8129,4.8129,4.8129,4.8129,4.8105,4.7692,4.7431,4.7262,4.7424,4.7382,4.7182,4.7173,4.7065,4.688,4.665,4.6603,4.6531,4.6334,4.6202,4.616,4.5884,4.5816,4.589,4.6341,4.6595,4.6526,4.5976,4.5682,4.5782,4.6159,4.7432,4.9538,4.9684,4.9932,5.0415,5.0686,5.0186,4.8913,4.8982,4.8893,4.8479,4.9013,4.9669,5.0255,5.0979,5.1479,5.1772,5.2789,5.3511,5.3753,5.4201,5.4477,5.4512,5.4512,5.4512,5.4512,5.4512,5.4819,5.5531,5.6069,5.6541,5.729,5.8329,5.8799,5.8939,5.9404,6.0187,6.0456,6.1098,6.1808,6.2254,6.2591,6.2811,6.2811,6.2756,6.2756,6.2811,6.2774,6.2205,6.1025,6.0731,6.0694,6.0419,6.0279,6.0346,6.0639,6.0731,6.0988,6.141,6.1704,6.1887,6.1924,6.2444,6.2738,6.2774,6.2756,6.2719,6.2683,6.2774,6.2774,5.0995,5.0976,5.1032,5.1107,5.111,5.1166,5.1129,5.1276,5.1166,5.1145,5.122,5.1152,5.1008,5.0755,4.9651,4.9017,4.8999,4.9048,4.908,4.9111,4.9537,4.9403,4.8778,4.9387,4.9305,4.8594,4.8558,4.8265,4.7663,4.7037,4.6603,4.6718,4.7357,4.7656,4.7719,4.8166,4.8733,4.8429,4.8587,4.8772,4.8815,4.8874,4.8895,4.896,4.9333,4.977,5.0665,5.0909,5.0415,4.9031,4.9806,4.9755,4.9013,4.9548,4.9907,4.9927,5.0548,5.0979,5.1117,5.1737,5.2444,5.3115,5.3339,5.3718,5.4287,5.4443,5.4494,5.4512,5.4512,5.4512,5.4512,5.4512,5.4985,5.6027,5.6248,5.6801,5.7797,5.7994,5.8052,5.8198,5.8804,5.9563,6.0291,6.1098,6.1551,6.1887,6.2365,6.2811,6.2811,6.2811,6.2811,6.2811,6.2756,6.2499,6.1722,6.1539,6.1227,6.1006,6.1006,6.0786,6.1208,6.163,6.1998,6.2291,6.2438,6.2572,6.2701,6.2756,6.2774,6.2811,6.2811,6.2793,6.2811,6.2811,6.2811,5.1422,5.186,5.186,5.2166,5.2608,5.2626,5.2642,5.2643,5.2609,5.2642,5.2626,5.2626,5.266,5.261,5.211,5.16,5.1142,5.1124,5.1124,5.1069,5.0845,5.0553,5.0356,5.056,5.0538,5.0248,5.0193,5.0082,4.9878,4.9592,4.948,4.9308,4.8786,4.8501,4.8475,4.834,4.8289,4.8391,4.9187,4.971,4.9763,5.0325,5.0729,5.079,5.0093,5.0068,5.0824,5.1008,5.1048,5.0979,5.1272,5.1065,5.041,5.0531,5.0718,5.0772,5.1393,5.1806,5.1892,5.2528,5.308,5.3375,5.3841,5.4184,5.4427,5.4512,5.4512,5.4512,5.4512,5.4512,5.4512,5.4512,5.497,5.6045,5.6317,5.6744,5.766,5.7978,5.7978,5.8033,5.8309,5.8914,6.007,6.0676,6.1245,6.2181,6.2609,6.2774,6.2811,6.2811,6.2811,6.2811,6.2793,6.2701,6.2481,6.2365,6.2254,6.2126,6.204,6.204,6.2291,6.2273,6.2536,6.253,6.2774,6.2793,6.2774,6.2774,6.2811,6.2811,6.2811,6.2811,6.2811,6.2811,6.2811,5.2185,5.2642,5.2677,5.3006,5.3467,5.3501,5.3501,5.3501,5.3501,5.3501,5.3501,5.3501,5.3501,5.3501,5.3501,5.3246,5.2712,5.2677,5.2677,5.2642,5.2113,5.1735,5.1514,5.1477,5.135,5.1078,5.0811,5.0714,5.0681,5.0452,5.0355,5.0207,4.9534,4.9256,4.9209,4.9028,4.8954,4.9188,4.9958,5.0443,5.0543,5.1087,5.1473,5.1495,5.0779,5.0622,5.1227,5.1399,5.153,5.1806,5.1841,5.1617,5.1168,5.1082,5.1203,5.1496,5.2186,5.2582,5.2668,5.3322,5.3753,5.3754,5.4201,5.4512,5.4512,5.4512,5.4512,5.4512,5.4512,5.4512,5.4512,5.4512,5.4985,5.6041,5.6303,5.6757,5.7815,5.7978,5.7978,5.8045,5.8309,5.8951,5.9802,6.0474,6.1263,6.2334,6.2609,6.2793,6.2811,6.2811,6.2811,6.2811,6.2811,6.2994,6.3099,6.3209,6.286,6.2683,6.2622,6.2793,6.2811,6.2811,6.2811,6.2811,6.2811,6.2811,6.2811,6.2811,6.2811,6.2811,6.2811,6.2811,6.2811,6.2811,6.2811,5.345,5.3433,5.3501,5.345,5.3501,5.3501,5.3501,5.3501,5.3501,5.3501,5.3501,5.3501,5.3501,5.3501,5.3501,5.3467,5.3399,5.3382,5.3382,5.3365,5.3331,5.2938,5.2325,5.2307,5.1969,5.1352,5.0448,5.0121,5.0296,4.9778,4.9367,4.9222,4.9776,4.9871,4.997,5.0459,5.0936,5.087,5.097,5.1136,5.1201,5.1201,5.128,5.1421,5.1425,5.1559,5.1968,5.2033,5.172,5.1151,5.1099,5.1082,5.1099,5.122,5.1513,5.222,5.2961,5.3373,5.3461,5.4046,5.4391,5.4391,5.4478,5.4512,5.4512,5.4512,5.4512,5.4512,5.4512,5.4512,5.4512,5.4557,5.5046,5.6087,5.6303,5.677,5.7672,5.7978,5.8033,5.8235,5.8792,5.9203,5.9655,6.0878,6.1961,6.2291,6.2732,6.3086,6.305,6.3031,6.2884,6.2811,6.2848,6.3013,6.3558,6.4011,6.3503,6.3086,6.3025,6.3044,6.2866,6.2811,6.2811,6.2811,6.2811,6.2811,6.2811,6.2811,6.2811,6.2811,6.2811,6.2811,6.2811,6.2811,6.2811,5.3501,5.3501,5.3501,5.3501,5.3501,5.3501,5.3501,5.3501,5.3501,5.3501,5.3501,5.3501,5.3501,5.3501,5.3501,5.3501,5.3501,5.3501,5.3501,5.3501,5.3501,5.3382,5.3144,5.311,5.3006,5.2765,5.2514,5.2363,5.2161,5.1527,5.1194,5.1128,5.0391,5.0085,5.012,5.0311,5.0439,5.0507,5.093,5.1201,5.1218,5.1201,5.1044,5.0761,5.0772,5.069,5.0408,5.1047,5.1065,5.0393,5.0341,5.0565,5.1151,5.2114,5.277,5.3048,5.372,5.4167,5.4184,5.4356,5.4512,5.4512,5.4512,5.4512,5.4512,5.4512,5.4512,5.4512,5.4512,5.4512,5.4557,5.4896,5.5443,5.6221,5.6317,5.6806,5.7914,5.807,5.8547,5.9465,5.9887,6.0713,6.2108,6.3172,6.3392,6.3888,6.4242,6.4261,6.3778,6.3503,6.3374,6.2958,6.2994,6.3068,6.3723,6.4066,6.3759,6.3429,6.3337,6.308,6.2884,6.2811,6.2811,6.2811,6.2811,6.2811,6.2811,6.2811,6.2811,6.2811,6.2811,6.2811,6.2811,6.2811,6.2811,5.3501,5.3501,5.3501,5.3501,5.3501,5.3501,5.3501,5.3501,5.3501,5.3501,5.3501,5.3501,5.3501,5.3501,5.3501,5.3501,5.3501,5.3501,5.3501,5.3501,5.3501,5.3501,5.3501,5.3501,5.3501,5.3416,5.3179,5.3061,5.301,5.23,5.1877,5.1674,5.0947,5.0508,5.0507,5.049,5.0405,5.0219,5.0541,5.0659,5.044,5.0389,5.04,5.0404,5.0385,5.0359,5.0325,5.0744,5.0607,5.0098,5.0191,5.0875,5.189,5.2873,5.3529,5.3856,5.4203,5.4494,5.4512,5.4494,5.4512,5.4512,5.4512,5.4512,5.4512,5.4512,5.4512,5.4512,5.4512,5.4512,5.4589,5.5046,5.5629,5.6235,5.6501,5.7291,5.8474,5.8896,5.9648,6.086,6.1612,6.2567,6.3607,6.4457,6.4677,6.5196,6.5307,6.4774,6.4035,6.3558,6.3154,6.2701,6.2365,6.2842,6.3846,6.4016,6.3961,6.3778,6.3613,6.3209,6.2866,6.2811,6.2811,6.2811,6.2811,6.2811,6.2811,6.2811,6.2811,6.2811,6.2811,6.2811,6.2811,6.2811,6.2811,5.3501,5.3501,5.3501,5.3501,5.3501,5.3501,5.3501,5.3501,5.3501,5.3501,5.3501,5.3501,5.3501,5.3501,5.3501,5.3501,5.3501,5.3501,5.3501,5.3501,5.3501,5.3501,5.3501,5.3501,5.3501,5.3399,5.2841,5.252,5.2604,5.1877,5.1269,5.1404,5.1269,5.1167,5.1083,5.1167,5.0829,5.0355,5.0286,4.9982,4.9357,4.934,4.9605,5.0354,5.0456,5.0808,5.1241,5.1027,5.0484,4.9985,5.0767,5.1927,5.3046,5.3442,5.3839,5.4358,5.4494,5.4512,5.4512,5.4512,5.4512,5.4512,5.4512,5.4512,5.4512,5.4512,5.4512,5.4512,5.4512,5.4512,5.4605,5.5152,5.5794,5.646,5.7129,5.822,5.9974,6.0315,6.1141,6.2572,6.3631,6.4286,6.4543,6.5191,6.5485,6.5613,6.5668,6.5031,6.393,6.349,6.2713,6.2346,6.2181,6.2805,6.3882,6.4176,6.4145,6.4389,6.4127,6.3618,6.2994,6.2829,6.2811,6.2811,6.2811,6.2811,6.2811,6.2811,6.2811,6.2811,6.2811,6.2811,6.2811,6.2811,6.2811,5.3501,5.3501,5.3501,5.3501,5.3501,5.3501,5.3501,5.3501,5.3501,5.3501,5.3501,5.3501,5.3501,5.3501,5.3501,5.3501,5.3501,5.3501,5.3501,5.3501,5.3501,5.3501,5.3501,5.3501,5.3501,5.345,5.3264,5.3196,5.3129,5.2384,5.2013,5.1978,5.1539,5.1269,5.1218,5.1286,5.1116,5.0947,5.0897,5.0557,5.0016,5.0338,5.0438,5.0181,5.0706,5.1094,5.1345,5.1397,5.1155,5.0755,5.2006,5.2925,5.3425,5.3908,5.4254,5.4443,5.4512,5.4512,5.4512,5.4512,5.4512,5.4512,5.4512,5.4512,5.4512,5.4512,5.4512,5.4512,5.4512,5.4512,5.4667,5.5449,5.6648,5.8163,5.8616,5.9219,6.0298,6.0988,6.2126,6.4169,6.4861,6.5485,6.6287,6.6709,6.6916,6.6948,6.6801,6.6256,6.4719,6.415,6.3686,6.2884,6.2683,6.3191,6.3741,6.4121,6.4457,6.4921,6.4719,6.4224,6.349,6.2866,6.2829,6.2811,6.2811,6.2811,6.2811,6.2811,6.2811,6.2811,6.2811,6.2811,6.2811,6.2811,6.2811,5.3501,5.3501,5.3501,5.3501,5.3501,5.3501,5.3501,5.3501,5.3501,5.3501,5.3501,5.3501,5.3501,5.3501,5.3501,5.3501,5.3501,5.3501,5.3501,5.3501,5.3501,5.3501,5.3501,5.3501,5.3501,5.3501,5.3501,5.3484,5.3433,5.301,5.2841,5.2756,5.2368,5.2181,5.2249,5.2148,5.1962,5.1742,5.1641,5.1319,5.0693,5.098,5.12,5.1031,5.1471,5.1691,5.1838,5.2351,5.2402,5.218,5.2833,5.3529,5.3856,5.4254,5.4512,5.4512,5.4512,5.4512,5.4512,5.4512,5.4512,5.4512,5.4512,5.4512,5.4512,5.4512,5.4512,5.4512,5.4512,5.4512,5.4749,5.5853,5.7603,5.9329,6.0297,6.1013,6.1869,6.275,6.4071,6.5595,6.6366,6.6568,6.7609,6.7682,6.7682,6.7645,6.7535,6.6434,6.5099,6.4971,6.442,6.3319,6.2591,6.2823,6.3594,6.4145,6.464,6.5105,6.5307,6.4811,6.4004,6.316,6.2866,6.2829,6.2811,6.2811,6.2811,6.2811,6.2811,6.2811,6.2811,6.2866,6.2903,6.2994,6.2958,5.3501,5.3501,5.3501,5.3501,5.3501,5.3501,5.3501,5.3501,5.3501,5.3501,5.3501,5.3501,5.3501,5.3501,5.3501,5.3501,5.3501,5.3501,5.3501,5.3501,5.3501,5.3501,5.3501,5.3501,5.3501,5.3501,5.3501,5.3501,5.3484,5.3433,5.345,5.3349,5.3365,5.3416,5.323,5.3348,5.3078,5.2553,5.2435,5.203,5.1522,5.1573,5.1826,5.2012,5.2317,5.2517,5.2835,5.3371,5.365,5.321,5.3401,5.3858,5.4408,5.4494,5.4512,5.4512,5.4512,5.4512,5.4512,5.4512,5.4512,5.4512,5.4512,5.4512,5.4512,5.4512,5.4512,5.4512,5.4512,5.4689,5.5316,5.6604,5.8516,6.0419,6.2004,6.3196,6.42,6.4989,6.6035,6.7407,6.7645,6.7682,6.7682,6.7682,6.7682,6.7682,6.7609,6.6838,6.565,6.5081,6.4182,6.2915,6.2438,6.2199,6.3191,6.4206,6.4751,6.5264,6.5595,6.5325,6.4517,6.3747,6.316,6.2866,6.2829,6.2811,6.2811,6.2811,6.2848,6.3099,6.3282,6.3215,6.316,6.3282,6.3319,5.3501,5.3501,5.3501,5.3501,5.3501,5.3501,5.3501,5.3501,5.3501,5.3501,5.3501,5.3501,5.3501,5.3501,5.3501,5.3501,5.3501,5.3501,5.3501,5.3501,5.3501,5.3501,5.3501,5.3501,5.3501,5.3501,5.3501,5.3501,5.3501,5.3501,5.3501,5.3501,5.3501,5.3501,5.3501,5.3484,5.345,5.3264,5.3213,5.2807,5.2367,5.2588,5.2689,5.2503,5.2892,5.3279,5.3463,5.3813,5.3976,5.4017,5.4125,5.4305,5.446,5.4512,5.4512,5.4512,5.4512,5.4512,5.4512,5.4512,5.4512,5.4512,5.4512,5.4512,5.4512,5.4512,5.4512,5.4512,5.4545,5.5212,5.6711,5.7758,5.9614,6.1688,6.322,6.4415,6.5613,6.6127,6.6714,6.7388,6.7682,6.7682,6.7682,6.7682,6.7682,6.7682,6.7462,6.7095,6.6292,6.5356,6.4347,6.3227,6.3117,6.3025,6.3301,6.4494,6.5448,6.5888,6.6145,6.576,6.4971,6.4328,6.3723,6.3196,6.2811,6.2811,6.2811,6.2989,6.308,6.3411,6.3815,6.398,6.404,6.3943,6.3796,5.3501,5.3501,5.3501,5.3501,5.3501,5.3501,5.3501,5.3501,5.3501,5.3501,5.3501,5.3501,5.3501,5.3501,5.3501,5.3501,5.3501,5.3501,5.3501,5.3501,5.3501,5.3501,5.3501,5.3501,5.3501,5.3501,5.3501,5.3501,5.3501,5.3501,5.3501,5.3501,5.3501,5.3501,5.3501,5.3501,5.3484,5.3467,5.3501,5.3264,5.3044,5.3247,5.3365,5.2976,5.3298,5.3601,5.3816,5.3931,5.411,5.4321,5.4448,5.4512,5.4512,5.4512,5.4512,5.4512,5.4512,5.4512,5.4512,5.4512,5.4512,5.4512,5.4512,5.4512,5.4512,5.4512,5.4703,5.4909,5.5247,5.5956,5.8342,5.9308,6.0968,6.2957,6.4516,6.5582,6.6347,6.6824,6.7187,6.759,6.7682,6.7682,6.7682,6.7682,6.7682,6.7682,6.7682,6.7315,6.6733,6.5833,6.5081,6.431,6.4182,6.4053,6.3925,6.4787,6.6256,6.6746,6.7058,6.6311,6.5343,6.4787,6.4237,6.3576,6.2848,6.2811,6.2848,6.3062,6.3466,6.3815,6.4255,6.4751,6.4971,6.4769,6.4659,5.3501,5.3501,5.3501,5.3501,5.3501,5.3501,5.3501,5.3501,5.3501,5.3501,5.3501,5.3501,5.3501,5.3501,5.3501,5.3501,5.3501,5.3501,5.3501,5.3501,5.3501,5.3501,5.3501,5.3501,5.3501,5.3501,5.3501,5.3501,5.3501,5.3501,5.3501,5.3501,5.3501,5.3501,5.3501,5.3501,5.3501,5.3501,5.3501,5.3484,5.3399,5.3484,5.345,5.345,5.345,5.3668,5.3882,5.4013,5.416,5.448,5.4512,5.4512,5.4512,5.4512,5.4512,5.4512,5.4512,5.4512,5.4512,5.4512,5.4512,5.4512,5.4512,5.4598,5.4667,5.4822,5.5151,5.5685,5.6232,5.7336,5.98,6.0899,6.2302,6.4186,6.5796,6.6436,6.6788,6.7315,6.759,6.7664,6.7682,6.7682,6.7682,6.7682,6.7682,6.7682,6.7682,6.7517,6.6953,6.6329,6.5595,6.5026,6.4756,6.5026,6.4989,6.5099,6.6568,6.7205,6.7627,6.6696,6.5692,6.516,6.453,6.3472,6.2903,6.2958,6.3301,6.3833,6.4182,6.4383,6.4897,6.5576,6.5687,6.5558,6.5503,5.3501,5.3501,5.3501,5.3501,5.3501,5.3501,5.3501,5.3501,5.3501,5.3501,5.3501,5.3501,5.3501,5.3501,5.3501,5.3501,5.3501,5.3501,5.3501,5.3501,5.3501,5.3501,5.3501,5.3501,5.3501,5.3501,5.3501,5.3501,5.3501,5.3501,5.3501,5.3501,5.3501,5.3501,5.3501,5.3501,5.3501,5.3501,5.3501,5.3501,5.3501,5.3501,5.3501,5.3501,5.3501,5.3668,5.3916,5.3997,5.416,5.4447,5.4496,5.4512,5.4512,5.4512,5.4512,5.4512,5.4512,5.4512,5.4512,5.4512,5.4512,5.4512,5.4581,5.4909,5.5237,5.5444,5.5823,5.665,5.7716,5.9066,6.0658,6.1969,6.3804,6.5455,6.6301,6.6806,6.7297,6.7572,6.7682,6.7682,6.7682,6.7682,6.7682,6.7682,6.7682,6.7682,6.7682,6.7682,6.7407,6.6788,6.6145,6.5632,6.5196,6.5655,6.6072,6.6164,6.6801,6.7315,6.7499,6.6806,6.598,6.549,6.4738,6.371,6.3374,6.3521,6.3961,6.4475,6.5063,6.5393,6.5925,6.6476,6.6494,6.6476,6.6329,5.3501,5.3501,5.3501,5.3501,5.3501,5.3501,5.3501,5.3501,5.3501,5.3501,5.3501,5.3501,5.3501,5.3501,5.3501,5.3501,5.3501,5.3501,5.3501,5.3501,5.3501,5.3501,5.3501,5.3501,5.3501,5.3501,5.3501,5.3501,5.3501,5.3501,5.3501,5.3501,5.3501,5.3501,5.3501,5.3501,5.3501,5.3501,5.3501,5.3501,5.3501,5.3501,5.3501,5.3501,5.3517,5.3668,5.3915,5.398,5.4176,5.4432,5.4512,5.4512,5.4512,5.4512,5.4512,5.4512,5.4512,5.4512,5.4512,5.4529,5.4667,5.5046,5.5065,5.5444,5.5978,5.6305,5.6598,5.746,5.8702,6.0029,6.1083,6.2795,6.4455,6.5742,6.6582,6.7188,6.7559,6.765,6.7682,6.7682,6.7682,6.7682,6.7682,6.7682,6.7682,6.7682,6.7682,6.7682,6.7682,6.7278,6.6659,6.6256,6.5888,6.6219,6.6678,6.688,6.6985,6.7425,6.7407,6.6733,6.62,6.5692,6.4934,6.398,6.3906,6.398,6.4255,6.4659,6.5521,6.6366,6.6751,6.7081,6.7352,6.7393,6.7136,5.3501,5.3501,5.3501,5.3501,5.3501,5.3501,5.3501,5.3501,5.3501,5.3501,5.3501,5.3501,5.3501,5.3501,5.3501,5.3501,5.3501,5.3501,5.3501,5.3501,5.3501,5.3501,5.3501,5.3501,5.3501,5.3501,5.3501,5.3501,5.3501,5.3501,5.3501,5.3501,5.3501,5.3501,5.3501,5.3501,5.3501,5.3501,5.3501,5.3501,5.3501,5.3501,5.3501,5.3501,5.3534,5.3701,5.3948,5.4045,5.4191,5.4416,5.4512,5.4512,5.4512,5.4512,5.4512,5.4512,5.4512,5.4512,5.4546,5.4754,5.503,5.5427,5.5736,5.6253,5.684,5.7236,5.7547,5.8254,5.9495,6.0687,6.1638,6.3166,6.4525,6.5548,6.6526,6.7286,6.7415,6.7547,6.7669,6.7682,6.7682,6.7682,6.7682,6.7682,6.7682,6.7682,6.7682,6.7682,6.7682,6.7682,6.726,6.6874,6.6678,6.6843,6.715,6.7407,6.7444,6.7554,6.7315,6.6728,6.6292,6.5875,6.5099,6.4457,6.4218,6.4292,6.4567,6.5136,6.62,6.7008,6.7407,6.759,6.7609,6.7627,6.748,5.3501,5.3501,5.3501,5.3501,5.3501,5.3501,5.3501,5.3501,5.3501,5.3501,5.3501,5.3501,5.3501,5.3501,5.3501,5.3501,5.3501,5.3501,5.3501,5.3501,5.3501,5.3501,5.3501,5.3501,5.3501,5.3501,5.3501,5.3501,5.3501,5.3501,5.3501,5.3501,5.3501,5.3501,5.3501,5.3501,5.3501,5.3501,5.3501,5.3501,5.3501,5.3501,5.3501,5.3534,5.3635,5.3767,5.3964,5.4094,5.4271,5.4464,5.4512,5.4512,5.4512,5.4512,5.4512,5.4512,5.4512,5.4512,5.4667,5.515,5.5599,5.5961,5.6322,5.6995,5.7633,5.8219,5.8547,5.8875,6.0185,6.1189,6.1865,6.3021,6.4224,6.506,6.5836,6.6374,6.6671,6.7262,6.7433,6.7588,6.7561,6.7642,6.7682,6.7682,6.7682,6.7682,6.7682,6.7682,6.7682,6.7682,6.7682,6.7297,6.7076,6.7223,6.7352,6.7645,6.7682,6.7682,6.7333,6.6838,6.6476,6.6127,6.5742,6.5191,6.4952,6.5118,6.576,6.6457,6.7192,6.748,6.759,6.7645,6.7682,6.7682,6.7682,5.3501,5.3501,5.3501,5.3501,5.3501,5.3501,5.3501,5.3501,5.3501,5.3501,5.3501,5.3501,5.3501,5.3501,5.3501,5.3501,5.3501,5.3501,5.3501,5.3501,5.3501,5.3501,5.3501,5.3501,5.3501,5.3501,5.3501,5.3501,5.3501,5.3501,5.3501,5.3501,5.3501,5.3501,5.3501,5.3501,5.3501,5.3501,5.3501,5.3501,5.3501,5.3501,5.3501,5.3501,5.3634,5.38,5.398,5.4127,5.4287,5.4464,5.4512,5.4512,5.4512,5.4512,5.4512,5.453,5.4943,5.5116,5.522,5.5874,5.634,5.6806,5.7253,5.7736,5.8375,5.8754,5.8995,5.8995,5.9995,6.0982,6.1865,6.2836,6.3876,6.4693,6.5166,6.5482,6.5986,6.6671,6.7089,6.7262,6.7424,6.7423,6.7462,6.7535,6.7572,6.7682,6.7682,6.7682,6.7682,6.7682,6.7682,6.7627,6.748,6.7425,6.7517,6.7682,6.7682,6.7682,6.7627,6.7168,6.6751,6.6384,6.6127,6.6237,6.6347,6.6641,6.7113,6.7063,6.7136,6.7407,6.7682,6.7682,6.7682,6.7682,6.7682,5.3651,5.3501,5.3501,5.3501,5.3501,5.3501,5.3501,5.3501,5.3501,5.3501,5.3501,5.3501,5.3501,5.3501,5.3501,5.3501,5.3501,5.3501,5.3501,5.3501,5.3501,5.3501,5.3501,5.3501,5.3501,5.3501,5.3501,5.3501,5.3501,5.3501,5.3501,5.3501,5.3501,5.3501,5.3501,5.3501,5.3501,5.3501,5.3501,5.3501,5.3501,5.3501,5.3501,5.3551,5.3634,5.38,5.398,5.4127,5.4287,5.4464,5.4512,5.4512,5.4512,5.4512,5.4684,5.4909,5.5478,5.6047,5.6306,5.6805,5.734,5.7754,5.8151,5.8375,5.8771,5.8995,5.9168,5.9357,6.0133,6.0963,6.1779,6.2836,6.3356,6.4054,6.4571,6.4846,6.5189,6.5789,6.6237,6.6354,6.6553,6.6973,6.7045,6.7247,6.7425,6.7627,6.7682,6.7682,6.7682,6.7682,6.7682,6.7682,6.7645,6.7554,6.7609,6.7682,6.7682,6.7645,6.759,6.7499,6.7118,6.6916,6.6751,6.704,6.7352,6.7425,6.7407,6.7155,6.6971,6.737,6.7682,6.7682,6.7682,6.7682,6.7682,5.4011,5.3501,5.3517,5.3501,5.3501,5.3501,5.3501,5.3501,5.3501,5.3501,5.3501,5.3501,5.3501,5.3501,5.3501,5.3501,5.3501,5.3501,5.3501,5.3501,5.3501,5.3501,5.3501,5.3501,5.3501,5.3501,5.3501,5.3501,5.3501,5.3501,5.3501,5.3501,5.3501,5.3501,5.3501,5.3501,5.3501,5.3501,5.3501,5.3501,5.3501,5.3501,5.3501,5.3517,5.3634,5.38,5.4014,5.4127,5.4287,5.4496,5.4512,5.4512,5.4512,5.4649,5.4892,5.5375,5.622,5.684,5.7322,5.7616,5.7806,5.8082,5.8409,5.8788,5.8961,5.8995,5.9288,5.9892,6.0444,6.1554,6.2335,6.2935,6.2853,6.3266,6.3579,6.3417,6.3879,6.4784,6.5191,6.5337,6.5702,6.6187,6.6568,6.6751,6.7333,6.759,6.7682,6.7682,6.7682,6.7682,6.7682,6.7682,6.7682,6.7664,6.7664,6.7682,6.7682,6.7572,6.7462,6.7535,6.7499,6.737,6.7205,6.7352,6.7572,6.7645,6.7682,6.7462,6.737,6.7554,6.7682,6.7682,6.7682,6.7682,6.7682,5.4892,5.4646,5.4236,5.3832,5.3501,5.3501,5.3501,5.3501,5.3501,5.3501,5.3501,5.3501,5.3501,5.3501,5.3501,5.3501,5.3501,5.3501,5.3501,5.3501,5.3501,5.3501,5.3501,5.3501,5.3501,5.3501,5.3501,5.3501,5.3501,5.3501,5.3501,5.3501,5.3501,5.3501,5.3501,5.3501,5.3501,5.3501,5.3501,5.3501,5.3501,5.3501,5.3501,5.3501,5.3634,5.38,5.3997,5.4143,5.4303,5.4431,5.4496,5.4512,5.4615,5.4875,5.5272,5.5771,5.6737,5.7513,5.7961,5.8288,5.8564,5.8599,5.884,5.8995,5.8995,5.8995,5.9409,5.9978,6.0461,6.138,6.2456,6.2214,6.1936,6.244,6.2555,6.2318,6.2693,6.369,6.4161,6.4339,6.4953,6.5563,6.5907,6.6237,6.6916,6.7535,6.7609,6.7682,6.7682,6.7682,6.7682,6.7682,6.7682,6.7682,6.7682,6.7682,6.7682,6.7554,6.7388,6.7517,6.7645,6.7645,6.7535,6.7664,6.7682,6.7682,6.7682,6.7682,6.7682,6.7682,6.7682,6.7682,6.7682,6.7682,6.7682,5.556,5.534,5.4887,5.4346,5.3816,5.3767,5.3651,5.3551,5.3718,5.3651,5.3518,5.3501,5.3501,5.3501,5.3501,5.3501,5.3501,5.3501,5.3501,5.3501,5.3501,5.3501,5.3501,5.3501,5.3501,5.3501,5.3501,5.3501,5.3501,5.3501,5.3501,5.3501,5.3501,5.3501,5.3501,5.3501,5.3501,5.3501,5.3501,5.3501,5.3501,5.3501,5.3501,5.3501,5.3584,5.3701,5.3882,5.4045,5.419,5.4334,5.4447,5.4496,5.4737,5.5116,5.5651,5.6305,5.7047,5.7926,5.8323,5.8616,5.8995,5.8909,5.8944,5.8995,5.8995,5.9013,5.9357,6.0064,6.0289,6.0876,6.2348,6.2057,6.2,6.2544,6.2151,6.1953,6.217,6.2857,6.3121,6.337,6.3996,6.4499,6.5173,6.5595,6.6604,6.7278,6.7627,6.7682,6.7682,6.7682,6.7682,6.7682,6.7682,6.7682,6.7682,6.7682,6.7682,6.7664,6.7554,6.759,6.7682,6.7682,6.7682,6.7682,6.7682,6.7682,6.7682,6.7682,6.7682,6.7682,6.7682,6.7682,6.7682,6.7682,6.7682,5.5961,5.5414,5.5402,5.4994,5.4469,5.4391,5.4091,5.38,5.4107,5.4027,5.3618,5.3551,5.3501,5.3501,5.3501,5.3501,5.3501,5.3501,5.3501,5.3501,5.3501,5.3501,5.3501,5.3501,5.3501,5.3501,5.3501,5.3501,5.3501,5.3501,5.3501,5.3501,5.3501,5.3501,5.3501,5.3501,5.3501,5.3501,5.3501,5.3501,5.3501,5.3501,5.3501,5.3501,5.3517,5.3601,5.3816,5.3964,5.4127,5.4303,5.4431,5.4496,5.4598,5.534,5.6012,5.6667,5.7461,5.8237,5.8857,5.8961,5.8995,5.8995,5.8995,5.8995,5.8995,5.9064,5.934,6.0082,6.0323,6.1294,6.1985,6.227,6.2378,6.2155,6.1756,6.145,6.1626,6.1947,6.2245,6.2689,6.2892,6.3215,6.409,6.4971,6.6145,6.6966,6.7499,6.7682,6.7664,6.7682,6.7682,6.7682,6.7682,6.7682,6.7682,6.7682,6.7682,6.7682,6.7682,6.7682,6.7682,6.7682,6.7682,6.7682,6.7682,6.7682,6.7682,6.7682,6.7682,6.7682,6.7682,6.7682,6.7682,6.7682,6.7682,5.6767,5.655,5.6156,5.5876,5.5615,5.5236,5.492,5.4738,5.4518,5.4281,5.4027,5.3701,5.3501,5.3501,5.3501,5.3501,5.3501,5.3501,5.3501,5.3501,5.3501,5.3501,5.3501,5.3501,5.3501,5.3501,5.3501,5.3501,5.3501,5.3501,5.3501,5.3501,5.3501,5.3501,5.3501,5.3501,5.3501,5.3501,5.3501,5.3501,5.3501,5.3501,5.3501,5.3501,5.3501,5.3618,5.3833,5.3932,5.4078,5.4305,5.4448,5.448,5.4753,5.5512,5.646,5.7064,5.7788,5.8685,5.8961,5.8995,5.8995,5.8995,5.8995,5.8995,5.8995,5.8995,5.9444,6.003,6.0409,6.1414,6.2229,6.2261,6.2183,6.155,6.1101,6.0644,6.066,6.112,6.1516,6.2128,6.2467,6.3126,6.3925,6.4365,6.5393,6.6274,6.6806,6.7425,6.7572,6.7664,6.7682,6.7682,6.7682,6.7682,6.7682,6.7682,6.7682,6.7682,6.7682,6.7682,6.7682,6.7682,6.7682,6.7682,6.7682,6.7682,6.7682,6.7682,6.7682,6.7682,6.7682,6.7682,6.7682,6.7682,6.7682,5.7188,5.715,5.6767,5.6608,5.6515,5.5961,5.5722,5.5589,5.5054,5.4749,5.4627,5.4108,5.3832,5.3767,5.3618,5.3501,5.3501,5.3501,5.3501,5.3501,5.3501,5.3501,5.3501,5.3534,5.3501,5.3501,5.3501,5.3501,5.3501,5.3501,5.3501,5.3501,5.3501,5.3501,5.3501,5.3501,5.3501,5.3501,5.3501,5.3501,5.3501,5.3501,5.3501,5.3501,5.3517,5.3601,5.3767,5.3899,5.4029,5.4273,5.44,5.4448,5.4911,5.5788,5.6684,5.7202,5.8099,5.8857,5.8995,5.8995,5.8995,5.8995,5.8995,5.8995,5.8995,5.8995,5.9237,5.9737,6.0358,6.1152,6.188,6.1915,6.1584,6.0947,6.0817,6.0385,6.1122,6.1649,6.1933,6.2421,6.2754,6.3376,6.3631,6.4035,6.4585,6.5375,6.6109,6.6806,6.7499,6.7609,6.7682,6.7682,6.7664,6.7664,6.7664,6.7682,6.7682,6.7682,6.7682,6.7682,6.7682,6.7682,6.7682,6.7682,6.7682,6.7682,6.7682,6.7682,6.7682,6.7682,6.7682,6.7682,6.7682,6.7682,6.7682,5.7188,5.7188,5.7188,5.7163,5.7074,5.6541,5.6325,5.627,5.569,5.5446,5.537,5.4718,5.4438,5.433,5.3882,5.3735,5.3784,5.3751,5.3767,5.3734,5.3899,5.38,5.3784,5.3801,5.3932,5.3734,5.3634,5.3734,5.3568,5.3501,5.3501,5.3501,5.3501,5.3501,5.3501,5.3501,5.3501,5.3501,5.3501,5.3501,5.3501,5.3501,5.3501,5.3501,5.3534,5.3584,5.3684,5.38,5.3915,5.4078,5.4191,5.4353,5.493,5.5961,5.6512,5.7305,5.8409,5.8788,5.8995,5.8995,5.8995,5.8995,5.8995,5.8995,5.8995,5.8995,5.9116,5.934,5.9806,6.0531,6.1189,6.1068,6.0907,6.0781,6.0818,6.1302,6.2285,6.2775,6.2967,6.3233,6.3441,6.3649,6.3196,6.3417,6.4237,6.5118,6.5962,6.6696,6.7315,6.7627,6.7682,6.7645,6.7627,6.7609,6.7609,6.7535,6.7609,6.759,6.7682,6.7682,6.7682,6.7682,6.7682,6.7682,6.7682,6.7682,6.7682,6.7682,6.7682,6.7682,6.7682,6.7682,6.7682,6.7682,6.7682,5.7188,5.7188,5.7188,5.7188,5.7163,5.7023,5.6941,5.6863,5.6311,5.6049,5.6021,5.5382,5.5097,5.5087,5.4937,5.483,5.4815,5.4878,5.4876,5.4799,5.4629,5.4801,5.4817,5.474,5.4799,5.4629,5.441,5.4107,5.3994,5.3783,5.3501,5.3501,5.3501,5.3501,5.3501,5.3501,5.3501,5.3501,5.3501,5.3501,5.3501,5.3501,5.3501,5.3501,5.3584,5.3651,5.3767,5.3932,5.4094,5.4271,5.4369,5.4464,5.4583,5.5943,5.7029,5.8288,5.8823,5.8995,5.8995,5.8995,5.8995,5.8995,5.8995,5.8995,5.8995,5.8995,5.8995,5.9168,5.9789,6.0669,6.1398,6.143,6.1372,6.1449,6.129,6.132,6.2152,6.2406,6.2657,6.3359,6.3613,6.3337,6.2884,6.3301,6.4127,6.5026,6.5852,6.6586,6.7113,6.7425,6.748,6.7444,6.715,6.7003,6.7223,6.7223,6.7388,6.7517,6.7609,6.7682,6.7682,6.7682,6.7682,6.7682,6.7682,6.7682,6.7682,6.7682,6.7682,6.7682,6.7682,6.7682,6.7682,6.7682,6.7682,5.7188,5.7188,5.7188,5.7188,5.7188,5.7188,5.7188,5.7125,5.6811,5.6666,5.6582,5.6017,5.5748,5.5705,5.5473,5.5325,5.5311,5.5251,5.5266,5.5266,5.5458,5.5311,5.537,5.5429,5.5296,5.5204,5.5024,5.4626,5.4376,5.3865,5.3501,5.3501,5.3501,5.3518,5.3501,5.3501,5.3501,5.3501,5.3501,5.3501,5.3501,5.3501,5.3501,5.3517,5.3617,5.375,5.3833,5.3997,5.4159,5.4239,5.4273,5.44,5.464,5.5878,5.7444,5.8564,5.8944,5.8995,5.8995,5.8995,5.8995,5.8995,5.8995,5.8995,5.8995,5.8995,5.8995,5.9133,6.0134,6.1068,6.1657,6.2171,6.2286,6.2399,6.1783,6.1142,6.1374,6.1619,6.2279,6.309,6.3196,6.2958,6.3025,6.3429,6.4035,6.4952,6.5723,6.6402,6.6843,6.7113,6.7095,6.7003,6.6549,6.6219,6.6549,6.699,6.7223,6.7425,6.7627,6.7682,6.7682,6.7682,6.7682,6.7682,6.7682,6.7682,6.7682,6.7682,6.7682,6.7682,6.7682,6.7682,6.7682,6.7682,6.7682,5.7188,5.7188,5.7188,5.7188,5.7188,5.7188,5.7188,5.7188,5.715,5.7176,5.7049,5.6626,5.6348,5.6298,5.6003,5.5791,5.5833,5.5833,5.5844,5.556,5.5787,5.5816,5.5791,5.5589,5.5876,5.5676,5.5382,5.5172,5.4516,5.4172,5.3964,5.3635,5.3651,5.3701,5.3734,5.3551,5.3518,5.3501,5.3501,5.3501,5.3501,5.3501,5.3501,5.3534,5.3601,5.3718,5.3668,5.3767,5.3965,5.3931,5.4132,5.4393,5.5333,5.6086,5.7634,5.8461,5.8944,5.8995,5.8995,5.8995,5.8995,5.8995,5.8995,5.8995,5.8995,5.8995,5.8995,5.9133,6.0013,6.098,6.1646,6.1989,6.2157,6.2186,6.1836,6.1544,6.1657,6.1954,6.2486,6.3082,6.305,6.2848,6.2829,6.3227,6.3631,6.4695,6.5527,6.6145,6.6641,6.6893,6.6783,6.6604,6.6127,6.5888,6.6366,6.6769,6.7063,6.7315,6.759,6.7682,6.7682,6.7682,6.7682,6.7682,6.7682,6.7682,6.7682,6.7682,6.7682,6.7682,6.7682,6.7682,6.7682,6.7682,6.7682,5.7188,5.7188,5.7188,5.7188,5.7188,5.7188,5.7188,5.7188,5.7188,5.7188,5.7163,5.7031,5.6941,5.685,5.6727,5.6608,5.6648,5.6515,5.6727,5.6661,5.6617,5.6497,5.6688,5.6537,5.6648,5.6626,5.6307,5.5733,5.5204,5.495,5.4876,5.483,5.452,5.4204,5.4172,5.3915,5.3601,5.3618,5.3501,5.3551,5.3601,5.3534,5.3501,5.3584,5.3684,5.3818,5.3867,5.4096,5.4176,5.4225,5.4921,5.5794,5.698,5.7409,5.8047,5.8788,5.8995,5.8995,5.8978,5.8978,5.8995,5.8995,5.8995,5.8995,5.8995,5.8995,5.9082,5.9271,5.9788,6.0763,6.151,6.1736,6.1938,6.1917,6.191,6.1945,6.1985,6.2373,6.2777,6.2854,6.2896,6.2866,6.2811,6.3031,6.3447,6.4132,6.4958,6.5674,6.6347,6.6696,6.6531,6.6311,6.5784,6.5674,6.6219,6.6623,6.6935,6.7315,6.7627,6.7682,6.7682,6.7682,6.7682,6.7682,6.7682,6.7682,6.7682,6.7682,6.7682,6.7682,6.7682,6.7682,6.7682,6.7682,6.7682,5.7188,5.7188,5.7188,5.7188,5.7188,5.7188,5.7188,5.7188,5.7188,5.7188,5.7188,5.7188,5.7188,5.7188,5.7188,5.7188,5.7188,5.7176,5.7069,5.7138,5.7188,5.7138,5.7188,5.7188,5.7112,5.7036,5.6568,5.6059,5.5805,5.5443,5.5296,5.5385,5.4994,5.4826,5.4767,5.4251,5.3898,5.3897,5.3701,5.3701,5.3783,5.3701,5.3534,5.3601,5.3768,5.3953,5.4139,5.4388,5.4606,5.4982,5.5682,5.6517,5.7376,5.7754,5.8203,5.8686,5.8944,5.8961,5.8961,5.8978,5.8995,5.8995,5.8995,5.8995,5.8995,5.8995,5.8995,5.9202,5.9754,6.0668,6.107,6.1376,6.1571,6.1644,6.1804,6.1941,6.2105,6.2414,6.2693,6.2815,6.2848,6.2829,6.2811,6.2811,6.338,6.4536,6.5215,6.5833,6.6384,6.6586,6.6402,6.6182,6.5765,6.5784,6.6311,6.6623,6.6861,6.726,6.7682,6.7682,6.7682,6.7682,6.7682,6.7682,6.7682,6.7682,6.7682,6.7682,6.7682,6.7682,6.7682,6.7682,6.7682,6.7682,6.7682,5.7188,5.7188,5.7188,5.7188,5.7188,5.7188,5.7188,5.7188,5.7188,5.7188,5.7188,5.7188,5.7188,5.7188,5.7188,5.7188,5.7188,5.7188,5.7188,5.7188,5.7188,5.7188,5.7188,5.7188,5.7188,5.7074,5.6732,5.6555,5.642,5.6087,5.5862,5.5647,5.5546,5.5519,5.5308,5.4933,5.4534,5.444,5.4299,5.4188,5.4075,5.3946,5.3767,5.3767,5.402,5.4343,5.4464,5.4753,5.5125,5.5704,5.6421,5.7259,5.779,5.8186,5.8393,5.8772,5.8909,5.8909,5.8892,5.8961,5.8978,5.8995,5.8995,5.8995,5.8995,5.9098,5.9098,5.9254,5.9823,6.0271,6.0658,6.1034,6.1224,6.153,6.176,6.2037,6.2273,6.2495,6.2654,6.2811,6.2811,6.2811,6.2811,6.2811,6.3453,6.4646,6.549,6.6237,6.6696,6.6641,6.6512,6.6366,6.6127,6.6256,6.6347,6.6604,6.6769,6.7315,6.7682,6.7682,6.7682,6.7682,6.7682,6.7682,6.7682,6.7682,6.7682,6.7682,6.7682,6.7682,6.7682,6.7682,6.7682,6.7682,6.7682,5.7188,5.7188,5.7188,5.7188,5.7188,5.7188,5.7188,5.7188,5.7188,5.7188,5.7188,5.7188,5.7188,5.7188,5.7188,5.7188,5.7188,5.7188,5.7188,5.7188,5.7188,5.7188,5.7188,5.7188,5.7188,5.71,5.7005,5.7018,5.6863,5.678,5.6806,5.6727,5.6243,5.6118,5.6003,5.5586,5.5192,5.5087,5.5056,5.4983,5.4905,5.4705,5.4313,5.4521,5.503,5.4934,5.4975,5.5468,5.5843,5.6371,5.7139,5.7995,5.8493,5.8718,5.8806,5.8858,5.8978,5.8909,5.8944,5.8961,5.8978,5.8995,5.8995,5.8995,5.9165,5.9515,5.9433,5.9165,5.9613,5.9995,6.0399,6.0824,6.1112,6.1601,6.1919,6.2255,6.2547,6.2636,6.2755,6.2811,6.2811,6.2811,6.2811,6.2829,6.2921,6.3875,6.4365,6.5149,6.6127,6.6347,6.6512,6.6347,6.6164,6.5925,6.5692,6.6366,6.6714,6.7297,6.7682,6.7682,6.7682,6.7682,6.7682,6.7682,6.7682,6.7682,6.7682,6.7682,6.7682,6.7682,6.7682,6.7682,6.7682,6.7682,6.7682]}]]